[[[{"header":{"parameterUnit":"kt","parameterCategory":2,"dx":1,"dy":1,"la1":29.587661999999998,"la2":31.0,"lo1":-88.76705300000003,"lo2":-86.6583820000003,"nx":115,"ny":88,"refTime":"2022-10-24T06:00:00:Z","depth":0,"parameterNumber":1,"parameterNumberName":"U-component_of_WINDS"},"data":[-11.4355,-11.1595,-11.0011,-10.9847,-11.0812,-11.193,-11.2387,-11.254,-11.3352,-11.3759,-11.3759,-11.3759,-11.3759,-11.3759,-11.3759,-11.3621,-11.3483,-11.3621,-11.3621,-11.3759,-11.3483,-11.3018,-11.2463,-11.1677,-11.0694,-10.9989,-10.9422,-10.928,-10.9036,-10.7572,-10.6889,-10.7761,-10.5855,-10.6659,-10.8785,-10.9607,-11.0142,-11.0678,-11.0835,-11.0307,-11.0151,-10.8785,-10.7405,-10.6736,-10.6031,-10.5415,-10.5473,-10.6742,-10.7377,-10.7914,-10.8402,-10.8743,-10.806,-10.684,-10.5815,-10.4985,-10.3912,-10.3082,-10.2753,-10.2753,-10.2753,-10.2753,-10.2753,-10.2753,-10.2753,-10.2753,-10.2753,-10.2753,-10.2398,-10.2398,-10.191,-10.1129,-10.0202,-9.8738,-9.7713,-9.6883,-9.6395,-9.6395,-9.6395,-9.6395,-9.6395,-9.6395,-9.6395,-9.6395,-9.6395,-9.6395,-9.6395,-9.6395,-9.6395,-9.6144,-9.5942,-9.5437,-9.4804,-9.3786,-9.3017,-9.4169,-9.4804,-9.5058,-9.5515,-9.6019,-9.6395,-9.6395,-9.6395,-9.6395,-9.6395,-9.6395,-9.6395,-9.6395,-9.6395,-9.6395,-9.6395,-9.6757,-9.7578,-9.7958,-9.7621,-11.4745,-11.2959,-11.2081,-11.1727,-11.2031,-11.3048,-11.3505,-11.3505,-11.3657,-11.3759,-11.3759,-11.3759,-11.3759,-11.3759,-11.3759,-11.3759,-11.3621,-11.3621,-11.3621,-11.3621,-11.3621,-11.2879,-11.2324,-11.1816,-11.0976,-11.0272,-10.9564,-10.928,-10.9232,-10.806,-10.7328,-10.7663,-10.8032,-10.8489,-10.9261,-11.0084,-11.1088,-11.1377,-11.0989,-11.065,-10.9528,-10.8173,-10.7394,-10.6835,-10.6423,-10.6099,-10.6254,-10.6889,-10.7523,-10.7816,-10.7914,-10.8011,-10.7279,-10.601,-10.5181,-10.4546,-10.3521,-10.3033,-10.2753,-10.2753,-10.2753,-10.2753,-10.2753,-10.2753,-10.2753,-10.2753,-10.2753,-10.2545,-10.1813,-10.1374,-10.0788,-10.0056,-9.908,-9.7957,-9.7225,-9.6444,-9.6395,-9.6395,-9.6395,-9.6395,-9.6395,-9.6395,-9.6395,-9.6395,-9.6395,-9.6395,-9.6395,-9.6395,-9.6395,-9.6144,-9.5942,-9.5311,-9.4931,-9.4677,-9.4216,-9.4677,-9.5136,-9.5389,-9.5641,-9.6144,-9.6395,-9.6395,-9.6395,-9.6395,-9.6395,-9.6395,-9.6395,-9.6395,-9.6395,-9.6395,-9.6493,-9.666,-9.7561,-9.7978,-9.7791,-11.4462,-11.3164,-11.2489,-11.2438,-11.3048,-11.3505,-11.3759,-11.3759,-11.3759,-11.3759,-11.3759,-11.3759,-11.3759,-11.3759,-11.3759,-11.3759,-11.3621,-11.3294,-11.3156,-11.2879,-11.2652,-11.2374,-11.1816,-11.1256,-11.0694,-11.0272,-10.9706,-10.9232,-10.9085,-10.8304,-10.767,-10.7712,-10.768,-10.8272,-10.9379,-10.9969,-11.0718,-11.1834,-11.0668,-10.9865,-10.903,-10.7786,-10.6862,-10.6702,-10.6638,-10.6686,-10.6986,-10.7914,-10.806,-10.7816,-10.7621,-10.7426,-10.645,-10.5181,-10.4497,-10.4058,-10.3521,-10.2753,-10.2753,-10.2753,-10.2753,-10.2753,-10.2753,-10.2753,-10.2753,-10.2753,-10.2753,-10.2545,-10.1813,-10.1129,-10.0495,-9.9177,-9.8152,-9.7615,-9.6981,-9.6493,-9.6395,-9.6395,-9.6395,-9.6395,-9.6395,-9.6395,-9.6395,-9.6395,-9.6395,-9.6395,-9.6395,-9.6395,-9.6395,-9.627,-9.5893,-9.5437,-9.5263,-9.5058,-9.4931,-9.5184,-9.5515,-9.5767,-9.5893,-9.627,-9.6395,-9.6395,-9.6395,-9.6395,-9.6395,-9.6395,-9.6395,-9.6395,-9.6395,-9.6395,-9.6542,-9.6688,-9.7429,-9.803,-9.8137,-11.3816,-11.3253,-11.2761,-11.2946,-11.3708,-11.3759,-11.3759,-11.3759,-11.3759,-11.3759,-11.3759,-11.3759,-11.3759,-11.3621,-11.3432,-11.3345,-11.3207,-11.2602,-11.2324,-11.2185,-11.1956,-11.1677,-11.1116,-11.0835,-11.0413,-10.9989,-10.9706,-10.9232,-10.9134,-10.8646,-10.806,-10.8103,-10.8785,-10.9241,-11.0341,-11.0955,-11.125,-11.1861,-11.0527,-10.8978,-10.81,-10.7104,-10.6505,-10.655,-10.6381,-10.6539,-10.7035,-10.806,-10.8011,-10.7523,-10.7328,-10.6694,-10.5717,-10.4595,-10.4107,-10.3912,-10.3277,-10.285,-10.2753,-10.2753,-10.2753,-10.2753,-10.2753,-10.2753,-10.2753,-10.2753,-10.2607,-10.2398,-10.191,-10.1227,-10.0349,-9.8787,-9.7469,-9.7225,-9.6883,-9.6639,-9.6395,-9.6395,-9.6395,-9.6395,-9.6395,-9.6395,-9.6395,-9.6395,-9.6395,-9.6395,-9.6395,-9.6395,-9.6395,-9.6395,-9.5893,-9.5767,-9.5641,-9.5515,-9.5437,-9.5564,-9.5767,-9.6019,-9.6144,-9.627,-9.6395,-9.6395,-9.6395,-9.6395,-9.6395,-9.6395,-9.6395,-9.6395,-9.6395,-9.6395,-9.6493,-9.659,-9.7264,-9.7963,-9.8289,-11.2879,-11.3693,-11.3607,-11.3607,-11.3759,-11.3759,-11.3759,-11.3759,-11.3621,-11.3759,-11.3621,-11.3621,-11.3621,-11.3345,-11.2879,-11.2652,-11.2463,-11.1956,-11.1677,-11.1677,-11.1256,-11.0976,-11.0554,-11.0413,-10.9989,-10.9564,-10.928,-10.928,-10.9232,-10.9036,-10.889,-10.9134,-11.02,-11.08,-11.1317,-11.1935,-11.1962,-11.1727,-11.0069,-10.8333,-10.7291,-10.6232,-10.5559,-10.6287,-10.6233,-10.6157,-10.6498,-10.6889,-10.7279,-10.6596,-10.6197,-10.562,-10.4644,-10.3667,-10.3277,-10.285,-10.3033,-10.2753,-10.2753,-10.2753,-10.2753,-10.2753,-10.2753,-10.2753,-10.2753,-10.2753,-10.2753,-10.2509,-10.1227,-10.0397,-9.9665,-9.8299,-9.7274,-9.6786,-9.6639,-9.6542,-9.6395,-9.6395,-9.6395,-9.6395,-9.6395,-9.6395,-9.6395,-9.6395,-9.6395,-9.6395,-9.6395,-9.6395,-9.6395,-9.6395,-9.627,-9.627,-9.6144,-9.6019,-9.5893,-9.5893,-9.6144,-9.627,-9.627,-9.6395,-9.6395,-9.6395,-9.6395,-9.6395,-9.6395,-9.6395,-9.6395,-9.6395,-9.6395,-9.6395,-9.6444,-9.6493,-9.6883,-9.7488,-9.7915,-11.2743,-11.3708,-11.3759,-11.3759,-11.3759,-11.3759,-11.3483,-11.3018,-11.3018,-11.2741,-11.2513,-11.2513,-11.2374,-11.2374,-11.2095,-11.1956,-11.1906,-11.1256,-11.0835,-11.0694,-11.0272,-11.013,-10.9799,-10.9706,-10.9515,-10.9422,-10.928,-10.928,-10.9232,-10.928,-10.928,-10.9422,-11.0835,-11.1397,-11.1756,-11.2136,-11.2149,-11.1168,-10.9917,-10.8465,-10.6978,-10.5537,-10.5526,-10.5652,-10.5236,-10.561,-10.6059,-10.6352,-10.6108,-10.5278,-10.5083,-10.4546,-10.357,-10.3179,-10.2753,-10.2753,-10.2753,-10.2753,-10.2753,-10.2753,-10.2753,-10.2753,-10.2753,-10.2753,-10.2753,-10.2753,-10.2753,-10.2594,-10.0983,-9.9519,-9.8738,-9.7957,-9.7176,-9.6444,-9.6395,-9.6395,-9.6395,-9.6395,-9.6395,-9.6395,-9.6395,-9.6395,-9.6395,-9.6395,-9.6395,-9.6395,-9.6395,-9.6395,-9.6395,-9.6395,-9.6395,-9.6395,-9.6395,-9.6395,-9.6395,-9.627,-9.627,-9.627,-9.6395,-9.6395,-9.6395,-9.6395,-9.6395,-9.6395,-9.6395,-9.6395,-9.6395,-9.6395,-9.6395,-9.6395,-9.6444,-9.6444,-9.6688,-9.7274,-9.7732,-11.2235,-11.3251,-11.3607,-11.3759,-11.3759,-11.3759,-11.3345,-11.2602,-11.2374,-11.2095,-11.1586,-11.1537,-11.1677,-11.1537,-11.1256,-11.1256,-11.0976,-11.0554,-11.0272,-10.9989,-10.9706,-10.9422,-10.928,-10.9422,-10.928,-10.928,-10.928,-10.928,-10.928,-10.928,-10.928,-10.9422,-11.0554,-11.1256,-11.1467,-11.1545,-11.0675,-10.9853,-10.9197,-10.757,-10.6069,-10.4961,-10.4962,-10.4939,-10.4659,-10.4633,-10.4985,-10.5278,-10.4985,-10.4204,-10.4009,-10.3765,-10.2753,-10.2753,-10.2753,-10.2753,-10.2753,-10.2753,-10.2753,-10.2753,-10.2753,-10.2753,-10.2753,-10.2753,-10.2753,-10.2753,-10.2753,-10.2398,-10.1325,-10.0202,-9.9324,-9.825,-9.7274,-9.6688,-9.6395,-9.6395,-9.6395,-9.6395,-9.6395,-9.6395,-9.6395,-9.6395,-9.6395,-9.6395,-9.6395,-9.6395,-9.6395,-9.6395,-9.6395,-9.6395,-9.6395,-9.6395,-9.6395,-9.6395,-9.6395,-9.6395,-9.6395,-9.6395,-9.6395,-9.6395,-9.6395,-9.6395,-9.6395,-9.6395,-9.6395,-9.6395,-9.6395,-9.6395,-9.6395,-9.6395,-9.6395,-9.6395,-9.6493,-9.6932,-9.7342,-11.1117,-11.2235,-11.3302,-11.3759,-11.3759,-11.3621,-11.3156,-11.2463,-11.1956,-11.1537,-11.1537,-11.1397,-11.1256,-11.1256,-11.0694,-11.0413,-11.0222,-10.9706,-10.9564,-10.9422,-10.928,-10.928,-10.928,-10.928,-10.928,-10.928,-10.928,-10.928,-10.928,-10.928,-10.928,-10.9564,-11.013,-11.0835,-11.0909,-11.0579,-10.9619,-10.8841,-10.804,-10.6706,-10.531,-10.4433,-10.4233,-10.408,-10.412,-10.3814,-10.3863,-10.4009,-10.3814,-10.3472,-10.3033,-10.2935,-10.2887,-10.2753,-10.2753,-10.2753,-10.2753,-10.2753,-10.2753,-10.2753,-10.2753,-10.2753,-10.2753,-10.2753,-10.2753,-10.2753,-10.2753,-10.2447,-10.1715,-10.0739,-9.9763,-9.8591,-9.742,-9.6883,-9.6444,-9.6395,-9.6395,-9.6395,-9.6395,-9.6395,-9.6395,-9.6395,-9.6395,-9.6395,-9.6395,-9.6395,-9.6395,-9.6395,-9.6395,-9.6395,-9.6395,-9.6395,-9.6395,-9.6395,-9.6395,-9.6395,-9.6395,-9.6395,-9.6395,-9.6395,-9.6395,-9.6395,-9.6395,-9.6395,-9.6395,-9.6395,-9.6395,-9.6395,-9.6395,-9.6395,-9.6395,-9.6395,-9.6395,-9.6786,-9.6981,-11.1066,-11.232,-11.3302,-11.3759,-11.3621,-11.3156,-11.2879,-11.2324,-11.1397,-11.0554,-11.013,-11.013,-11.013,-10.9989,-10.9848,-10.9706,-10.9706,-10.9422,-10.928,-10.928,-10.928,-10.928,-10.928,-10.928,-10.928,-10.928,-10.928,-10.928,-10.928,-10.928,-10.928,-10.9422,-10.9989,-11.0413,-11.0348,-10.9697,-10.8745,-10.7977,-10.6834,-10.5741,-10.4647,-10.4085,-10.3687,-10.3434,-10.3265,-10.3277,-10.3082,-10.3131,-10.3228,-10.3082,-10.2801,-10.2753,-10.2753,-10.2753,-10.2753,-10.2753,-10.2753,-10.2753,-10.2753,-10.2753,-10.2753,-10.2753,-10.2753,-10.2753,-10.2753,-10.2753,-10.2753,-10.2545,-10.1813,-10.0837,-9.9714,-9.864,-9.7615,-9.6688,-9.6395,-9.6395,-9.6395,-9.6395,-9.6395,-9.6395,-9.6395,-9.6395,-9.6395,-9.6395,-9.6395,-9.6395,-9.6395,-9.6395,-9.6395,-9.6395,-9.6395,-9.6395,-9.6395,-9.6395,-9.6395,-9.6395,-9.6395,-9.6395,-9.6395,-9.6395,-9.6395,-9.6395,-9.6395,-9.6395,-9.6395,-9.6395,-9.6395,-9.6395,-9.6395,-9.6395,-9.6395,-9.6395,-9.6395,-9.6493,-9.659,-11.0507,-11.1625,-11.2743,-11.32,-11.3114,-11.2728,-11.2463,-11.2045,-11.0976,-10.9989,-10.9422,-10.928,-10.928,-10.928,-10.928,-10.928,-10.928,-10.928,-10.928,-10.928,-10.928,-10.928,-10.928,-10.928,-10.928,-10.928,-10.928,-10.928,-10.928,-10.928,-10.928,-10.928,-10.9706,-10.9989,-10.9645,-10.8606,-10.7908,-10.7382,-10.6182,-10.4875,-10.3785,-10.3554,-10.3287,-10.2887,-10.2935,-10.2801,-10.2801,-10.2801,-10.285,-10.2753,-10.2753,-10.2753,-10.2753,-10.2753,-10.2753,-10.2753,-10.2753,-10.2753,-10.2753,-10.2753,-10.2753,-10.2753,-10.2753,-10.2753,-10.2753,-10.2753,-10.2643,-10.2252,-10.1959,-10.0885,-9.9714,-9.864,-9.7762,-9.6883,-9.6395,-9.6395,-9.6395,-9.6395,-9.6395,-9.6395,-9.6395,-9.6395,-9.6395,-9.6395,-9.6395,-9.6395,-9.6395,-9.6395,-9.6395,-9.6395,-9.6395,-9.6395,-9.6395,-9.6395,-9.6395,-9.6395,-9.6395,-9.6395,-9.6395,-9.6395,-9.6395,-9.6395,-9.6395,-9.6395,-9.6395,-9.6395,-9.6395,-9.6395,-9.6395,-9.6395,-9.6395,-9.6395,-9.6395,-9.6395,-9.6395,-10.9389,-11.0456,-11.1625,-11.2184,-11.2149,-11.2425,-11.2095,-11.1397,-11.0694,-10.9799,-10.928,-10.928,-10.928,-10.928,-10.928,-10.928,-10.928,-10.928,-10.928,-10.928,-10.928,-10.928,-10.928,-10.928,-10.928,-10.928,-10.928,-10.928,-10.928,-10.928,-10.928,-10.928,-10.9422,-10.9422,-10.9085,-10.7182,-10.6343,-10.5904,-10.4193,-10.346,-10.3069,-10.302,-10.302,-10.2753,-10.2753,-10.2753,-10.2753,-10.2753,-10.2753,-10.2753,-10.2753,-10.2753,-10.2753,-10.2753,-10.2753,-10.2753,-10.2753,-10.2753,-10.2753,-10.2753,-10.2753,-10.2753,-10.2753,-10.2607,-10.2655,-10.2643,-10.235,-10.1374,-10.1666,-10.0788,-9.9714,-9.864,-9.7859,-9.7078,-9.659,-9.6395,-9.6395,-9.6395,-9.6395,-9.6395,-9.6395,-9.6395,-9.6395,-9.6395,-9.6395,-9.6395,-9.6395,-9.6395,-9.6395,-9.6395,-9.6395,-9.6395,-9.6395,-9.6395,-9.6395,-9.6395,-9.6395,-9.6395,-9.6395,-9.6395,-9.6395,-9.6395,-9.6395,-9.6395,-9.6395,-9.6395,-9.6395,-9.6395,-9.6395,-9.6395,-9.6395,-9.6395,-9.6395,-9.6395,-9.6395,-10.8881,-10.9389,-11.1269,-11.181,-11.1416,-11.1734,-11.1537,-11.0694,-10.9989,-10.9422,-10.928,-10.928,-10.928,-10.928,-10.928,-10.928,-10.928,-10.928,-10.928,-10.928,-10.928,-10.928,-10.928,-10.928,-10.928,-10.928,-10.928,-10.928,-10.928,-10.928,-10.928,-10.928,-10.928,-10.928,-10.8939,-10.7865,-10.6791,-10.5961,-10.4644,-10.3716,-10.2984,-10.285,-10.2984,-10.2935,-10.2984,-10.285,-10.2753,-10.2753,-10.2753,-10.2753,-10.2753,-10.2753,-10.2753,-10.2753,-10.2753,-10.2753,-10.2753,-10.2753,-10.2753,-10.2753,-10.2753,-10.2704,-10.2704,-10.2398,-10.2008,-10.1715,-10.1276,-10.0397,-10.0349,-9.9958,-9.8543,-9.825,-9.7762,-9.6981,-9.6493,-9.6395,-9.6395,-9.6395,-9.6395,-9.6395,-9.6395,-9.6395,-9.6395,-9.6395,-9.6395,-9.6395,-9.6395,-9.6395,-9.6395,-9.6395,-9.6395,-9.6395,-9.6395,-9.6395,-9.6395,-9.6395,-9.6395,-9.6395,-9.6395,-9.6395,-9.6395,-9.6395,-9.6395,-9.6395,-9.6395,-9.6395,-9.6395,-9.6395,-9.6395,-9.6395,-9.6395,-9.6395,-9.6395,-9.6395,-9.6395,-10.8322,-10.8831,-11.0152,-11.0611,-11.0438,-11.0718,-11.0719,-11.0363,-10.9564,-10.928,-10.928,-10.928,-10.928,-10.928,-10.928,-10.928,-10.928,-10.928,-10.928,-10.928,-10.928,-10.928,-10.928,-10.928,-10.928,-10.928,-10.928,-10.928,-10.928,-10.928,-10.928,-10.928,-10.928,-10.928,-10.9183,-10.8597,-10.7719,-10.6742,-10.562,-10.4839,-10.4156,-10.4107,-10.3912,-10.357,-10.3472,-10.3326,-10.2935,-10.2753,-10.2753,-10.2753,-10.2753,-10.2753,-10.2753,-10.2753,-10.2753,-10.2753,-10.2753,-10.2753,-10.2753,-10.2753,-10.2753,-10.2838,-10.2447,-10.1813,-10.0788,-10.0641,-10.0105,-9.9616,-9.947,-9.908,-9.7908,-9.7664,-9.7615,-9.6786,-9.6395,-9.6395,-9.6395,-9.6395,-9.6395,-9.6395,-9.6395,-9.6395,-9.6395,-9.6395,-9.6395,-9.6395,-9.6395,-9.6395,-9.6395,-9.6395,-9.6395,-9.6395,-9.6395,-9.6395,-9.6395,-9.6395,-9.6395,-9.6395,-9.6395,-9.6395,-9.6395,-9.6395,-9.6395,-9.6395,-9.6395,-9.6395,-9.6395,-9.6395,-9.6395,-9.6395,-9.6395,-9.6395,-9.6395,-9.6395,-9.6395,-10.7662,-10.8577,-10.8546,-10.8858,-10.9011,-10.9519,-10.9786,-10.9835,-10.9368,-10.9134,-10.9232,-10.928,-10.928,-10.928,-10.928,-10.928,-10.928,-10.928,-10.928,-10.928,-10.928,-10.928,-10.928,-10.928,-10.928,-10.928,-10.928,-10.928,-10.928,-10.928,-10.928,-10.928,-10.928,-10.928,-10.9183,-10.9085,-10.8499,-10.7767,-10.6694,-10.6108,-10.5953,-10.5669,-10.5376,-10.4692,-10.4448,-10.4058,-10.3082,-10.3131,-10.3131,-10.2753,-10.2753,-10.2753,-10.2753,-10.2753,-10.2753,-10.2753,-10.2753,-10.2753,-10.2753,-10.2753,-10.2753,-10.2594,-10.2106,-10.1325,-10.0153,-9.9812,-9.908,-9.8201,-9.8445,-9.8055,-9.7469,-9.7078,-9.7176,-9.6688,-9.6395,-9.6395,-9.6395,-9.6395,-9.6395,-9.6395,-9.6395,-9.6395,-9.6395,-9.6395,-9.6395,-9.6395,-9.6395,-9.6395,-9.6395,-9.6395,-9.6395,-9.6395,-9.6395,-9.6395,-9.6395,-9.6395,-9.6395,-9.6395,-9.6395,-9.6395,-9.6395,-9.6395,-9.6395,-9.6395,-9.6395,-9.6395,-9.6395,-9.6395,-9.6395,-9.6395,-9.6395,-9.6395,-9.6395,-9.6395,-9.6395,-10.7256,-10.743,-10.7847,-10.7689,-10.7237,-10.7605,-10.8006,-10.8292,-10.8249,-10.8548,-10.9085,-10.928,-10.928,-10.928,-10.928,-10.928,-10.928,-10.928,-10.928,-10.928,-10.928,-10.928,-10.928,-10.928,-10.928,-10.928,-10.928,-10.928,-10.928,-10.928,-10.928,-10.928,-10.928,-10.928,-10.928,-10.9232,-10.9134,-10.8646,-10.7767,-10.6938,-10.6401,-10.6205,-10.601,-10.5766,-10.5522,-10.5132,-10.4204,-10.396,-10.3472,-10.3082,-10.2753,-10.2753,-10.2753,-10.2753,-10.2753,-10.2753,-10.2753,-10.2753,-10.2753,-10.2753,-10.2753,-10.2789,-10.2398,-10.152,-10.0105,-9.9616,-9.9031,-9.7078,-9.7371,-9.7078,-9.659,-9.6639,-9.6688,-9.659,-9.6395,-9.6395,-9.6395,-9.6395,-9.6395,-9.6395,-9.6395,-9.6395,-9.6395,-9.6395,-9.6395,-9.6395,-9.6395,-9.6395,-9.6395,-9.6395,-9.6395,-9.6395,-9.6395,-9.6395,-9.6395,-9.6395,-9.6395,-9.6395,-9.6395,-9.6395,-9.6395,-9.6395,-9.6395,-9.6395,-9.6395,-9.6395,-9.6395,-9.6395,-9.6395,-9.6395,-9.6395,-9.6395,-9.6395,-9.6395,-9.6395,-10.6192,-10.6242,-10.6452,-10.6423,-10.6118,-10.6307,-10.6649,-10.7077,-10.7426,-10.8011,-10.8548,-10.8988,-10.928,-10.928,-10.928,-10.928,-10.928,-10.928,-10.928,-10.928,-10.928,-10.928,-10.928,-10.928,-10.928,-10.928,-10.928,-10.928,-10.928,-10.928,-10.928,-10.928,-10.928,-10.928,-10.928,-10.928,-10.928,-10.9085,-10.8695,-10.806,-10.7621,-10.7426,-10.723,-10.6791,-10.6742,-10.5815,-10.479,-10.4351,-10.3863,-10.3082,-10.2753,-10.2753,-10.2753,-10.2753,-10.2753,-10.2753,-10.2753,-10.2753,-10.2753,-10.2753,-10.2753,-10.2838,-10.2301,-10.1764,-10.0641,-9.9519,-9.8103,-9.6542,-9.6444,-9.6444,-9.6444,-9.6395,-9.6395,-9.6395,-9.6395,-9.6395,-9.6395,-9.6395,-9.6395,-9.6395,-9.6395,-9.6395,-9.6395,-9.6395,-9.6395,-9.6395,-9.6395,-9.6395,-9.6395,-9.6395,-9.6395,-9.6395,-9.6395,-9.6395,-9.6395,-9.6395,-9.6395,-9.6395,-9.6395,-9.6395,-9.6395,-9.6395,-9.6395,-9.6395,-9.6395,-9.6395,-9.6395,-9.6395,-9.6395,-9.6395,-9.6395,-9.6395,-9.6395,-9.6395,-9.6395,-10.4961,-10.4961,-10.4961,-10.4978,-10.5284,-10.5199,-10.5432,-10.5913,-10.6742,-10.7328,-10.7523,-10.8499,-10.8988,-10.9036,-10.9134,-10.928,-10.928,-10.928,-10.928,-10.928,-10.928,-10.928,-10.928,-10.928,-10.928,-10.928,-10.928,-10.9232,-10.8939,-10.889,-10.9036,-10.9232,-10.928,-10.928,-10.928,-10.928,-10.928,-10.928,-10.9232,-10.9183,-10.9085,-10.9036,-10.8597,-10.806,-10.7719,-10.6889,-10.5132,-10.479,-10.4058,-10.2996,-10.2753,-10.2753,-10.2753,-10.2753,-10.2753,-10.2753,-10.2753,-10.2753,-10.2753,-10.2753,-10.2753,-10.2607,-10.2203,-10.1618,-10.0983,-9.9812,-9.8006,-9.6639,-9.6395,-9.6395,-9.6395,-9.6395,-9.6395,-9.6395,-9.6395,-9.6395,-9.6395,-9.6395,-9.6395,-9.6395,-9.6395,-9.6395,-9.6395,-9.6395,-9.6395,-9.6395,-9.6395,-9.6395,-9.6395,-9.6395,-9.6395,-9.6395,-9.6395,-9.6395,-9.6395,-9.6395,-9.6395,-9.6395,-9.6395,-9.6395,-9.6395,-9.6395,-9.6395,-9.6395,-9.6395,-9.6395,-9.6395,-9.6395,-9.6395,-9.6395,-9.6395,-9.6395,-9.6395,-9.6395,-9.6395,-10.4384,-10.4961,-10.4433,-10.4184,-10.4249,-10.363,-10.3949,-10.4644,-10.5034,-10.562,-10.645,-10.7474,-10.7963,-10.8207,-10.8743,-10.928,-10.928,-10.928,-10.928,-10.928,-10.9183,-10.9232,-10.9232,-10.928,-10.9085,-10.889,-10.8988,-10.8841,-10.8304,-10.8109,-10.8548,-10.9036,-10.928,-10.928,-10.928,-10.928,-10.928,-10.928,-10.928,-10.928,-10.928,-10.928,-10.9085,-10.8939,-10.889,-10.7865,-10.5864,-10.5571,-10.4692,-10.3423,-10.2753,-10.2753,-10.2753,-10.2753,-10.2753,-10.2753,-10.2753,-10.2753,-10.2704,-10.2655,-10.2691,-10.2558,-10.2594,-10.2545,-10.191,-10.0251,-9.8445,-9.6883,-9.6395,-9.6395,-9.6395,-9.6395,-9.6395,-9.6395,-9.6395,-9.6395,-9.6395,-9.6395,-9.6395,-9.6395,-9.6395,-9.6395,-9.6395,-9.6395,-9.6395,-9.6395,-9.6395,-9.6395,-9.6395,-9.6395,-9.6395,-9.6395,-9.6395,-9.6395,-9.6395,-9.6395,-9.6395,-9.6395,-9.6395,-9.6395,-9.6395,-9.6395,-9.6395,-9.6395,-9.6395,-9.6395,-9.6395,-9.6395,-9.6395,-9.6395,-9.6395,-9.6395,-9.6395,-9.6395,-9.6395,-10.3238,-10.3903,-10.3554,-10.3421,-10.3421,-10.302,-10.3179,-10.3716,-10.4156,-10.4741,-10.5473,-10.6401,-10.7133,-10.7719,-10.8304,-10.8841,-10.9134,-10.928,-10.928,-10.9085,-10.8743,-10.8499,-10.8451,-10.7865,-10.7767,-10.7719,-10.7767,-10.7572,-10.767,-10.7621,-10.8304,-10.9036,-10.928,-10.928,-10.928,-10.928,-10.928,-10.928,-10.928,-10.928,-10.928,-10.928,-10.928,-10.9232,-10.9134,-10.8158,-10.6547,-10.6059,-10.5034,-10.3375,-10.2753,-10.2753,-10.2753,-10.2753,-10.2753,-10.2753,-10.2887,-10.2691,-10.2203,-10.2106,-10.2106,-10.2057,-10.152,-10.1569,-10.1422,-10.0251,-9.8396,-9.7322,-9.6932,-9.6395,-9.6395,-9.6395,-9.6395,-9.6395,-9.6395,-9.6395,-9.6395,-9.6395,-9.6395,-9.6395,-9.6395,-9.6395,-9.6395,-9.6395,-9.6395,-9.6395,-9.6395,-9.6395,-9.6395,-9.6395,-9.6395,-9.6395,-9.6395,-9.6395,-9.6395,-9.6395,-9.6395,-9.6395,-9.6395,-9.6395,-9.6395,-9.6395,-9.6395,-9.6395,-9.6395,-9.6395,-9.6395,-9.6395,-9.6395,-9.6395,-9.6444,-9.6444,-9.6444,-9.6395,-9.6395,-10.2082,-10.2619,-10.2753,-10.2753,-10.2753,-10.2753,-10.2887,-10.3033,-10.3765,-10.4107,-10.4302,-10.5278,-10.6254,-10.6889,-10.723,-10.8011,-10.8792,-10.9134,-10.9134,-10.8743,-10.8207,-10.7572,-10.7377,-10.6742,-10.601,-10.5669,-10.5571,-10.6254,-10.6986,-10.7474,-10.7963,-10.8988,-10.928,-10.928,-10.928,-10.928,-10.928,-10.928,-10.928,-10.928,-10.928,-10.9232,-10.9183,-10.8841,-10.8792,-10.767,-10.6205,-10.562,-10.4888,-10.3179,-10.2801,-10.2753,-10.2753,-10.2753,-10.274,-10.2594,-10.2447,-10.1959,-10.1178,-10.1032,-10.1032,-10.0837,-10.0397,-10.0349,-10.03,-9.9226,-9.825,-9.7615,-9.703,-9.6395,-9.6395,-9.6395,-9.6395,-9.6395,-9.6395,-9.6395,-9.6395,-9.6395,-9.6395,-9.6395,-9.6395,-9.6395,-9.6395,-9.6395,-9.6395,-9.6395,-9.6395,-9.6395,-9.6395,-9.6395,-9.6395,-9.6395,-9.6395,-9.6395,-9.6395,-9.6395,-9.6395,-9.6395,-9.6395,-9.6395,-9.6395,-9.6395,-9.6395,-9.6395,-9.6395,-9.6395,-9.6395,-9.6395,-9.6542,-9.6932,-9.6737,-9.6493,-9.659,-9.6639,-9.659,-10.1273,-10.2082,-10.2619,-10.2753,-10.2753,-10.2704,-10.274,-10.2838,-10.3033,-10.3033,-10.3277,-10.4204,-10.4741,-10.5132,-10.5913,-10.6889,-10.7865,-10.8597,-10.8499,-10.7914,-10.7474,-10.6938,-10.6352,-10.5815,-10.5083,-10.3472,-10.3619,-10.4644,-10.5864,-10.6401,-10.7279,-10.8939,-10.9232,-10.9183,-10.9232,-10.928,-10.928,-10.9232,-10.9183,-10.9134,-10.9134,-10.9036,-10.8597,-10.806,-10.7865,-10.684,-10.5278,-10.4692,-10.4156,-10.285,-10.2753,-10.2753,-10.2753,-10.2704,-10.2594,-10.1618,-10.1666,-10.1081,-10.0251,-9.9909,-9.9909,-9.9909,-9.9665,-9.9763,-9.9616,-9.8689,-9.7957,-9.7518,-9.7127,-9.6395,-9.6395,-9.6395,-9.6395,-9.6395,-9.6395,-9.6395,-9.6395,-9.6395,-9.6395,-9.6395,-9.6395,-9.6395,-9.6395,-9.6395,-9.6395,-9.6395,-9.6395,-9.6395,-9.6395,-9.6395,-9.6395,-9.6395,-9.6395,-9.6395,-9.6395,-9.6395,-9.6395,-9.6395,-9.6395,-9.6395,-9.6395,-9.6395,-9.6395,-9.6395,-9.6395,-9.6395,-9.6395,-9.6688,-9.7078,-9.7469,-9.742,-9.7127,-9.6981,-9.6883,-9.6688,-10.1137,-10.1851,-10.1986,-10.2008,-10.1959,-10.1422,-10.1178,-10.1178,-10.1178,-10.152,-10.2057,-10.2496,-10.3375,-10.44,-10.4936,-10.5766,-10.6742,-10.7377,-10.7279,-10.6889,-10.6157,-10.5669,-10.5132,-10.4546,-10.4009,-10.3131,-10.2753,-10.3667,-10.479,-10.5327,-10.6352,-10.8255,-10.8402,-10.8646,-10.9183,-10.928,-10.9183,-10.9134,-10.8743,-10.8402,-10.8255,-10.7914,-10.723,-10.6889,-10.6742,-10.6108,-10.4546,-10.4351,-10.3814,-10.3179,-10.2753,-10.2753,-10.2753,-10.2753,-10.235,-10.152,-10.1276,-10.0544,-9.9226,-9.8787,-9.8787,-9.8787,-9.8201,-9.8347,-9.8396,-9.7762,-9.7225,-9.703,-9.6737,-9.6395,-9.6395,-9.6395,-9.6395,-9.6395,-9.6395,-9.6395,-9.6395,-9.6395,-9.6395,-9.6395,-9.6395,-9.6395,-9.6395,-9.6395,-9.6395,-9.6395,-9.6395,-9.6395,-9.6395,-9.6395,-9.6395,-9.6395,-9.6395,-9.6395,-9.6395,-9.6395,-9.6395,-9.6395,-9.6395,-9.6395,-9.6395,-9.6395,-9.6395,-9.6395,-9.6395,-9.6395,-9.6542,-9.7127,-9.7518,-9.7762,-9.7811,-9.7762,-9.7518,-9.6883,-9.6542,-10.1273,-10.1851,-10.145,-10.1276,-10.1081,-10.0153,-9.9714,-9.9763,-9.9763,-10.03,-10.0837,-10.0934,-10.2008,-10.3619,-10.3619,-10.4497,-10.562,-10.5766,-10.605,-10.5953,-10.4888,-10.4351,-10.3912,-10.3423,-10.2935,-10.2753,-10.2753,-10.3472,-10.4204,-10.4692,-10.5425,-10.7133,-10.7377,-10.7719,-10.8353,-10.8304,-10.8548,-10.8451,-10.7767,-10.7328,-10.7133,-10.6596,-10.6254,-10.6157,-10.5864,-10.5132,-10.4302,-10.4058,-10.3667,-10.3131,-10.2753,-10.2753,-10.2655,-10.2643,-10.191,-10.1081,-10.0641,-9.9665,-9.8152,-9.7664,-9.7664,-9.7615,-9.7127,-9.6737,-9.7518,-9.6883,-9.6493,-9.6395,-9.6395,-9.6395,-9.6395,-9.6395,-9.6395,-9.6395,-9.6395,-9.6395,-9.6395,-9.6395,-9.6395,-9.6395,-9.6395,-9.6395,-9.6395,-9.6395,-9.6395,-9.6395,-9.6395,-9.6395,-9.6395,-9.6395,-9.6395,-9.6395,-9.6395,-9.6395,-9.6395,-9.6395,-9.6395,-9.6395,-9.6395,-9.6395,-9.6395,-9.6395,-9.6395,-9.6395,-9.6395,-9.6444,-9.6444,-9.703,-9.7713,-9.7908,-9.8006,-9.8152,-9.7957,-9.6932,-9.6395,-10.1813,-10.1851,-10.145,-10.1276,-10.1032,-10.0153,-9.947,-9.9616,-9.947,-9.9616,-9.9812,-9.986,-10.0593,-10.1569,-10.1813,-10.2691,-10.4497,-10.44,-10.4985,-10.5229,-10.479,-10.3912,-10.3228,-10.2935,-10.2753,-10.2753,-10.2753,-10.3472,-10.4009,-10.4302,-10.5083,-10.5913,-10.6205,-10.6352,-10.6742,-10.6645,-10.645,-10.6596,-10.6401,-10.6254,-10.6157,-10.5864,-10.5669,-10.5522,-10.4985,-10.4107,-10.3423,-10.3131,-10.3082,-10.2753,-10.2753,-10.2838,-10.2558,-10.1862,-10.0983,-10.0007,-9.908,-9.8103,-9.6883,-9.6737,-9.6639,-9.6688,-9.6542,-9.6493,-9.659,-9.659,-9.6395,-9.6395,-9.6395,-9.6395,-9.6395,-9.6395,-9.6395,-9.6395,-9.6395,-9.6395,-9.6395,-9.6395,-9.6395,-9.6395,-9.6395,-9.6395,-9.6395,-9.6395,-9.6395,-9.6395,-9.6395,-9.6395,-9.6395,-9.6395,-9.6395,-9.6395,-9.6395,-9.6395,-9.6395,-9.6395,-9.6395,-9.6395,-9.6395,-9.6395,-9.6395,-9.6395,-9.6395,-9.6395,-9.6395,-9.6395,-9.6493,-9.703,-9.7713,-9.8006,-9.7908,-9.8299,-9.8543,-9.7274,-9.6395,-9.9929,-9.9964,-9.9552,-9.9372,-9.9226,-9.825,-9.7762,-9.7762,-9.7811,-9.8103,-9.864,-9.8738,-9.9324,-10.03,-10.0349,-10.1227,-10.2447,-10.2594,-10.3179,-10.4009,-10.3765,-10.3277,-10.2984,-10.2753,-10.2753,-10.2753,-10.2753,-10.3179,-10.3472,-10.3521,-10.4107,-10.4888,-10.5083,-10.5473,-10.5913,-10.6059,-10.6108,-10.5913,-10.5376,-10.5083,-10.5034,-10.4546,-10.4302,-10.4107,-10.3814,-10.3375,-10.2984,-10.2753,-10.2753,-10.2753,-10.2704,-10.2594,-10.2008,-10.1471,-10.0495,-9.8836,-9.8299,-9.7518,-9.6639,-9.6395,-9.6395,-9.6395,-9.6395,-9.6395,-9.6395,-9.6395,-9.6395,-9.6395,-9.6395,-9.6395,-9.6395,-9.6395,-9.6395,-9.6395,-9.6395,-9.6395,-9.6395,-9.6395,-9.6395,-9.6395,-9.6395,-9.6395,-9.6395,-9.6395,-9.6395,-9.6395,-9.6395,-9.6395,-9.6395,-9.6395,-9.6395,-9.6395,-9.6395,-9.6395,-9.6395,-9.6395,-9.6395,-9.6395,-9.6395,-9.6395,-9.6395,-9.6395,-9.6395,-9.6395,-9.6395,-9.6493,-9.6737,-9.7127,-9.7713,-9.7908,-9.7713,-9.7762,-9.7859,-9.7176,-9.6639,-9.8837,-9.887,-9.8189,-9.8006,-9.7859,-9.6883,-9.6444,-9.6444,-9.6444,-9.6981,-9.742,-9.7615,-9.8201,-9.9177,-9.9275,-9.9812,-10.069,-10.0885,-10.1422,-10.235,-10.2447,-10.2447,-10.2447,-10.2691,-10.2753,-10.2753,-10.2753,-10.2753,-10.2753,-10.285,-10.3326,-10.396,-10.4009,-10.44,-10.5083,-10.5132,-10.5229,-10.5083,-10.4351,-10.4009,-10.3863,-10.3277,-10.2753,-10.2753,-10.2801,-10.2887,-10.2753,-10.2753,-10.2753,-10.2887,-10.2643,-10.2057,-10.1374,-10.0641,-9.9616,-9.825,-9.7762,-9.7176,-9.659,-9.6395,-9.6395,-9.6395,-9.6395,-9.6395,-9.6395,-9.6395,-9.6395,-9.6395,-9.6395,-9.6395,-9.6395,-9.6395,-9.6395,-9.6395,-9.6395,-9.6395,-9.6395,-9.6395,-9.6395,-9.6395,-9.6395,-9.6395,-9.6395,-9.6395,-9.6395,-9.6395,-9.6395,-9.6395,-9.6395,-9.6395,-9.6395,-9.6395,-9.6395,-9.6395,-9.6395,-9.6395,-9.6395,-9.6395,-9.6395,-9.6395,-9.6395,-9.6395,-9.6395,-9.6395,-9.6395,-9.6395,-9.6737,-9.6981,-9.7518,-9.7957,-9.7713,-9.742,-9.7371,-9.7351,-9.6765,-9.9665,-9.9519,-9.8445,-9.7908,-9.7762,-9.6834,-9.6395,-9.6395,-9.6395,-9.6493,-9.6542,-9.6639,-9.7176,-9.7957,-9.8103,-9.8689,-9.9616,-9.9763,-10.03,-10.0983,-10.1227,-10.1276,-10.152,-10.2301,-10.274,-10.2704,-10.2753,-10.2753,-10.2753,-10.2753,-10.2801,-10.3082,-10.3131,-10.3082,-10.3326,-10.3131,-10.3326,-10.3375,-10.3179,-10.3082,-10.2899,-10.2753,-10.2753,-10.2753,-10.2753,-10.2753,-10.2753,-10.2753,-10.2753,-10.2607,-10.1959,-10.1374,-10.0885,-9.9275,-9.8347,-9.7957,-9.703,-9.659,-9.6444,-9.6395,-9.6395,-9.6395,-9.6395,-9.6395,-9.6395,-9.6395,-9.6395,-9.6395,-9.6395,-9.6395,-9.6395,-9.6395,-9.6395,-9.6395,-9.6395,-9.6395,-9.6395,-9.6395,-9.6395,-9.6395,-9.6395,-9.6395,-9.6395,-9.6395,-9.6395,-9.6395,-9.6395,-9.6395,-9.6395,-9.6395,-9.6395,-9.6395,-9.6395,-9.6395,-9.6395,-9.6395,-9.6395,-9.6395,-9.6395,-9.6395,-9.6395,-9.6395,-9.6395,-9.6395,-9.6395,-9.6395,-9.6493,-9.659,-9.6932,-9.7371,-9.742,-9.7274,-9.7078,-9.696,-9.6694,-9.7615,-9.7567,-9.7176,-9.703,-9.6932,-9.659,-9.6395,-9.6395,-9.6395,-9.6395,-9.6395,-9.6395,-9.6639,-9.6932,-9.6981,-9.7615,-9.8543,-9.864,-9.8836,-9.9177,-9.9226,-9.9616,-10.0397,-10.1374,-10.2154,-10.274,-10.2753,-10.2753,-10.2753,-10.2753,-10.2753,-10.2753,-10.2753,-10.2753,-10.2753,-10.2753,-10.2753,-10.2753,-10.2753,-10.2753,-10.2753,-10.2753,-10.2753,-10.2753,-10.2753,-10.2753,-10.2753,-10.2753,-10.2753,-10.2691,-10.1862,-10.0593,-9.9324,-9.8494,-9.7713,-9.7127,-9.6639,-9.6395,-9.6395,-9.6395,-9.6395,-9.6395,-9.6395,-9.6395,-9.6395,-9.6395,-9.6395,-9.6395,-9.6395,-9.6395,-9.6395,-9.6395,-9.6395,-9.6395,-9.6395,-9.6395,-9.6395,-9.6395,-9.6395,-9.6395,-9.6395,-9.6395,-9.6395,-9.6395,-9.6395,-9.6395,-9.6395,-9.6395,-9.6395,-9.6395,-9.6395,-9.6395,-9.6395,-9.6395,-9.6395,-9.6395,-9.6395,-9.6395,-9.6395,-9.6395,-9.6395,-9.6395,-9.6395,-9.6395,-9.6395,-9.6395,-9.6395,-9.6444,-9.6444,-9.6493,-9.6737,-9.6737,-9.6911,-9.6743,-9.7069,-9.6395,-9.6395,-9.6395,-9.6395,-9.6395,-9.6395,-9.6395,-9.6395,-9.6395,-9.6395,-9.6395,-9.6395,-9.6395,-9.6395,-9.6395,-9.6834,-9.7469,-9.7518,-9.7518,-9.7615,-9.7908,-9.8494,-9.9275,-10.0251,-10.1178,-10.1813,-10.2203,-10.2545,-10.2789,-10.2753,-10.2753,-10.2753,-10.2753,-10.2753,-10.2753,-10.2753,-10.2753,-10.2838,-10.2594,-10.2398,-10.2398,-10.2057,-10.1862,-10.191,-10.2252,-10.2203,-10.191,-10.191,-10.1862,-10.1813,-10.1178,-9.9958,-9.8347,-9.7713,-9.7127,-9.6493,-9.6395,-9.6395,-9.6395,-9.6395,-9.6395,-9.6395,-9.6395,-9.6395,-9.6395,-9.6395,-9.6395,-9.6395,-9.6395,-9.6395,-9.6395,-9.6395,-9.6395,-9.6395,-9.6395,-9.6395,-9.6395,-9.6395,-9.6395,-9.6395,-9.6395,-9.6395,-9.6395,-9.6395,-9.6395,-9.6395,-9.6395,-9.6395,-9.6395,-9.6395,-9.6395,-9.6395,-9.6395,-9.6395,-9.6395,-9.6395,-9.6395,-9.6395,-9.6395,-9.6395,-9.6395,-9.6395,-9.6395,-9.6395,-9.6395,-9.6395,-9.6395,-9.6395,-9.6395,-9.6444,-9.6493,-9.6444,-9.652,-9.6895,-9.727,-9.6395,-9.6395,-9.6395,-9.6395,-9.6395,-9.6395,-9.6395,-9.6395,-9.6395,-9.6395,-9.6395,-9.6395,-9.6395,-9.6395,-9.6395,-9.6444,-9.6542,-9.659,-9.659,-9.6639,-9.7469,-9.7957,-9.8055,-9.9177,-9.9763,-9.986,-10.0788,-10.1764,-10.2545,-10.2545,-10.2594,-10.274,-10.246,-10.2496,-10.274,-10.2594,-10.2691,-10.2447,-10.1715,-10.1325,-10.1178,-10.0446,-10.0007,-10.0007,-10.069,-10.0739,-9.9812,-9.986,-9.9958,-9.9909,-9.9763,-9.9177,-9.8103,-9.7078,-9.6444,-9.6444,-9.6395,-9.6395,-9.6395,-9.6395,-9.6395,-9.6395,-9.6395,-9.6395,-9.6395,-9.6395,-9.6395,-9.6395,-9.6395,-9.6395,-9.6395,-9.6395,-9.6395,-9.6395,-9.6395,-9.6395,-9.6395,-9.6395,-9.6395,-9.6395,-9.6395,-9.6395,-9.6395,-9.6395,-9.6395,-9.6395,-9.6395,-9.6395,-9.6395,-9.6395,-9.6395,-9.6395,-9.6395,-9.6395,-9.6395,-9.6395,-9.6395,-9.6395,-9.6395,-9.6395,-9.6395,-9.6395,-9.6395,-9.6395,-9.6395,-9.6395,-9.6395,-9.6395,-9.6395,-9.6395,-9.6395,-9.6395,-9.6771,-9.7145,-9.7643,-9.6395,-9.6395,-9.6395,-9.6395,-9.6395,-9.6395,-9.6395,-9.6395,-9.6395,-9.6395,-9.6395,-9.6395,-9.6395,-9.6395,-9.6395,-9.6395,-9.6395,-9.6395,-9.6395,-9.6444,-9.6737,-9.6883,-9.7078,-9.8055,-9.8543,-9.8738,-9.9665,-10.0349,-10.069,-10.069,-10.0739,-10.0739,-10.069,-10.069,-10.069,-10.0739,-10.0739,-10.069,-10.0397,-10.0202,-10.0153,-9.986,-9.9665,-9.9616,-9.9275,-9.8884,-9.8591,-9.9275,-9.9665,-9.9568,-9.8933,-9.8396,-9.7957,-9.6981,-9.6395,-9.6395,-9.6395,-9.6395,-9.6395,-9.6395,-9.6395,-9.6395,-9.6395,-9.6395,-9.6395,-9.6395,-9.6395,-9.6395,-9.6395,-9.6395,-9.6395,-9.6395,-9.6395,-9.6395,-9.6395,-9.6395,-9.6395,-9.6395,-9.6395,-9.6395,-9.6395,-9.6395,-9.6395,-9.6395,-9.6395,-9.6395,-9.6395,-9.6395,-9.6395,-9.6395,-9.6395,-9.6395,-9.6395,-9.6395,-9.6395,-9.6395,-9.6395,-9.6395,-9.6395,-9.6395,-9.6395,-9.6395,-9.6395,-9.6395,-9.6395,-9.6395,-9.6395,-9.6395,-9.6395,-9.6395,-9.6151,-9.5934,-9.6676,-9.7321,-9.789,-9.6395,-9.6395,-9.6395,-9.6395,-9.6395,-9.6395,-9.6395,-9.6395,-9.6395,-9.6395,-9.6395,-9.6395,-9.6395,-9.6395,-9.6395,-9.6395,-9.6395,-9.6395,-9.6395,-9.6395,-9.6395,-9.6395,-9.6493,-9.7078,-9.742,-9.7567,-9.8543,-9.9275,-9.9616,-9.9665,-9.9665,-9.9665,-9.9665,-9.9665,-9.9665,-9.9665,-9.9665,-9.9665,-9.9275,-9.908,-9.908,-9.8689,-9.8494,-9.8445,-9.7811,-9.742,-9.742,-9.8103,-9.8494,-9.8494,-9.7811,-9.742,-9.7371,-9.6786,-9.6249,-9.5858,-9.5809,-9.5663,-9.5273,-9.5224,-9.5224,-9.5224,-9.5224,-9.5175,-9.5224,-9.5224,-9.5419,-9.5712,-9.5809,-9.5565,-9.537,-9.5224,-9.5224,-9.5224,-9.5224,-9.5273,-9.5712,-9.5809,-9.6005,-9.6298,-9.6395,-9.6395,-9.6395,-9.6395,-9.6395,-9.6395,-9.6395,-9.6395,-9.6395,-9.6395,-9.6395,-9.6395,-9.6395,-9.6395,-9.6395,-9.6395,-9.6395,-9.6395,-9.6395,-9.6395,-9.6395,-9.6395,-9.6395,-9.6395,-9.6395,-9.6395,-9.6395,-9.6346,-9.6005,-9.5858,-9.5029,-9.508,-9.6088,-9.6133,-9.7112,-9.6395,-9.6395,-9.6395,-9.6395,-9.6395,-9.6395,-9.6395,-9.6395,-9.6395,-9.6395,-9.6395,-9.6395,-9.6395,-9.6395,-9.6395,-9.6395,-9.6395,-9.6395,-9.6395,-9.6395,-9.6395,-9.6395,-9.6395,-9.6395,-9.6444,-9.6639,-9.7518,-9.8445,-9.9324,-9.9421,-9.9568,-9.947,-9.9372,-9.9421,-9.9372,-9.9324,-9.947,-9.9226,-9.8396,-9.7957,-9.7811,-9.6981,-9.659,-9.659,-9.6444,-9.6493,-9.6493,-9.6444,-9.6493,-9.6444,-9.6493,-9.6444,-9.6444,-9.6444,-9.5907,-9.5029,-9.4784,-9.4296,-9.3418,-9.332,-9.332,-9.3271,-9.3418,-9.3223,-9.3467,-9.3467,-9.3808,-9.4638,-9.4589,-9.4248,-9.3515,-9.3515,-9.3418,-9.3369,-9.3271,-9.376,-9.4638,-9.4736,-9.5224,-9.5858,-9.5956,-9.5858,-9.6102,-9.6249,-9.6053,-9.62,-9.6298,-9.6298,-9.6346,-9.6395,-9.6395,-9.6395,-9.6395,-9.6395,-9.6395,-9.6395,-9.6395,-9.6395,-9.6395,-9.6395,-9.6395,-9.6395,-9.6395,-9.6395,-9.6395,-9.6395,-9.6395,-9.6151,-9.5712,-9.5175,-9.4345,-9.4076,-9.5049,-9.4987,-9.5835,-9.6395,-9.6395,-9.6395,-9.6395,-9.6395,-9.6395,-9.6395,-9.6395,-9.6395,-9.6395,-9.6395,-9.6395,-9.6395,-9.6395,-9.6395,-9.6395,-9.6395,-9.6395,-9.6395,-9.6395,-9.6395,-9.6395,-9.6395,-9.6395,-9.6395,-9.6444,-9.6688,-9.6981,-9.7274,-9.7274,-9.7322,-9.7274,-9.7322,-9.7322,-9.7322,-9.7322,-9.7322,-9.7322,-9.703,-9.6834,-9.6834,-9.6542,-9.6395,-9.6395,-9.6395,-9.6395,-9.6395,-9.6395,-9.6395,-9.6395,-9.6395,-9.6395,-9.6395,-9.6395,-9.5907,-9.4882,-9.4052,-9.3418,-9.3174,-9.3125,-9.3125,-9.3125,-9.3125,-9.3125,-9.3125,-9.3125,-9.3271,-9.3515,-9.293,-9.2783,-9.2979,-9.3125,-9.3125,-9.3125,-9.3125,-9.3223,-9.3515,-9.3613,-9.3711,-9.3955,-9.4248,-9.4004,-9.4052,-9.415,-9.4443,-9.5077,-9.5273,-9.5419,-9.62,-9.6346,-9.6395,-9.6395,-9.6395,-9.6395,-9.6395,-9.6395,-9.6395,-9.6395,-9.6395,-9.6395,-9.6395,-9.6395,-9.6395,-9.6102,-9.6346,-9.6346,-9.5956,-9.5468,-9.498,-9.4638,-9.4126,-9.3586,-9.4202,-9.4809,-9.5555,-9.6005,-9.6395,-9.6395,-9.6395,-9.6395,-9.6395,-9.6395,-9.6395,-9.6395,-9.6395,-9.6395,-9.6395,-9.6395,-9.6395,-9.5956,-9.5761,-9.5712,-9.5273,-9.5077,-9.5077,-9.5077,-9.5077,-9.5077,-9.5077,-9.5077,-9.5077,-9.5077,-9.5077,-9.5077,-9.5077,-9.5273,-9.5712,-9.62,-9.6395,-9.6395,-9.6395,-9.6395,-9.6395,-9.6395,-9.627,-9.6019,-9.6019,-9.5893,-9.569,-9.569,-9.569,-9.5641,-9.5205,-9.4963,-9.4963,-9.4825,-9.4706,-9.4706,-9.4954,-9.4784,-9.415,-9.3125,-9.2344,-9.1905,-9.1856,-9.1856,-9.1856,-9.1856,-9.1856,-9.1856,-9.1856,-9.1856,-9.1807,-9.1319,-9.1173,-9.171,-9.1856,-9.1856,-9.1856,-9.1856,-9.2051,-9.2442,-9.2491,-9.2735,-9.3076,-9.3125,-9.3174,-9.3125,-9.3125,-9.3418,-9.3906,-9.4101,-9.4296,-9.4931,-9.5468,-9.5712,-9.5761,-9.5761,-9.5907,-9.6346,-9.6395,-9.6395,-9.6395,-9.6395,-9.6395,-9.6346,-9.6151,-9.5761,-9.5712,-9.5224,-9.4931,-9.5175,-9.4443,-9.3906,-9.3369,-9.2783,-9.2704,-9.3567,-9.3753,-9.4222,-9.537,-9.62,-9.6346,-9.6395,-9.6395,-9.627,-9.627,-9.6193,-9.627,-9.627,-9.627,-9.6395,-9.6346,-9.6102,-9.5273,-9.4908,-9.454,-9.3613,-9.3223,-9.3223,-9.3125,-9.3125,-9.3271,-9.3174,-9.3125,-9.3223,-9.3271,-9.332,-9.332,-9.3271,-9.3662,-9.4638,-9.5614,-9.6005,-9.6053,-9.6053,-9.6102,-9.6249,-9.6026,-9.5727,-9.5099,-9.5099,-9.4721,-9.4184,-9.4137,-9.4184,-9.412,-9.3306,-9.278,-9.2684,-9.2487,-9.225,-9.2372,-9.2688,-9.2834,-9.2688,-9.2029,-9.1054,-9.0079,-9.0001,-9.0099,-9.005,-9.0148,-9.0148,-9.0148,-9.0099,-9.005,-9.0148,-9.0099,-9.0099,-9.005,-9.0148,-9.0245,-9.0294,-9.0245,-9.0392,-9.127,-9.1347,-9.1807,-9.2735,-9.2588,-9.2832,-9.2588,-9.2588,-9.2686,-9.2686,-9.2832,-9.3125,-9.3515,-9.415,-9.4638,-9.4492,-9.4638,-9.5029,-9.5614,-9.6053,-9.5809,-9.5907,-9.6005,-9.5858,-9.5614,-9.5126,-9.4638,-9.454,-9.3955,-9.3515,-9.3369,-9.2979,-9.2735,-9.2246,-9.171,-9.1458,-9.1529,-9.1844,-9.252,-9.498,-9.5224,-9.6053,-9.6395,-9.6395,-9.5893,-9.5389,-9.4931,-9.5389,-9.5641,-9.5767,-9.627,-9.5956,-9.5175,-9.4931,-9.4296,-9.3564,-9.3223,-9.3125,-9.3125,-9.3125,-9.3125,-9.3125,-9.3125,-9.3125,-9.3125,-9.3125,-9.3125,-9.3125,-9.3125,-9.3271,-9.3467,-9.3711,-9.3857,-9.3857,-9.3857,-9.4296,-9.5077,-9.3436,-9.2433,-9.231,-9.231,-9.2186,-9.2062,-9.2062,-9.2062,-9.211,-9.1871,-9.1727,-9.1679,-9.1611,-9.159,-9.159,-9.1712,-9.1328,-9.0511,-9.0632,-9.0292,-8.9443,-8.965,-9.005,-9.005,-9.005,-9.0001,-9.005,-9.005,-9.005,-9.005,-9.0001,-9.0001,-9.005,-9.005,-9.005,-9.005,-9.005,-9.0148,-9.0343,-9.0392,-9.0489,-9.0636,-9.0733,-9.0782,-9.0733,-9.0733,-9.0831,-9.0977,-9.1466,-9.2246,-9.2979,-9.3271,-9.3125,-9.2783,-9.3027,-9.3662,-9.376,-9.3955,-9.4004,-9.3906,-9.3955,-9.4052,-9.4004,-9.376,-9.3515,-9.3467,-9.3223,-9.2979,-9.3027,-9.2491,-9.1905,-9.1444,-9.0977,-9.046,-9.0468,-9.1117,-9.2105,-9.3613,-9.415,-9.5224,-9.5663,-9.5712,-9.5824,-9.5564,-9.4835,-9.3874,-9.3682,-9.4192,-9.4755,-9.4589,-9.4004,-9.3564,-9.3027,-9.2393,-9.1954,-9.171,-9.171,-9.171,-9.171,-9.171,-9.171,-9.171,-9.171,-9.171,-9.171,-9.171,-9.171,-9.1954,-9.2442,-9.2081,-9.2082,-9.2275,-9.2275,-9.2613,-9.3145,-9.152,-9.0622,-9.0853,-9.0853,-9.0729,-9.0359,-9.0359,-9.0359,-9.0359,-8.946,-8.8939,-8.8939,-8.84,-8.7949,-8.7949,-8.8188,-8.8186,-8.7494,-8.78,-8.7725,-8.7148,-8.7449,-8.8038,-8.8804,-8.9241,-8.9221,-8.8454,-8.8454,-8.8765,-8.9484,-8.9532,-8.965,-9.0001,-9.005,-9.005,-9.005,-9.005,-9.005,-9.005,-9.005,-9.005,-9.005,-9.005,-9.005,-9.005,-9.005,-9.005,-9.005,-9.0441,-9.1075,-9.1563,-9.171,-9.1661,-9.171,-9.1932,-9.2588,-9.3076,-9.3125,-9.3125,-9.3125,-9.3125,-9.3125,-9.3125,-9.2637,-9.2491,-9.2442,-9.1954,-9.1758,-9.1661,-9.1222,-9.0977,-9.0831,-9.0343,-9.0099,-9.0118,-9.0885,-9.1875,-9.2029,-9.3027,-9.4101,-9.4589,-9.4638,-9.5441,-9.5456,-9.4636,-9.2282,-9.1624,-9.2512,-9.2955,-9.3027,-9.2881,-9.1883,-9.1444,-9.1249,-9.0441,-9.005,-9.005,-9.005,-9.005,-9.005,-9.005,-9.005,-9.005,-9.005,-9.005,-9.005,-9.005,-9.0372,-9.1033,-9.0653,-9.0488,-9.0818,-9.0914,-9.0792,-9.0669,-8.9594,-8.923,-8.9563,-8.9563,-8.9316,-8.8821,-8.8821,-8.8774,-8.8587,-8.6904,-8.5803,-8.5736,-8.4521,-8.3881,-8.3881,-8.4246,-8.4447,-8.4447,-8.4418,-8.4436,-8.4436,-8.4484,-8.5143,-8.6706,-8.7883,-8.7794,-8.6109,-8.6204,-8.6915,-8.8248,-8.8365,-8.8793,-8.9407,-8.9407,-8.9407,-8.9718,-8.9884,-8.9884,-9.005,-9.005,-9.005,-9.005,-9.005,-9.005,-9.005,-9.005,-9.005,-9.005,-9.0148,-9.0099,-9.0197,-9.005,-9.0441,-9.1173,-9.1298,-9.1758,-9.2246,-9.2637,-9.2539,-9.2686,-9.2539,-9.2442,-9.2442,-9.1856,-9.1417,-9.1298,-9.0782,-9.0245,-9.0148,-9.005,-9.0099,-9.0148,-9.0099,-9.005,-9.0001,-9.0571,-9.1346,-9.159,-9.2002,-9.2979,-9.3418,-9.3418,-9.3052,-9.2535,-9.1871,-9.1413,0.0,0.0,-9.2615,-9.2637,-9.1737,-9.159,-9.1124,-9.0343,-9.0099,-9.005,-9.005,-9.005,-9.005,-9.005,-9.005,-9.005,-9.005,-9.005,-9.005,-9.005,-9.005,-8.9747,-8.947,-8.9352,-8.9093,-8.8641,-8.8641,-8.8043,-8.708,-8.6772,-8.6772,-8.6885,-8.6885,-8.6717,-8.6643,-8.6643,-8.6176,-8.5455,-8.5035,-8.4474,-8.3679,-8.3421,-8.335,-8.3303,-8.2668,-8.2312,-8.2265,-8.1963,-8.1714,-8.1778,-8.227,-8.3034,-8.4041,-8.5095,-8.501,-8.3392,-8.4447,-8.5363,-8.567,-8.567,-8.6053,-8.7032,-8.708,-8.7698,-8.9083,-8.918,-8.9415,-8.9884,-9.005,-8.9787,-9.005,-8.9904,-9.0001,-8.9953,-8.9953,-9.005,-9.005,-9.005,-9.005,-9.005,-8.9836,-8.9933,-9.0343,-9.0441,-9.0392,-9.0587,-9.0685,-9.0587,-9.0733,-9.0685,-9.0587,-9.0538,-9.0441,-9.0343,-9.0392,-9.0197,-9.0001,-9.0001,-8.9904,-9.005,-9.005,-9.005,-9.005,-8.9953,-8.9848,-8.9831,-9.0831,-9.088,-9.1954,-9.2393,0.0,-9.2567,-9.1404,-8.9239,-8.9935,-9.0342,-9.0896,-9.1329,-9.127,-9.0782,-9.0245,-8.9708,-8.922,-8.8635,-8.8391,-8.8342,-8.8342,-8.8342,-8.8391,-8.8928,-8.922,-8.922,-8.9757,-9.005,-9.005,-9.005,-8.965,-8.9062,-8.8708,-8.8234,-8.764,-8.7282,-8.6804,-8.6083,-8.6083,-8.6083,-8.6083,-8.5569,-8.5362,-8.5362,-8.4894,0.0,0.0,0.0,0.0,0.0,0.0,0.0,0.0,-7.9331,0.0,-7.849,-7.7832,-7.7436,-7.7436,-7.7756,-7.8573,-8.0088,-8.0656,-8.0293,-7.8709,-8.0291,-8.1833,-8.3164,-8.3534,-8.4304,-8.5535,-8.5631,-8.6101,-8.686,-8.6956,-8.7072,-8.742,-8.742,-8.742,-8.742,-8.7699,-8.8173,-8.8659,-8.8988,-8.9416,-8.9904,-9.005,-9.005,-9.0001,-8.9212,-8.9115,-8.9836,-9.005,-9.0001,-9.005,-9.005,-9.005,-9.0001,-9.005,-9.005,-9.005,-9.005,-9.005,-9.0001,-8.9562,-8.922,-8.9172,-8.8732,-8.8342,-8.8342,-8.8342,-8.8342,-8.8342,-8.8131,-8.8242,-8.9904,-8.9806,-9.0685,-9.088,-9.0782,-9.1563,-9.0087,-8.7227,-8.8096,-8.8965,-8.969,-8.9407,-8.9416,-8.9318,-8.8488,-8.8098,-8.8049,-8.717,-8.6731,-8.6731,-8.6731,-8.6731,-8.678,-8.7903,-8.8439,-8.8488,-8.9513,-8.9904,-8.9708,-8.9592,-8.9144,-8.8248,-8.7612,-8.7022,-8.6358,0.0,0.0,0.0,-8.611,-8.6324,-8.6444,-8.5672,-8.5249,-8.5202,-8.4451,0.0,-8.3581,-8.2668,-8.2057,-8.1588,-7.974,0.0,0.0,0.0,0.0,0.0,0.0,0.0,0.0,0.0,0.0,0.0,-7.4972,-7.4146,-7.3669,-7.5039,-7.7211,-8.0014,-8.1043,-8.2011,-8.3571,-8.3666,-8.3714,-8.4018,-8.3952,-8.3952,-8.4066,-8.4256,-8.4352,-8.4466,-8.5161,-8.5918,-8.6918,-8.7409,-8.8045,-8.8659,-8.9018,-8.9018,-8.8969,-8.7777,-8.7516,-8.8707,-8.8756,-8.9018,-8.9183,-8.9202,-8.9172,-8.9416,-8.9416,-8.9367,-8.9269,-8.9318,-8.9367,-8.9269,-8.8684,-8.8098,-8.8098,-8.7366,-8.6878,-8.6731,-8.678,-8.6634,-8.6243,-8.6404,-8.6887,-8.9464,-8.8635,-8.8781,-8.8244,-8.7366,-8.7512,-8.7025,-8.6116,-8.6261,-8.6406,-8.6502,-8.6879,-8.717,-8.717,-8.7024,-8.6975,-8.6926,-8.678,-8.6731,-8.6731,-8.6731,-8.6731,-8.678,-8.7903,-8.8439,-8.8488,-8.9513,-8.9513,-8.8635,-8.8057,-8.6947,-8.5507,-8.4836,-8.4142,-8.3772,-8.3608,-8.3959,-8.4801,-8.6214,-8.7282,-8.7759,-8.7735,-8.764,-8.764,-8.7544,-8.6639,-8.4828,-8.4637,-8.3684,-8.1921,-8.0088,-7.8783,-7.7839,-7.4593,-7.2319,0.0,-6.9561,0.0,0.0,0.0,0.0,0.0,0.0,0.0,0.0,-6.9804,-7.1229,-7.5221,-7.6394,-7.7649,-7.9224,-7.8987,-7.9203,-8.0443,-8.0294,-8.0182,-8.079,-8.1654,-8.2285,-8.2804,-8.3771,-8.4618,-8.501,-8.5334,-8.5449,-8.5641,-8.5478,-8.5334,-8.5478,-8.5334,-8.522,-8.5478,-8.5641,-8.6158,-8.6617,-8.6976,-8.7155,-8.7106,-8.7203,-8.717,-8.7268,-8.7268,-8.7106,-8.7219,-8.7122,-8.6975,-8.6926,-8.6829,-8.6682,-8.6585,-8.6536,-8.5999,-8.4742,-8.5219,-8.631,-8.7903,-8.7512,-8.7512,-8.6146,-8.4096,-8.4096,-8.4669,-8.5405,-8.5454,-8.5405,-8.5566,-8.5741,-8.5511,-8.4925,-8.434,-8.4096,-8.4096,-8.4047,-8.4047,-8.4096,-8.4681,-8.4974,-8.5023,-8.6682,-8.7512,-8.7561,-8.922,-8.9464,-8.8488,-8.7815,-8.6591,-8.501,-8.4341,-8.3145,-8.1697,-8.1785,-8.287,-8.4821,-8.6097,-8.7188,-8.8068,-8.7494,-8.7208,-8.716,-8.6634,-8.587,-8.4962,-8.4388,-8.3672,-8.2716,-8.0348,-7.8182,-7.6519,-7.3277,-7.0333,0.0,0.0,0.0,0.0,0.0,0.0,0.0,0.0,0.0,0.0,0.0,-6.6303,-7.0403,-7.2721,-7.4378,-7.5401,-7.5281,-7.5206,-7.53,-7.5176,-7.5068,-7.5392,-7.6312,-7.713,-7.7679,-7.894,-8.0004,-8.0855,-8.1981,-8.2935,-8.3619,-8.1249,-7.9799,-8.0808,-8.1756,-8.2549,-8.3619,-8.437,-8.5028,-8.5371,-8.5599,-8.5826,-8.6166,-8.6215,-8.6328,-8.6618,-8.6731,-8.6731,-8.657,-8.6243,-8.5853,-8.5853,-8.5413,-8.4974,-8.4974,-8.4974,-8.4694,-8.414,-8.4661,-8.5441,-8.6082,-8.595,-8.5413,-8.3803,-8.1712,-8.1558,-8.2485,-8.3949,-8.3998,-8.3998,-8.3998,-8.3705,-8.3168,-8.2339,-8.137,-8.1077,-8.1273,-8.1321,-8.1566,-8.2103,-8.2885,-8.3315,-8.3608,-8.5462,-8.6341,-8.6487,-8.8293,-8.8684,-8.7659,-8.6797,-8.555,-8.3976,-8.284,-8.1414,-7.955,-8.0321,-8.1889,-8.4084,-8.5603,-8.6915,-8.7922,-8.7512,-8.7293,-8.7293,-8.6524,-8.5899,-8.5323,-8.441,-8.3641,-8.3065,-7.9979,-7.7189,-7.4932,-7.1534,0.0,0.0,0.0,0.0,0.0,0.0,0.0,0.0,0.0,-5.9158,-6.1963,0.0,-6.2415,0.0,-6.9197,-7.1224,-7.1564,-7.1555,0.0,0.0,-6.9813,-6.971,-6.9607,-7.0626,-7.1707,-7.2342,-7.409,-7.5668,-7.6623,-7.852,-7.971,-7.9676,-7.7038,-7.5663,-7.6946,-7.8219,-7.9407,-8.0602,-8.1709,-8.2709,-8.268,-8.2935,-8.3273,-8.4378,-8.4732,-8.4989,-8.5439,-8.5551,-8.5663,-8.5727,-8.5045,-8.4717,-8.4779,-8.4144,-8.3461,-8.2875,-8.2778,-8.2993,-8.3479,-8.3644,-8.4119,-8.4681,-8.3656,-8.1655,-8.0728,-8.0379,-8.0379,-8.0581,-8.0623,-8.0623,-8.0623,-8.0574,-7.9703,-7.9215,-7.9068,-7.7995,0.0,-7.902,-7.902,-8.0045,-8.2055,-8.2152,-8.269,-8.3716,-8.473,-8.5267,-8.5316,-8.6438,-8.6438,-8.5413,-8.3777,-8.2493,-8.1323,-7.876,-7.7451,-7.7355,-7.9264,-8.0839,-8.1936,-8.4619,-8.6436,-8.7497,-8.895,-8.9787,-8.9621,-8.9689,-8.855,-8.6603,-8.5595,-8.4132,-8.2134,-7.8602,-7.5587,-7.3268,0.0,0.0,0.0,0.0,0.0,0.0,0.0,0.0,0.0,0.0,0.0,0.0,0.0,0.0,-6.3061,-6.5724,0.0,-6.7487,-6.7103,0.0,0.0,0.0,-6.4288,-6.3938,-6.5459,-6.711,-6.8177,0.0,0.0,-7.3983,-7.5022,-7.4651,-7.1855,-7.3628,-7.528,-7.5417,-7.5572,-7.5663,-7.5956,-7.6002,-7.6266,-7.7291,-7.7789,-7.8721,-8.0491,-8.1583,-8.2157,-8.2316,-8.2316,-8.2378,-8.2928,-8.2831,-8.2954,-8.3548,-8.3521,-8.2924,-8.0923,-8.063,-8.0686,-8.1312,-8.1832,-8.2348,-8.0979,-7.8988,-7.7816,-7.7669,-7.826,-7.826,-7.8606,-7.9148,-7.9298,-7.8803,-7.8211,-7.7077,-7.6239,-7.5645,-7.4657,0.0,0.0,0.0,-7.8543,-7.9117,-8.0386,-8.1558,-8.269,-8.3656,-8.4144,-8.4242,-8.5267,-8.4877,-8.3325,-8.156,-7.9572,-7.7216,0.0,0.0,-7.5155,-7.6928,-7.9249,-8.1888,-8.424,-8.6295,-8.8045,-8.9348,-8.9708,-8.9123,-8.9372,-8.8457,-8.6298,-8.4908,-8.3199,-8.0977,-7.6781,-7.3157,0.0,0.0,0.0,0.0,0.0,0.0,0.0,0.0,0.0,0.0,0.0,-5.4093,-5.5705,0.0,0.0,0.0,-6.1653,-6.3175,-6.4477,-6.4434,0.0,0.0,0.0,0.0,0.0,0.0,0.0,-6.4014,-6.6228,-6.7919,-6.906,-6.9282,-6.9386,-6.958,-7.0716,-7.1753,-7.2339,0.0,-7.3826,-7.3826,-7.4651,-7.528,-7.5543,-7.6085,-7.6764,-7.7616,-7.8688,-7.9465,-7.9897,-8.0004,-8.0112,-8.0648,-8.0755,-8.0968,-8.15,-8.0742,-7.9822,-7.9037,-7.9044,-7.9399,-8.0053,-8.0354,-8.0654,-7.757,0.0,0.0,0.0,0.0,-7.5859,-7.6354,-7.7054,-7.7054,-7.6654,-7.5904,-7.4661,0.0,0.0,0.0,0.0,0.0,0.0,-7.6533,-7.6731,-7.8547,-8.0117,-8.1546,-8.2332,-8.257,-8.2619,-8.3355,-8.2766,-8.1006,-7.82,-7.5553,-7.33,0.0,0.0,0.0,0.0,-7.7991,-8.1231,-8.3863,-8.6048,-8.7903,-8.9434,-8.9746,-8.8669,-8.8601,-8.7557,-8.5322,-8.3225,-8.0948,-7.846,-7.4199,0.0,0.0,0.0,0.0,0.0,0.0,0.0,0.0,0.0,0.0,0.0,0.0,0.0,0.0,0.0,0.0,0.0,0.0,0.0,-6.1402,-6.1786,-6.1149,0.0,0.0,0.0,0.0,0.0,0.0,0.0,0.0,0.0,-6.4245,-6.4917,-6.5934,0.0,0.0,-6.931,-7.0506,-7.1331,-7.1978,-7.2355,-7.331,0.0,-7.3508,-7.4151,-7.4624,-7.4624,-7.5533,-7.6527,-7.7337,-7.7746,-7.7956,-7.8477,-7.8581,-7.8353,-7.8099,-7.7126,-7.6481,-7.6479,-7.6719,-7.7296,-7.7825,-7.7921,-7.8162,0.0,0.0,0.0,0.0,0.0,0.0,0.0,0.0,-7.3454,-7.3403,0.0,-7.2239,0.0,0.0,0.0,0.0,-7.055,-7.2194,0.0,0.0,-7.6473,-7.8212,-8.0251,-8.0351,-8.0401,-8.0401,-8.0349,-7.9703,-7.8311,-7.2965,0.0,0.0,0.0,0.0,0.0,0.0,-7.7372,-7.9638,-8.3189,-8.5657,-8.678,-8.9455,-9.0391,-8.9143,-8.773,-8.5923,-8.3635,-8.0401,-7.7216,-7.3982,-7.0699,0.0,0.0,0.0,0.0,0.0,0.0,0.0,0.0,0.0,0.0,0.0,0.0,0.0,0.0,0.0,0.0,0.0,0.0,0.0,0.0,-5.8868,0.0,0.0,0.0,0.0,0.0,0.0,0.0,0.0,0.0,0.0,-6.0425,-6.2836,-6.4954,-6.5387,0.0,0.0,0.0,0.0,-6.9699,-7.1166,-7.103,-7.04,-6.9461,-7.0304,-7.0921,-7.1024,0.0,0.0,-7.4487,-7.514,-7.565,-7.6205,-7.621,-7.545,-7.2917,-7.2713,-7.2835,-7.2835,-7.3235,-7.3633,-7.413,-7.4219,-7.4755,0.0,0.0,0.0,0.0,0.0,0.0,0.0,0.0,0.0,-7.0562,-7.051,-6.9421,0.0,0.0,0.0,0.0,0.0,0.0,0.0,0.0,-7.38,-7.537,-7.6779,-7.6779,-7.6779,0.0,-7.6779,-7.5083,0.0,0.0,0.0,0.0,0.0,0.0,0.0,0.0,-7.6417,-7.9007,-8.2371,-8.5036,-8.6815,-8.8473,-8.9131,-8.8734,-8.7196,-8.4473,-8.0842,-7.7729,-7.4245,0.0,0.0,0.0,0.0,0.0,0.0,0.0,0.0,0.0,0.0,0.0,0.0,0.0,0.0,0.0,0.0,0.0,0.0,0.0,0.0,0.0,0.0,0.0,-5.8353,0.0,0.0,0.0,0.0,0.0,0.0,0.0,0.0,0.0,-5.9035,-6.0343,-6.2462,-6.5421,-6.6421,-6.7891,-7.0418,0.0,0.0,0.0,0.0,0.0,0.0,0.0,-7.0061,-6.9712,-7.0309,-7.09,-7.0909,-7.1391,-7.1966,-7.2824,0.0,0.0,-6.9125,-6.9117,-6.9535,-6.9535,-7.0118,-7.0696,-7.0861,-7.0861,-7.1307,0.0,0.0,0.0,0.0,0.0,0.0,0.0,0.0,0.0,-6.8868,-6.8815,0.0,0.0,0.0,0.0,0.0,0.0,0.0,0.0,0.0,0.0,0.0,-7.3313,-7.3401,0.0,0.0,0.0,0.0,0.0,0.0,0.0,0.0,0.0,0.0,0.0,0.0,-7.5699,-7.9151,-8.2254,-8.4898,-8.7096,-8.8415,-8.8835,-8.8141,-8.7269,-8.4596,-7.9745,0.0,0.0,0.0,0.0,0.0,0.0,0.0,0.0,0.0,0.0,0.0,0.0,0.0,0.0,0.0,0.0,0.0,0.0,0.0,0.0,0.0,0.0,0.0,0.0,0.0,-5.7721,0.0,0.0,0.0,0.0,0.0,0.0,0.0,0.0,0.0,0.0,0.0,-6.1266,-6.5083,-6.6008,-6.7395,-7.0367,-7.0815,-7.1029,0.0,0.0,0.0,0.0,0.0,0.0,0.0,0.0,0.0,0.0,0.0,0.0,0.0,0.0,-6.7752,-6.5843,-6.6049,-6.6432,-6.6508,0.0,0.0,0.0,0.0,0.0,0.0,0.0,0.0,0.0,0.0,0.0,0.0,0.0,0.0,0.0,-6.8204,0.0,0.0,-6.5948,0.0,0.0,0.0,0.0,0.0,0.0,0.0,0.0,0.0,0.0,0.0,0.0,0.0,0.0,0.0,0.0,0.0,0.0,0.0,0.0,0.0,0.0,-7.5447,-7.9976,-8.292,-8.5432,-8.7596,-8.9299,-8.9333,-8.7718,-8.8189,-8.606,-8.0724,0.0,0.0,0.0,0.0,0.0,0.0,0.0,0.0,0.0,0.0,0.0,0.0,0.0,0.0,0.0,0.0,0.0,0.0,0.0,0.0,0.0,0.0,0.0,0.0,0.0,0.0,-5.7238,-5.6324,-5.5469,0.0,0.0,0.0,0.0,0.0,0.0,0.0,0.0,0.0,-6.4137,-6.5831,-6.7826,-7.0388,-7.0805,-7.1072,-7.1513,-7.2017,-7.1624,-6.9705,-7.0053,-6.9863,0.0,0.0,0.0,0.0,0.0,0.0,0.0,0.0,0.0,0.0,0.0,0.0,0.0,0.0,0.0,0.0,0.0,0.0,0.0,0.0,0.0,0.0,0.0,0.0,0.0,0.0,0.0,0.0,0.0,0.0,0.0,0.0,0.0,0.0,0.0,0.0,0.0,0.0,0.0,0.0,0.0,0.0,0.0,0.0,0.0,0.0,0.0,0.0,0.0,0.0,0.0,0.0,0.0,0.0,-7.6433,-7.9293,-8.3334,-8.6024,-8.7105,-8.8757,-8.9019,-8.7771,-8.6958,-8.4658,0.0,0.0,0.0,0.0,0.0,0.0,0.0,0.0,0.0,0.0,0.0,0.0,0.0,0.0,0.0,0.0,0.0,0.0,0.0,0.0,0.0,0.0,0.0,0.0,0.0,0.0,0.0,0.0,-5.649,-5.5682,-5.3868,0.0,0.0,0.0,0.0,0.0,0.0,0.0,0.0,0.0,0.0,-6.7135,-7.0218,-7.1194,-7.2015,-7.293,-7.2544,-7.211,-7.1862,-7.0689,-6.9348,-6.7843,0.0,0.0,0.0,0.0,0.0,0.0,0.0,0.0,0.0,0.0,0.0,0.0,0.0,0.0,0.0,0.0,0.0,0.0,0.0,0.0,0.0,0.0,0.0,0.0,0.0,0.0,0.0,0.0,0.0,0.0,0.0,0.0,0.0,0.0,0.0,0.0,0.0,0.0,0.0,0.0,0.0,0.0,0.0,0.0,0.0,0.0,0.0,0.0,0.0,0.0,0.0,0.0,0.0,-7.6497,-7.9715,-8.3782,-8.648,-8.7806,-8.8843,-8.8935,-8.8027,-8.6005,-8.311,0.0,0.0,0.0,0.0,0.0,0.0,0.0,0.0,0.0,0.0,0.0,0.0,0.0,0.0,0.0,0.0,0.0,0.0,0.0,0.0,0.0,0.0,0.0,0.0,0.0,0.0,0.0,0.0,-5.6254,-5.594,-5.4267,0.0,0.0,0.0,0.0,0.0,0.0,0.0,0.0,0.0,0.0,-6.7089,-7.0045,-7.1679,0.0,0.0,-7.2725,-7.2655,-7.2713,-7.1343,-6.9735,-6.8318,-6.6931,0.0,0.0,0.0,0.0,0.0,0.0,0.0,0.0,0.0,0.0,0.0,0.0,0.0,0.0,0.0,0.0,0.0,0.0,0.0,0.0,0.0,0.0,0.0,0.0,0.0,0.0,0.0,0.0,0.0,0.0,0.0,0.0,0.0,0.0,0.0,0.0,0.0,0.0,0.0,0.0,0.0,0.0,0.0,0.0,0.0,0.0,0.0,0.0,0.0,0.0,0.0,0.0,-7.6092,-8.0913,-8.4262,-8.7006,-8.9191,-8.935,-8.9166,-8.8515,-8.5348,-8.1541,0.0,0.0,0.0,0.0,0.0,0.0,0.0,0.0,0.0,0.0,0.0,0.0,0.0,0.0,0.0,0.0,0.0,0.0,0.0,0.0,0.0,0.0,0.0,0.0,0.0,0.0,0.0,0.0,0.0,0.0,0.0,0.0,0.0,0.0,0.0,0.0,0.0,0.0,0.0,0.0,0.0,-6.7493,-6.9759,-7.1944,-7.3011,0.0,-7.2655,-7.3188,-7.2725,-7.1831,-7.0696,-6.8966,0.0,0.0,0.0,0.0,0.0,0.0,0.0,0.0,0.0,0.0,0.0,0.0,0.0,0.0,0.0,0.0,0.0,0.0,0.0,0.0,0.0,0.0,0.0,0.0,0.0,0.0,0.0,0.0,0.0,0.0,0.0,0.0,0.0,0.0,0.0,0.0,0.0,0.0,0.0,0.0,0.0,0.0,0.0,0.0,0.0,0.0,0.0,0.0,0.0,0.0,0.0,0.0,0.0,0.0,-8.0103,-8.5317,-8.8625,-8.9661,-9.0873,-9.067,-8.8781,-8.558,0.0,0.0,0.0,0.0,0.0,0.0,0.0,0.0,0.0,0.0,0.0,0.0,0.0,0.0,0.0,0.0,0.0,0.0,0.0,0.0,0.0,0.0,0.0,0.0,0.0,0.0,0.0,-5.4445,0.0,0.0,0.0,0.0,0.0,0.0,0.0,0.0,0.0,0.0,0.0,0.0,0.0,0.0,-6.7424,-6.8822,-7.0748,-7.2089,0.0,0.0,-7.2714,-7.3483,-7.206,-7.0489,0.0,0.0,0.0,0.0,0.0,0.0,0.0,0.0,0.0,0.0,0.0,0.0,0.0,0.0,0.0,0.0,0.0,0.0,0.0,0.0,0.0,0.0,0.0,0.0,0.0,0.0,0.0,0.0,0.0,0.0,0.0,0.0,0.0,0.0,0.0,0.0,0.0,0.0,0.0,0.0,0.0,0.0,0.0,0.0,0.0,0.0,0.0,0.0,0.0,0.0,0.0,0.0,0.0,0.0,-7.7247,-8.0819,-8.6171,-8.9483,-9.083,-9.1736,-9.1238,-8.9172,-8.4934,-8.063,0.0,0.0,0.0,0.0,0.0,0.0,0.0,0.0,0.0,0.0,0.0,0.0,0.0,0.0,0.0,0.0,0.0,0.0,0.0,0.0,0.0,0.0,0.0,0.0,0.0,0.0,0.0,0.0,0.0,0.0,0.0,0.0,0.0,0.0,0.0,0.0,0.0,0.0,0.0,0.0,0.0,0.0,-6.7779,-6.9467,0.0,0.0,0.0,-7.1682,-7.2541,0.0,0.0,0.0,0.0,0.0,0.0,0.0,0.0,0.0,0.0,0.0,0.0,0.0,0.0,0.0,0.0,0.0,0.0,0.0,0.0,0.0,0.0,0.0,0.0,0.0,0.0,0.0,0.0,0.0,0.0,0.0,0.0,0.0,0.0,0.0,0.0,0.0,0.0,0.0,0.0,0.0,0.0,0.0,0.0,0.0,0.0,0.0,0.0,0.0,0.0,0.0,0.0,0.0,0.0,0.0,0.0,0.0,-8.2312,-8.6786,-9.0059,-9.2121,-9.2142,-9.1251,-8.9457,-8.4113,-7.9327,0.0,0.0,0.0,0.0,0.0,0.0,0.0,0.0,0.0,0.0,0.0,0.0,0.0,0.0,0.0,0.0,0.0,0.0,0.0,0.0,0.0,0.0,0.0,0.0,0.0,0.0,0.0,0.0,0.0,0.0,0.0,0.0,0.0,0.0,0.0,0.0,0.0,0.0,0.0,0.0,0.0,-6.5754,-6.6938,-6.8363,-6.9397,0.0,0.0,-7.0463,-7.0971,-7.0214,0.0,0.0,0.0,0.0,0.0,0.0,0.0,0.0,0.0,0.0,0.0,0.0,0.0,0.0,0.0,0.0,0.0,0.0,0.0,0.0,0.0,0.0,0.0,0.0,0.0,0.0,0.0,0.0,0.0,0.0,0.0,0.0,0.0,0.0,0.0,0.0,0.0,0.0,0.0,0.0,0.0,0.0,0.0,0.0,0.0,0.0,0.0,0.0,0.0,0.0,0.0,0.0,0.0,0.0,0.0,0.0,-8.3256,-8.718,-9.0428,-9.2752,-9.2571,-9.0991,-8.8429,-8.4294,-7.9741,0.0,0.0,0.0,0.0,0.0,0.0,0.0,0.0,0.0,0.0,0.0,0.0,0.0,0.0,0.0,0.0,0.0,0.0,0.0,0.0,0.0,0.0,0.0,0.0,0.0,0.0,0.0,0.0,0.0,0.0,0.0,0.0,0.0,0.0,0.0,0.0,0.0,0.0,0.0,0.0,0.0,-6.6039,-6.7251,-6.8463,0.0,0.0,0.0,0.0,-7.1346,-6.9819,0.0,0.0,0.0,0.0,0.0,0.0,0.0,0.0,0.0,0.0,0.0,0.0,0.0,0.0,0.0,0.0,0.0,0.0,0.0,0.0,0.0,0.0,0.0,0.0,0.0,0.0,0.0,0.0,0.0,0.0,0.0,0.0,0.0,0.0,0.0,0.0,0.0,0.0,0.0,0.0,0.0,0.0,0.0,0.0,0.0,0.0,0.0,0.0,0.0,0.0,0.0,0.0,0.0,0.0,0.0,0.0,-8.3482,-8.7314,-9.0416,-9.2691,-9.3016,-9.1662,-8.8652,-8.4581,-7.9994,0.0,0.0,0.0,0.0,0.0,0.0,0.0,0.0,0.0,0.0,0.0,0.0,0.0,0.0,0.0,0.0,0.0,0.0,0.0,0.0,0.0,0.0,0.0,0.0,0.0,0.0,0.0,0.0,0.0,0.0,0.0,0.0,0.0,0.0,0.0,0.0,0.0,0.0,0.0,0.0,-6.3435,-6.478,-6.5397,0.0,0.0,0.0,0.0,0.0,0.0,-6.819,-6.7502,0.0,0.0,0.0,0.0,0.0,0.0,0.0,0.0,0.0,0.0,0.0,0.0,0.0,0.0,0.0,0.0,0.0,0.0,0.0,0.0,0.0,0.0,0.0,0.0,0.0,0.0,0.0,0.0,0.0,0.0,0.0,0.0,0.0,0.0,0.0,0.0,0.0,0.0,0.0,0.0,0.0,0.0,0.0,0.0,0.0,0.0,0.0,0.0,0.0,0.0,0.0,0.0,0.0,0.0,0.0,-8.3497,-8.7092,-9.0049,-9.2493,-9.3075,-9.1929,-8.9223,-8.4801,-8.0095,-7.5071,0.0,0.0,0.0,0.0,0.0,0.0,0.0,0.0,0.0,0.0,0.0,0.0,0.0,0.0,0.0,0.0,0.0,0.0,0.0,0.0,0.0,0.0,0.0,0.0,0.0,0.0,0.0,0.0,0.0,0.0,0.0,0.0,0.0,0.0,0.0,0.0,0.0,0.0,0.0,-6.2503,-6.3539,0.0,0.0,0.0,0.0,0.0,0.0,0.0,0.0,-6.6514,0.0,0.0,0.0,0.0,0.0,0.0,0.0,0.0,0.0,0.0,0.0,0.0,0.0,0.0,0.0,0.0,0.0,0.0,0.0,0.0,0.0,0.0,0.0,0.0,0.0,0.0,0.0,0.0,0.0,0.0,0.0,0.0,0.0,0.0,0.0,0.0,0.0,0.0,0.0,0.0,0.0,0.0,0.0,0.0,0.0,0.0,0.0,0.0,0.0,0.0,0.0,0.0,0.0,0.0,0.0,0.0,-8.6022,-8.9185,-9.2782,-9.1335,-8.9969,-8.8839,-8.471,-7.9991,-7.4887,0.0,0.0,0.0,0.0,0.0,0.0,0.0,0.0,0.0,0.0,0.0,0.0,0.0,0.0,0.0,0.0,0.0,0.0,0.0,0.0,0.0,0.0,0.0,0.0,0.0,0.0,0.0,0.0,0.0,0.0,0.0,0.0,0.0,0.0,0.0,0.0,0.0,0.0,-6.1143,-6.2759,0.0,0.0,0.0,0.0,0.0,0.0,0.0,0.0,-6.7161,0.0,0.0,0.0,0.0,0.0,0.0,0.0,0.0,0.0,0.0,0.0,0.0,0.0,0.0,0.0,0.0,0.0,0.0,0.0,0.0,0.0,0.0,0.0,0.0,0.0,0.0,0.0,0.0,0.0,0.0,0.0,0.0,0.0,0.0,0.0,0.0,0.0,0.0,0.0,0.0,0.0,0.0,0.0,0.0,0.0,0.0,0.0,0.0,0.0,0.0,0.0,0.0,0.0,0.0,0.0,0.0,0.0,0.0,-8.8135,-9.0403,-9.0782,-8.9795,-8.7677,-8.3214,-7.8809,0.0,0.0,0.0,0.0,0.0,0.0,0.0,0.0,0.0,0.0,0.0,0.0,0.0,0.0,0.0,0.0,0.0,0.0,0.0,0.0,0.0,0.0,0.0,0.0,0.0,0.0,0.0,0.0,0.0,0.0,0.0,0.0,0.0,0.0,0.0,0.0,0.0,0.0,0.0,0.0,0.0,0.0,0.0,0.0,0.0,0.0,0.0,0.0,0.0,0.0,0.0,0.0,0.0,0.0,0.0,0.0,0.0,0.0,0.0,0.0,0.0,0.0,0.0,0.0,0.0,0.0,0.0,0.0,0.0,0.0,0.0,0.0,0.0,0.0,0.0,0.0,0.0,0.0,0.0,0.0,0.0,0.0,0.0,0.0,0.0,0.0,0.0,0.0,0.0,0.0,0.0,0.0,0.0,0.0,0.0,0.0,0.0,0.0,0.0,0.0,0.0,0.0,0.0,0.0,0.0,0.0,0.0,0.0,-8.6677,-8.8545,-8.9763,-8.9312,-8.7082,-8.1943,-7.7469,0.0,0.0,0.0,0.0,0.0,0.0,0.0,0.0,0.0,0.0,0.0,0.0,0.0,0.0,0.0,0.0,0.0,0.0,0.0,0.0,0.0,0.0,0.0,0.0,0.0,0.0,0.0,0.0,0.0,0.0,0.0,0.0,0.0,0.0,0.0,0.0,0.0,0.0,0.0,0.0,0.0,0.0,0.0,0.0,0.0,0.0,0.0,0.0,-6.609,0.0,0.0,0.0,0.0,0.0,0.0,0.0,0.0,0.0,0.0,0.0,0.0,0.0,0.0,0.0,0.0,0.0,0.0,0.0,0.0,0.0,0.0,0.0,0.0,0.0,0.0,0.0,0.0,0.0,0.0,0.0,0.0,0.0,0.0,0.0,0.0,0.0,0.0,0.0,0.0,0.0,0.0,0.0,0.0,0.0,0.0,0.0,0.0,0.0,0.0,0.0,0.0,0.0,0.0,0.0,0.0,0.0,0.0,0.0,-8.4769,-8.9602,-8.7129,-8.6455,-8.8006,-8.2172,-7.6663,0.0,0.0,0.0,0.0,0.0,0.0,0.0,0.0,0.0,0.0,0.0,0.0,0.0,0.0,0.0,0.0,0.0,0.0,0.0,0.0,0.0,0.0,0.0,0.0,0.0,0.0,0.0,0.0,0.0,0.0,0.0,0.0,0.0,0.0,0.0,0.0,0.0,0.0,0.0,0.0,0.0,0.0,0.0,0.0,0.0,0.0,0.0,0.0,0.0,0.0,0.0,0.0,0.0,0.0,0.0,0.0,0.0,0.0,0.0,0.0,0.0,0.0,0.0,0.0,0.0,0.0,0.0,0.0,0.0,0.0,0.0,0.0,0.0,0.0,0.0,0.0,0.0,0.0,0.0,0.0,0.0,0.0,0.0,0.0,0.0,0.0,0.0,0.0,0.0,0.0,0.0,0.0,0.0,0.0,0.0,0.0,0.0,0.0,0.0,0.0,0.0,0.0,0.0,0.0,0.0,0.0,0.0,0.0,-8.4291,-8.6919,-8.6408,-8.5707,-8.4883,-7.9063,-7.438,0.0,0.0,0.0,0.0,0.0,0.0,0.0,0.0,0.0,0.0,0.0,0.0,0.0,0.0,0.0,0.0,0.0,0.0,0.0,0.0,0.0,0.0,0.0,0.0,0.0,0.0,0.0,0.0,0.0,0.0,0.0,0.0,0.0,0.0,0.0,0.0,0.0,0.0,0.0,0.0,0.0,0.0,0.0,0.0,0.0,0.0,0.0,0.0,0.0,0.0,0.0,0.0,0.0,0.0,0.0,0.0,0.0,0.0,0.0,0.0,0.0,0.0,0.0,0.0,0.0,0.0,0.0,0.0,0.0,0.0,0.0,0.0,0.0,0.0,0.0,0.0,0.0,0.0,0.0,0.0,0.0,0.0,0.0,0.0,0.0,0.0,0.0,0.0,0.0,0.0,0.0,0.0,0.0,0.0,0.0,0.0,0.0,0.0,0.0,0.0,0.0,0.0,0.0,0.0,0.0,0.0,0.0,0.0,0.0,-8.4477,-8.4854,-8.3722,-8.0908,-7.6297,-7.2842,0.0,0.0,0.0,0.0,0.0,0.0,0.0,0.0,0.0,0.0,0.0,0.0,0.0,0.0,0.0,0.0,0.0,0.0,0.0,0.0,0.0,0.0,0.0,0.0,0.0,0.0,0.0,0.0,0.0,0.0,0.0,0.0,0.0,0.0,0.0,0.0,0.0,0.0,0.0,0.0,0.0,0.0,0.0,0.0,0.0,0.0,0.0,0.0,0.0,0.0,0.0,0.0,0.0,0.0,0.0,0.0,0.0,0.0,0.0,0.0,0.0,0.0,0.0,0.0,0.0,0.0,0.0,0.0,0.0,0.0,0.0,0.0,0.0,0.0,0.0,0.0,0.0,0.0,0.0,0.0,0.0,0.0,0.0,0.0,0.0,0.0,0.0,0.0,0.0,0.0,0.0,0.0,0.0,0.0,0.0,0.0,0.0,0.0,0.0,0.0,0.0,0.0,0.0,0.0,0.0,0.0,0.0,0.0,0.0,-8.3453,-8.1217,-7.9071,-7.7051,-7.5135,-7.28,0.0,0.0,0.0,0.0,0.0,0.0,0.0,0.0,0.0,0.0,0.0,0.0,0.0,0.0,0.0,0.0,0.0,0.0,0.0,0.0,0.0,0.0,0.0,0.0,0.0,0.0,0.0,0.0,0.0,0.0,0.0,0.0,0.0,0.0,0.0,0.0,0.0,0.0,0.0,0.0,0.0,0.0,0.0,0.0,0.0,0.0,0.0,0.0,0.0,0.0,0.0,0.0,0.0,0.0,0.0,0.0,0.0,0.0,0.0,0.0,0.0,0.0,0.0,0.0,0.0,0.0,0.0,0.0,0.0,0.0,0.0,0.0,0.0,0.0,0.0,0.0,0.0,0.0,0.0,0.0,0.0,0.0,0.0,0.0,0.0,0.0,0.0,0.0,0.0,0.0,0.0,0.0,0.0,0.0,0.0,0.0,0.0,0.0,0.0,0.0,0.0,0.0,0.0,0.0,0.0,0.0,0.0,0.0,0.0,-7.9906,-7.8175,-7.679,-7.591,-7.3639,-7.1446,-6.9448,0.0,0.0,0.0,0.0,0.0,0.0,0.0,0.0,0.0,0.0,0.0,0.0,0.0,0.0,0.0,0.0,0.0,0.0,0.0,0.0,0.0,0.0,0.0,0.0,0.0,0.0,0.0,0.0,0.0,0.0,0.0,0.0,0.0,0.0,0.0,0.0,0.0,0.0,0.0,0.0,0.0,0.0,0.0,0.0,0.0,0.0,0.0,0.0,0.0,0.0,0.0,0.0,0.0,0.0,0.0,0.0,0.0,0.0,0.0,0.0,0.0,0.0,0.0,0.0,0.0,0.0,0.0,0.0,0.0,0.0,0.0,0.0,0.0,0.0,0.0,0.0,0.0,0.0,0.0,0.0,0.0,0.0,0.0,0.0,0.0,0.0,0.0,0.0,0.0,0.0,0.0,0.0,0.0,0.0,0.0,0.0,0.0,0.0,0.0,0.0,0.0,0.0,0.0,0.0,0.0,0.0,0.0,0.0,-7.7467,-7.6335,-7.5537,-7.4931,-7.2584,-7.0623,0.0,0.0,0.0,0.0,0.0,0.0,0.0,0.0,0.0,0.0,0.0,0.0,0.0,0.0,0.0,0.0,0.0,0.0,0.0,0.0,0.0,0.0,0.0,0.0,0.0,0.0,0.0,0.0,0.0,0.0,0.0,0.0,0.0,0.0,0.0,0.0,0.0,0.0,0.0,0.0,0.0,0.0,0.0,0.0,0.0,0.0,0.0,0.0,0.0,0.0,0.0,0.0,0.0,0.0,0.0,0.0,0.0,0.0,0.0,0.0,0.0,0.0,0.0,0.0,0.0,0.0,0.0,0.0,0.0,0.0,0.0,0.0,0.0,0.0,0.0,0.0,0.0,0.0,0.0,0.0,0.0,0.0,0.0,0.0,0.0,0.0,0.0,0.0,0.0,0.0,0.0,0.0,0.0,0.0,0.0,0.0,0.0,0.0,0.0,0.0,0.0,0.0,0.0,0.0,0.0,0.0,0.0,0.0,-7.6423,-7.6423,-7.6045,-7.5247,-7.3902,-7.2291,-7.0673,0.0,0.0,0.0,0.0,0.0,0.0,0.0,0.0,0.0,0.0,0.0,0.0,0.0,0.0,0.0,0.0,0.0,0.0,0.0,0.0,0.0,0.0,0.0,0.0,0.0,0.0,0.0,0.0,0.0,0.0,0.0,0.0,0.0,0.0,0.0,0.0,0.0,0.0,0.0,0.0,0.0,0.0,0.0,0.0,0.0,0.0,0.0,0.0,0.0,0.0,0.0,0.0,0.0,0.0,0.0,0.0,0.0,0.0,0.0,0.0,0.0,0.0,0.0,0.0,0.0,0.0,0.0,0.0,0.0,0.0,0.0,0.0,0.0,0.0,0.0,0.0,0.0,0.0,0.0,0.0,0.0,0.0,0.0,0.0,0.0,0.0,0.0,0.0,0.0,0.0,0.0,0.0,0.0,0.0,0.0,0.0,0.0,0.0,0.0,0.0,0.0,0.0,0.0,0.0,0.0,0.0,0.0,0.0,0.0,-7.663,0.0,-7.5057,-7.2744,-7.218,-7.0719,0.0,0.0,0.0,0.0,0.0,0.0,0.0,0.0,0.0,0.0,0.0,0.0,0.0,0.0,0.0,0.0,0.0,0.0,0.0,0.0,0.0,0.0,0.0,0.0,0.0,0.0,0.0,0.0,0.0,0.0,0.0,0.0,0.0,0.0,0.0,0.0,0.0,0.0,0.0,0.0,0.0,0.0,0.0,0.0,0.0,0.0,0.0,0.0,0.0,0.0,0.0,0.0,0.0,0.0,0.0,0.0,0.0,0.0,0.0,0.0,0.0,0.0,0.0,0.0,0.0,0.0,0.0,0.0,0.0,0.0,0.0,0.0,0.0,0.0,0.0,0.0,0.0,0.0,0.0,0.0,0.0,0.0,0.0,0.0,0.0,0.0,0.0,0.0,0.0,0.0,0.0,0.0,0.0,0.0,0.0,0.0,0.0,0.0,0.0,0.0,0.0,0.0,0.0,0.0,0.0,0.0,0.0,0.0,0.0,-7.6784,-7.663,-7.5171,-7.2314,-7.2121,-7.0768,0.0,0.0,0.0,0.0,0.0,0.0,0.0,0.0,0.0,0.0,0.0,0.0,0.0,0.0,0.0,0.0,0.0,0.0,0.0,0.0,0.0,0.0,0.0,0.0,0.0,0.0,0.0,0.0,0.0,0.0,0.0,0.0,0.0,0.0,0.0,0.0,0.0,0.0,0.0,0.0,0.0,0.0,0.0,0.0,0.0,0.0,0.0,0.0,0.0,0.0,0.0,0.0,0.0,0.0,0.0,0.0,0.0,0.0,0.0,0.0,0.0,0.0,0.0,0.0,0.0,0.0,0.0,0.0,0.0,0.0,0.0,0.0,0.0,0.0,0.0,0.0,0.0,0.0,0.0,0.0,0.0,0.0,0.0,0.0,0.0,0.0,0.0,0.0,0.0,0.0,0.0,0.0,0.0,0.0,0.0,0.0,0.0,0.0,0.0,0.0,0.0,0.0,0.0,0.0,0.0,0.0,0.0,0.0,0.0,-7.6835,-7.6771,-7.5259,-7.2378,-7.2121,-7.0704,0.0,0.0,0.0,0.0,0.0,0.0,0.0,0.0,0.0,0.0,0.0,0.0,0.0,0.0,0.0,0.0,0.0,0.0,0.0,0.0,0.0,0.0,0.0,0.0,0.0,0.0,0.0,0.0,0.0,0.0,0.0,0.0,0.0,0.0,0.0,0.0,0.0,0.0,0.0,0.0,0.0,0.0,0.0,0.0,0.0,0.0,0.0,0.0,0.0,0.0,0.0,0.0,0.0,0.0,0.0,0.0,0.0,0.0,0.0,0.0,0.0,0.0,0.0,0.0,0.0,0.0,0.0,0.0,0.0,0.0,0.0,0.0,0.0,0.0,0.0,0.0,0.0,0.0,0.0,0.0,0.0,0.0,0.0,0.0,0.0,0.0,0.0,0.0,0.0,0.0,0.0,0.0,0.0,0.0,0.0,0.0,0.0,0.0,0.0,0.0,0.0,0.0,0.0,0.0,0.0,0.0,0.0,0.0,0.0,0.0,-7.615,-7.4991,-7.3901,-7.1767,-6.9738,-6.7871,0.0,0.0,0.0,0.0,0.0,0.0,0.0,0.0,0.0,0.0,0.0,0.0,0.0,0.0,0.0,0.0,0.0,0.0,0.0,0.0,0.0,0.0,0.0,0.0,0.0,0.0,0.0,0.0,0.0,0.0,0.0,0.0,0.0,0.0,0.0,0.0,0.0,0.0,0.0,0.0,0.0,0.0,0.0,0.0,0.0,0.0,0.0,0.0,0.0,0.0,0.0,0.0,0.0,0.0,0.0,0.0,0.0,0.0,0.0,0.0,0.0,0.0,0.0,0.0,0.0,0.0,0.0,0.0,0.0,0.0,0.0,0.0,0.0,0.0,0.0,0.0,0.0,0.0,0.0,0.0,0.0,0.0,0.0,0.0,0.0,0.0,0.0,0.0,0.0,0.0,0.0,0.0,0.0,0.0,0.0,0.0,0.0,0.0,0.0,0.0,0.0,0.0,0.0,0.0,0.0,0.0,0.0,0.0,0.0,0.0,-7.4181,-7.3954,-7.154,-6.9587,0.0,0.0,0.0,0.0,0.0,0.0,0.0,0.0,0.0,0.0,0.0,0.0,0.0,0.0,0.0,0.0,0.0,0.0,0.0,0.0,0.0,0.0,0.0,0.0,0.0,0.0,0.0,0.0,0.0,0.0,0.0,0.0,0.0,0.0,0.0,0.0,0.0,0.0,0.0,0.0,0.0,0.0,0.0,0.0,0.0,0.0,0.0,0.0,0.0,0.0,0.0,0.0,0.0,0.0,0.0,0.0,0.0,0.0,0.0,0.0,0.0,0.0,0.0,0.0,0.0,0.0,0.0,0.0,0.0,0.0,0.0,0.0,0.0,0.0,0.0,0.0,0.0,0.0,0.0,0.0,0.0,0.0,0.0,0.0,0.0,0.0,0.0,0.0,0.0,0.0,0.0,0.0,0.0,0.0,0.0,0.0,0.0,0.0,0.0,0.0,0.0,0.0,0.0,0.0,0.0,0.0,0.0,0.0,0.0,0.0,0.0,-7.2985,-7.2701,-7.1334,0.0,-6.8284,0.0,0.0,0.0,0.0,0.0,0.0,0.0,0.0,0.0,0.0,0.0,0.0,0.0,0.0,0.0,0.0,0.0,0.0,0.0,0.0,0.0,0.0,0.0,0.0,0.0,0.0,0.0,0.0,0.0,0.0,0.0,0.0,0.0,0.0,0.0,0.0,0.0,0.0,0.0,0.0,0.0,0.0,0.0,0.0,0.0,0.0,0.0,0.0,0.0,0.0,0.0,0.0,0.0,0.0,0.0,0.0,0.0,0.0,0.0,0.0,0.0,0.0,0.0,0.0,0.0,0.0,0.0,0.0,0.0,0.0,0.0,0.0,0.0,0.0,0.0,0.0,0.0,0.0,0.0,0.0,0.0,0.0,0.0,0.0,0.0,0.0,0.0,0.0,0.0,0.0,0.0,0.0,0.0,0.0,0.0,0.0,0.0,0.0,0.0,0.0,0.0,0.0,0.0,0.0,0.0,0.0,0.0,0.0,0.0,0.0,0.0,0.0,-7.011,-6.9106,-6.849,0.0,0.0,0.0,0.0,0.0,0.0,0.0,0.0,0.0,0.0,0.0,0.0,0.0,0.0,0.0,0.0,0.0,0.0,0.0,0.0,0.0,0.0,0.0,0.0,0.0,0.0,0.0,0.0,0.0,0.0,0.0,0.0,0.0,0.0,0.0,0.0,0.0,0.0,0.0,0.0,0.0,0.0,0.0,0.0,0.0,0.0,0.0,0.0,0.0,0.0,0.0,0.0,0.0,0.0,0.0,0.0,0.0,0.0,0.0,0.0,0.0,0.0,0.0,0.0,0.0,0.0,0.0,0.0,0.0,0.0,0.0,0.0,0.0,0.0,0.0,0.0,0.0,0.0,0.0,0.0,0.0,0.0,0.0,0.0,0.0,0.0,0.0,0.0,0.0,0.0,0.0,0.0,0.0,0.0,0.0,0.0,0.0,0.0,0.0,0.0,0.0,0.0,0.0,0.0,0.0,0.0,0.0,0.0,0.0,0.0,-7.0338,-7.0249,-6.9528,-6.8674,-6.7801,0.0,0.0,0.0,0.0,0.0,0.0,0.0,0.0,0.0,0.0,0.0,0.0,0.0,0.0,0.0,0.0,0.0,0.0,0.0,0.0,0.0,0.0,0.0,0.0,0.0,0.0,0.0,0.0,0.0,0.0,0.0,0.0,0.0,0.0,0.0,0.0,0.0,0.0,0.0,0.0,0.0,0.0,0.0,0.0,0.0,0.0,0.0,0.0,0.0,0.0,0.0,0.0,0.0,0.0,0.0,0.0,0.0,0.0,0.0,0.0,0.0,0.0,0.0,0.0,0.0,0.0,0.0,0.0,0.0,0.0,0.0,0.0,0.0,0.0,0.0,0.0,0.0,0.0,0.0,0.0,0.0,0.0,0.0,0.0,0.0,0.0,0.0,0.0,0.0,0.0,0.0,0.0,0.0,0.0,0.0,0.0,0.0,0.0,0.0,0.0,0.0,0.0,0.0,0.0,0.0,0.0,0.0,0.0,0.0,0.0,0.0,0.0,0.0,0.0,-6.6819,0.0,0.0,0.0,0.0,0.0,0.0,0.0,0.0,0.0,0.0,0.0,0.0,0.0,0.0,0.0,0.0,0.0,0.0,0.0,0.0,0.0,0.0,0.0,0.0,0.0,0.0,0.0,0.0,0.0,0.0,0.0,0.0,0.0,0.0,0.0,0.0,0.0,0.0,0.0,0.0,0.0,0.0,0.0,0.0,0.0,0.0,0.0,0.0,0.0,0.0,0.0,0.0,0.0,0.0,0.0,0.0,0.0,0.0,0.0,0.0,0.0,0.0,0.0,0.0,0.0,0.0,0.0,0.0,0.0,0.0,0.0,0.0,0.0,0.0,0.0,0.0,0.0,0.0,0.0,0.0,0.0,0.0,0.0,0.0,0.0,0.0,0.0,0.0,0.0,0.0,0.0,0.0,0.0,0.0,0.0,0.0,0.0,0.0,0.0,0.0,0.0,0.0,0.0,0.0,0.0,0.0,0.0,0.0,0.0,0.0,0.0,0.0,0.0,0.0,0.0,0.0,0.0,0.0,0.0,0.0,0.0,0.0,0.0,0.0,0.0,0.0,0.0,0.0,0.0,0.0,0.0,0.0,0.0,0.0,0.0,0.0,0.0,0.0,0.0,0.0,0.0,0.0,0.0,0.0,0.0,0.0,0.0,0.0,0.0,0.0,0.0,0.0,0.0,0.0,0.0,0.0,0.0,0.0,0.0,0.0,0.0,0.0,0.0,0.0,0.0,0.0,0.0,0.0,0.0,0.0,0.0,0.0,0.0,0.0,0.0,0.0,0.0,0.0,0.0,0.0,0.0,0.0,0.0,0.0,0.0,0.0,0.0,0.0,0.0,0.0,0.0,0.0,0.0,0.0,0.0,0.0,0.0,0.0,0.0,0.0,0.0,0.0,0.0,0.0,0.0,0.0,0.0,0.0,0.0,0.0,0.0,0.0,0.0,0.0,0.0,0.0,0.0,0.0,0.0,0.0,0.0,0.0,0.0,0.0,0.0,0.0,0.0,0.0,0.0,0.0,0.0,0.0,0.0,0.0,0.0,0.0,0.0,0.0,0.0,0.0,0.0,0.0,0.0,0.0,0.0,0.0,0.0,0.0,0.0,0.0,0.0,0.0,0.0,0.0,0.0,0.0,0.0,0.0,0.0,0.0,0.0,0.0,0.0,0.0,0.0,0.0,0.0,0.0,0.0,0.0,0.0,0.0,0.0,0.0,0.0,0.0,0.0,0.0,0.0,0.0,0.0,0.0,0.0,0.0,0.0,0.0,0.0,0.0,0.0,0.0,0.0,0.0,0.0,0.0,0.0,0.0,0.0,0.0,0.0,0.0,0.0,0.0,0.0,0.0,0.0,0.0,0.0,0.0,0.0,0.0,0.0,0.0,0.0,0.0,0.0,0.0,0.0,0.0,0.0,0.0,0.0,0.0,0.0,0.0,0.0,0.0,0.0,0.0,0.0,0.0,0.0,0.0,0.0,0.0,0.0,0.0,0.0,0.0,0.0,0.0,0.0,0.0,0.0,0.0,0.0,0.0,0.0,0.0,0.0,0.0,0.0,0.0,0.0,0.0,0.0,0.0,0.0,0.0,0.0,0.0,0.0,0.0,0.0,0.0,0.0,0.0,0.0,0.0,0.0,0.0,0.0,0.0,0.0,0.0,0.0,0.0,0.0,0.0,0.0,0.0,0.0,0.0,0.0,0.0,0.0,0.0,0.0,0.0,0.0,0.0,0.0,0.0,0.0,0.0,0.0,0.0,0.0,0.0,0.0,0.0,0.0,0.0,0.0,0.0,0.0,0.0,0.0,0.0,0.0,0.0,0.0,0.0,0.0,0.0,0.0,0.0,0.0,0.0,0.0,0.0,0.0,0.0,0.0,0.0,0.0,0.0,0.0,0.0,0.0,0.0,0.0,0.0,0.0,0.0,0.0,0.0,0.0,0.0,0.0,0.0,0.0,0.0,0.0,0.0,0.0,0.0,0.0,0.0,0.0,0.0,0.0,0.0,0.0,0.0,0.0,0.0,0.0,0.0,0.0,0.0,0.0,0.0,0.0,0.0,0.0,0.0,0.0,0.0,0.0,0.0,0.0,0.0,0.0,0.0,0.0,0.0,0.0,0.0,0.0,0.0,0.0,0.0,0.0,0.0,0.0,0.0,0.0,0.0,0.0,0.0,0.0,0.0,0.0,0.0,0.0,0.0,0.0,0.0,0.0,0.0,0.0,0.0,0.0,0.0,0.0,0.0,0.0,0.0,0.0,0.0,0.0,0.0,0.0,0.0,0.0,0.0,0.0,0.0,0.0,0.0,0.0,0.0,0.0,0.0,0.0,0.0,0.0,0.0,0.0,0.0,0.0,0.0,0.0,0.0,0.0,0.0,0.0,0.0,0.0,0.0,0.0,0.0,0.0,0.0,0.0,0.0,0.0,0.0,0.0,0.0,0.0,0.0,0.0,0.0,0.0,0.0,0.0,0.0,0.0,0.0,0.0,0.0,0.0,0.0,0.0,0.0,0.0,0.0,0.0,0.0,0.0,0.0,0.0,0.0,0.0,0.0,0.0,0.0,0.0,0.0,0.0,0.0,0.0,0.0,0.0,0.0,0.0,0.0,0.0,0.0,0.0,0.0,0.0,0.0,0.0,0.0,0.0,0.0,0.0,0.0,0.0,0.0,0.0,0.0,0.0,0.0,0.0,0.0,0.0,0.0,0.0,0.0,0.0,0.0,0.0,0.0,0.0,0.0,0.0,0.0,0.0,0.0,0.0,0.0,0.0,0.0,0.0,0.0,0.0,0.0,0.0,0.0,0.0,0.0,0.0,0.0,0.0,0.0,0.0,0.0,0.0,0.0,0.0,0.0,0.0,0.0,0.0,0.0,0.0,0.0,0.0,0.0,0.0,0.0,0.0,0.0,0.0,0.0,0.0,0.0,0.0,0.0,0.0,0.0,0.0,0.0,0.0,0.0,0.0,0.0,0.0,0.0,0.0,0.0,0.0,0.0,0.0,0.0,0.0,0.0,0.0,0.0,0.0,0.0,0.0,0.0,0.0,0.0,0.0,0.0,0.0,0.0,0.0,0.0,0.0,0.0,0.0,0.0,0.0,0.0,0.0,0.0,0.0,0.0,0.0,0.0,0.0,0.0,0.0,0.0,0.0,0.0,0.0,0.0,0.0,0.0,0.0,0.0,0.0,0.0,0.0,0.0,0.0,0.0,0.0,0.0,0.0,0.0,0.0,0.0,0.0,0.0,0.0,0.0,0.0,0.0,0.0,0.0,0.0,0.0,0.0,0.0,0.0,0.0,0.0,0.0,0.0,0.0,0.0,0.0,0.0,0.0,0.0,0.0,0.0,0.0,0.0,0.0,0.0,0.0,0.0,0.0,0.0,0.0,0.0,0.0,0.0,0.0,0.0,0.0,0.0,0.0,0.0,0.0,0.0,0.0,0.0,0.0,0.0,0.0,0.0,0.0,0.0,0.0,0.0,0.0,0.0,0.0,0.0,0.0,0.0,0.0,0.0,0.0,0.0,0.0,0.0,0.0,0.0,0.0,0.0,0.0,0.0,0.0,0.0,0.0,0.0,0.0,0.0,0.0,0.0,0.0,0.0,0.0,0.0,0.0,0.0,0.0,0.0,0.0,0.0,0.0,0.0,0.0,0.0,0.0,0.0,0.0,0.0,0.0,0.0,0.0,0.0,0.0,0.0,0.0,0.0,0.0,0.0,0.0,0.0,0.0,0.0,0.0,0.0,0.0,0.0,0.0,0.0,0.0,0.0,0.0,0.0,0.0,0.0,0.0,0.0,0.0,0.0,0.0,0.0,0.0,0.0,0.0,0.0,0.0,0.0,0.0,0.0,0.0,0.0,0.0,0.0,0.0,0.0,0.0,0.0,0.0,0.0,0.0,0.0,0.0,0.0,0.0,0.0,0.0,0.0,0.0,0.0,0.0,0.0,0.0,0.0,0.0,0.0,0.0,0.0,0.0,0.0,0.0,0.0,0.0,0.0,0.0,0.0,0.0,0.0,0.0,0.0,0.0,0.0,0.0,0.0,0.0,0.0,0.0,0.0,0.0,0.0,0.0,0.0,0.0,0.0,0.0,0.0,0.0,0.0,0.0,0.0,0.0,0.0,0.0,0.0,0.0,0.0,0.0,0.0,0.0,0.0,0.0,0.0,0.0,0.0,0.0,0.0,0.0,0.0,0.0,0.0,0.0,0.0,0.0,0.0,0.0,0.0,0.0,0.0,0.0,0.0,0.0,0.0,0.0,0.0,0.0,0.0,0.0,0.0,0.0,0.0,0.0,0.0,0.0,0.0,0.0,0.0,0.0,0.0,0.0,0.0,0.0,0.0,0.0,0.0,0.0,0.0,0.0,0.0,0.0]}],[{"header":{"parameterUnit":"kt","parameterCategory":2,"dx":1,"dy":1,"la1":29.587661999999998,"la2":31.0,"lo1":-88.76705300000003,"lo2":-86.6583820000003,"nx":115,"ny":88,"refTime":"2022-10-24T06:00:00:Z","depth":0,"parameterNumber":2,"parameterNumberName":"V-component_of_WINDS"},"data":[12.1563,12.2051,12.1645,12.1997,12.3069,12.4311,12.4819,12.4988,12.5891,12.6342,12.6342,12.6342,12.6342,12.6342,12.6342,12.6466,12.659,12.6466,12.6466,12.6342,12.659,12.6904,12.7396,12.8186,12.9035,12.9637,13.0116,13.0235,12.9944,12.8199,12.7385,12.814,12.5874,12.599,12.7371,12.7768,12.8109,12.8449,12.8915,12.8868,12.8402,12.7371,12.5755,12.5526,12.5526,12.5351,12.5698,12.7211,12.7967,12.8607,12.9188,12.9595,12.8781,12.7327,12.6105,12.5117,12.3837,12.2848,12.2728,12.2728,12.2728,12.2728,12.2728,12.2728,12.2728,12.2728,12.2728,12.2728,12.2034,12.2034,12.1452,12.0521,11.9416,11.7671,11.645,11.5461,11.4879,11.4879,11.4879,11.4879,11.4879,11.4879,11.4879,11.4879,11.4879,11.4879,11.4879,11.4879,11.4879,11.5089,11.5357,11.5775,11.6293,11.7116,11.7728,11.6809,11.6293,11.6086,11.5612,11.5194,11.4879,11.4879,11.4879,11.4879,11.4879,11.4879,11.4879,11.4879,11.4879,11.4879,11.4879,11.5567,11.7847,11.9894,12.1633,12.3589,12.3273,12.3662,12.4085,12.4424,12.5552,12.606,12.606,12.6229,12.6342,12.6342,12.6342,12.6342,12.6342,12.6342,12.6342,12.6466,12.6466,12.6466,12.6466,12.6466,12.7027,12.7519,12.8065,12.8794,12.9397,12.9997,13.0235,13.0177,12.8781,12.7909,12.8024,12.7613,12.7025,12.7364,12.7758,12.7792,12.7843,12.7678,12.7569,12.6834,12.6096,12.5464,12.5642,12.5991,12.6164,12.6629,12.7385,12.8141,12.849,12.8607,12.8723,12.785,12.6338,12.5349,12.4593,12.3372,12.279,12.2728,12.2728,12.2728,12.2728,12.2728,12.2728,12.2728,12.2728,12.2728,12.2208,12.1336,12.0812,12.0114,11.9242,11.8078,11.6741,11.5868,11.4937,11.4879,11.4879,11.4879,11.4879,11.4879,11.4879,11.4879,11.4879,11.4879,11.4879,11.4879,11.4879,11.4879,11.5089,11.5357,11.5879,11.619,11.6397,11.6868,11.6397,11.5924,11.5716,11.5508,11.5089,11.4879,11.4879,11.4879,11.4879,11.4879,11.4879,11.4879,11.4879,11.4879,11.4879,11.4996,11.545,11.7565,11.9387,12.1301,12.4367,12.3497,12.4113,12.4875,12.5552,12.606,12.6342,12.6342,12.6342,12.6342,12.6342,12.6342,12.6342,12.6342,12.6342,12.6342,12.6466,12.6657,12.6781,12.7027,12.733,12.7575,12.8065,12.8551,12.9035,12.9397,12.9877,13.0177,13.0003,12.9072,12.8316,12.8082,12.6916,12.6212,12.6661,12.5948,12.5695,12.6128,12.5638,12.4727,12.3235,12.3721,12.4019,12.4657,12.541,12.6862,12.7501,12.8607,12.8781,12.849,12.8258,12.8025,12.6862,12.5349,12.4535,12.4011,12.3372,12.2728,12.2728,12.2728,12.2728,12.2728,12.2728,12.2728,12.2728,12.2728,12.2728,12.2208,12.1336,12.0521,11.9765,11.8195,11.6973,11.6333,11.5577,11.4996,11.4879,11.4879,11.4879,11.4879,11.4879,11.4879,11.4879,11.4879,11.4879,11.4879,11.4879,11.4879,11.4879,11.4984,11.5299,11.5775,11.582,11.6086,11.619,11.5983,11.5612,11.5403,11.5299,11.4984,11.4879,11.4879,11.4879,11.4879,11.4879,11.4879,11.4879,11.4879,11.4879,11.4879,11.5054,11.5228,11.6886,11.8656,11.9846,12.4753,12.4136,12.4686,12.5439,12.6286,12.6342,12.6342,12.6342,12.6342,12.6342,12.6342,12.6342,12.6342,12.6466,12.6533,12.6714,12.6837,12.7273,12.7519,12.7641,12.7943,12.8186,12.8673,12.8915,12.9277,12.9637,12.9877,13.0177,13.0061,12.9479,12.8781,12.8547,12.7371,12.678,12.6933,12.5688,12.4919,12.4781,12.3835,12.2368,12.1116,12.1593,12.252,12.3385,12.4831,12.6687,12.756,12.8781,12.8723,12.8141,12.7909,12.7152,12.5989,12.4651,12.407,12.3837,12.3081,12.2844,12.2728,12.2728,12.2728,12.2728,12.2728,12.2728,12.2728,12.2728,12.2553,12.2034,12.1452,12.0638,11.9591,11.7729,11.6159,11.5868,11.5461,11.517,11.4879,11.4879,11.4879,11.4879,11.4879,11.4879,11.4879,11.4879,11.4879,11.4879,11.4879,11.4879,11.4879,11.4879,11.5299,11.5403,11.5508,11.5612,11.5775,11.567,11.5403,11.5194,11.5089,11.4984,11.4879,11.4879,11.4879,11.4879,11.4879,11.4879,11.4879,11.4879,11.4879,11.4879,11.4996,11.5112,11.643,11.7527,11.8442,12.509,12.5992,12.6173,12.6173,12.6342,12.6342,12.6342,12.6342,12.6466,12.6342,12.6466,12.6466,12.6466,12.6714,12.7027,12.733,12.7396,12.7943,12.8186,12.8186,12.8551,12.8794,12.9156,12.9277,12.9637,12.9997,13.0235,13.0235,13.0177,12.9944,12.977,13.0061,12.8459,12.7741,12.7493,12.6241,12.4894,12.4085,12.2512,12.1111,12.0209,12.0337,12.1432,12.281,12.4658,12.6513,12.692,12.7385,12.785,12.7036,12.628,12.5873,12.4709,12.3546,12.3081,12.2844,12.279,12.2728,12.2728,12.2728,12.2728,12.2728,12.2728,12.2728,12.2728,12.2728,12.2728,12.2436,12.0638,11.9649,11.8776,11.7148,11.5926,11.5345,11.517,11.5054,11.4879,11.4879,11.4879,11.4879,11.4879,11.4879,11.4879,11.4879,11.4879,11.4879,11.4879,11.4879,11.4879,11.4879,11.4984,11.4984,11.5089,11.5194,11.5299,11.5299,11.5089,11.4984,11.4984,11.4879,11.4879,11.4879,11.4879,11.4879,11.4879,11.4879,11.4879,11.4879,11.4879,11.4879,11.4937,11.4996,11.5461,11.644,11.7469,12.5214,12.6286,12.6342,12.6342,12.6342,12.6342,12.659,12.6904,12.6904,12.715,12.7453,12.7453,12.7575,12.7575,12.782,12.7943,12.7885,12.8551,12.8915,12.9035,12.9397,12.9517,12.9699,12.9877,12.9938,13.0116,13.0235,13.0235,13.0177,13.0235,13.0235,13.0116,12.8915,12.843,12.7714,12.6468,12.4828,12.3464,12.2343,12.0993,12.0386,12.0342,12.1661,12.3157,12.431,12.5583,12.6396,12.6745,12.6454,12.5466,12.5233,12.4593,12.343,12.2964,12.2728,12.2728,12.2728,12.2728,12.2728,12.2728,12.2728,12.2728,12.2728,12.2728,12.2728,12.2728,12.2728,12.2266,12.0347,11.8602,11.7671,11.6741,11.581,11.4937,11.4879,11.4879,11.4879,11.4879,11.4879,11.4879,11.4879,11.4879,11.4879,11.4879,11.4879,11.4879,11.4879,11.4879,11.4879,11.4879,11.4879,11.4879,11.4879,11.4879,11.4879,11.4984,11.4984,11.4984,11.4879,11.4879,11.4879,11.4879,11.4879,11.4879,11.4879,11.4879,11.4879,11.4879,11.4879,11.4879,11.4937,11.4937,11.5228,11.5926,11.6731,12.4649,12.5778,12.6173,12.6342,12.6342,12.6342,12.6714,12.7273,12.7575,12.782,12.8366,12.8308,12.8186,12.8308,12.8551,12.8551,12.8794,12.9156,12.9397,12.9637,12.9877,13.0116,13.0235,13.0116,13.0235,13.0235,13.0235,13.0235,13.0235,13.0235,13.0235,13.0116,12.9156,12.8551,12.7664,12.6079,12.4821,12.3622,12.2884,12.1586,12.0683,12.0744,12.1546,12.2868,12.3902,12.4421,12.5117,12.5466,12.5117,12.4186,12.3953,12.3662,12.2728,12.2728,12.2728,12.2728,12.2728,12.2728,12.2728,12.2728,12.2728,12.2728,12.2728,12.2728,12.2728,12.2728,12.2728,12.2034,12.0754,11.9416,11.8369,11.709,11.5926,11.5228,11.4879,11.4879,11.4879,11.4879,11.4879,11.4879,11.4879,11.4879,11.4879,11.4879,11.4879,11.4879,11.4879,11.4879,11.4879,11.4879,11.4879,11.4879,11.4879,11.4879,11.4879,11.4879,11.4879,11.4879,11.4879,11.4879,11.4879,11.4879,11.4879,11.4879,11.4879,11.4879,11.4879,11.4879,11.4879,11.4879,11.4879,11.4879,11.4996,11.5519,11.6265,12.3408,12.4649,12.5834,12.6342,12.6342,12.6466,12.6781,12.7396,12.7943,12.8308,12.8308,12.843,12.8551,12.8551,12.9035,12.9277,12.9339,12.9877,12.9997,13.0116,13.0235,13.0235,13.0235,13.0235,13.0235,13.0235,13.0235,13.0235,13.0235,13.0235,13.0235,12.9997,12.9517,12.8915,12.8149,12.6927,12.5548,12.411,12.3196,12.1943,12.1145,12.1201,12.1773,12.2402,12.3264,12.3721,12.3779,12.3953,12.3721,12.3313,12.279,12.2674,12.2615,12.2728,12.2728,12.2728,12.2728,12.2728,12.2728,12.2728,12.2728,12.2728,12.2728,12.2728,12.2728,12.2728,12.2728,12.2092,12.1219,12.0056,11.8893,11.7497,11.6101,11.5461,11.4937,11.4879,11.4879,11.4879,11.4879,11.4879,11.4879,11.4879,11.4879,11.4879,11.4879,11.4879,11.4879,11.4879,11.4879,11.4879,11.4879,11.4879,11.4879,11.4879,11.4879,11.4879,11.4879,11.4879,11.4879,11.4879,11.4879,11.4879,11.4879,11.4879,11.4879,11.4879,11.4879,11.4879,11.4879,11.4879,11.4879,11.4879,11.4879,11.5345,11.5577,12.3351,12.447,12.5834,12.6342,12.6466,12.6781,12.7027,12.7519,12.843,12.9156,12.9517,12.9517,12.9517,12.9637,12.9757,12.9877,12.9877,13.0116,13.0235,13.0235,13.0235,13.0235,13.0235,13.0235,13.0235,13.0235,13.0235,13.0235,13.0235,13.0235,13.0235,13.0116,12.9637,12.9277,12.8632,12.759,12.6205,12.4762,12.3441,12.2178,12.1718,12.1599,12.1939,12.2452,12.2794,12.3081,12.2848,12.2906,12.3023,12.2848,12.2786,12.2728,12.2728,12.2728,12.2728,12.2728,12.2728,12.2728,12.2728,12.2728,12.2728,12.2728,12.2728,12.2728,12.2728,12.2728,12.2728,12.2208,12.1336,12.0172,11.8835,11.7555,11.6333,11.5228,11.4879,11.4879,11.4879,11.4879,11.4879,11.4879,11.4879,11.4879,11.4879,11.4879,11.4879,11.4879,11.4879,11.4879,11.4879,11.4879,11.4879,11.4879,11.4879,11.4879,11.4879,11.4879,11.4879,11.4879,11.4879,11.4879,11.4879,11.4879,11.4879,11.4879,11.4879,11.4879,11.4879,11.4879,11.4879,11.4879,11.4879,11.4879,11.4879,11.4996,11.5112,12.2731,12.3972,12.5214,12.5721,12.5901,12.6857,12.7396,12.7763,12.8794,12.9637,13.0116,13.0235,13.0235,13.0235,13.0235,13.0235,13.0235,13.0235,13.0235,13.0235,13.0235,13.0235,13.0235,13.0235,13.0235,13.0235,13.0235,13.0235,13.0235,13.0235,13.0235,13.0235,12.9877,12.9637,12.9232,12.7724,12.6623,12.5174,12.3502,12.2522,12.2055,12.2052,12.2278,12.2615,12.2674,12.2786,12.2786,12.2786,12.2844,12.2728,12.2728,12.2728,12.2728,12.2728,12.2728,12.2728,12.2728,12.2728,12.2728,12.2728,12.2728,12.2728,12.2728,12.2728,12.2728,12.2728,12.2325,12.1859,12.151,12.0231,11.8835,11.7555,11.6508,11.5461,11.4879,11.4879,11.4879,11.4879,11.4879,11.4879,11.4879,11.4879,11.4879,11.4879,11.4879,11.4879,11.4879,11.4879,11.4879,11.4879,11.4879,11.4879,11.4879,11.4879,11.4879,11.4879,11.4879,11.4879,11.4879,11.4879,11.4879,11.4879,11.4879,11.4879,11.4879,11.4879,11.4879,11.4879,11.4879,11.4879,11.4879,11.4879,11.4879,11.4879,11.4879,12.1489,12.2674,12.3972,12.4593,12.4828,12.6516,12.782,12.843,12.9035,12.9699,13.0235,13.0235,13.0235,13.0235,13.0235,13.0235,13.0235,13.0235,13.0235,13.0235,13.0235,13.0235,13.0235,13.0235,13.0235,13.0235,13.0235,13.0235,13.0235,13.0235,13.0235,13.0235,13.0116,13.0116,13.0003,12.7734,12.6455,12.5932,12.3898,12.3026,12.2561,12.2503,12.2503,12.2728,12.2728,12.2728,12.2728,12.2728,12.2728,12.2728,12.2728,12.2728,12.2728,12.2728,12.2728,12.2728,12.2728,12.2728,12.2728,12.2728,12.2728,12.2728,12.2728,12.2553,12.2611,12.2325,12.1976,12.0812,12.1161,12.0114,11.8835,11.7555,11.6624,11.5694,11.5112,11.4879,11.4879,11.4879,11.4879,11.4879,11.4879,11.4879,11.4879,11.4879,11.4879,11.4879,11.4879,11.4879,11.4879,11.4879,11.4879,11.4879,11.4879,11.4879,11.4879,11.4879,11.4879,11.4879,11.4879,11.4879,11.4879,11.4879,11.4879,11.4879,11.4879,11.4879,11.4879,11.4879,11.4879,11.4879,11.4879,11.4879,11.4879,11.4879,11.4879,12.0925,12.1489,12.3577,12.4724,12.5381,12.7128,12.8308,12.9035,12.9637,13.0116,13.0235,13.0235,13.0235,13.0235,13.0235,13.0235,13.0235,13.0235,13.0235,13.0235,13.0235,13.0235,13.0235,13.0235,13.0235,13.0235,13.0235,13.0235,13.0235,13.0235,13.0235,13.0235,13.0235,13.0235,12.9828,12.8548,12.7269,12.628,12.4709,12.3604,12.2732,12.2844,12.2732,12.2674,12.2732,12.2844,12.2728,12.2728,12.2728,12.2728,12.2728,12.2728,12.2728,12.2728,12.2728,12.2728,12.2728,12.2728,12.2728,12.2728,12.2728,12.2669,12.2669,12.2034,12.1568,12.1219,12.0696,11.9649,11.9591,11.9125,11.7439,11.709,11.6508,11.5577,11.4996,11.4879,11.4879,11.4879,11.4879,11.4879,11.4879,11.4879,11.4879,11.4879,11.4879,11.4879,11.4879,11.4879,11.4879,11.4879,11.4879,11.4879,11.4879,11.4879,11.4879,11.4879,11.4879,11.4879,11.4879,11.4879,11.4879,11.4879,11.4879,11.4879,11.4879,11.4879,11.4879,11.4879,11.4879,11.4879,11.4879,11.4879,11.4879,11.4879,11.4879,12.0304,12.0869,12.2336,12.3658,12.4828,12.6806,12.8213,12.9219,12.9997,13.0235,13.0235,13.0235,13.0235,13.0235,13.0235,13.0235,13.0235,13.0235,13.0235,13.0235,13.0235,13.0235,13.0235,13.0235,13.0235,13.0235,13.0235,13.0235,13.0235,13.0235,13.0235,13.0235,13.0235,13.0235,13.0119,12.9421,12.8374,12.7211,12.5873,12.4942,12.4128,12.407,12.3837,12.343,12.3313,12.3139,12.2674,12.2728,12.2728,12.2728,12.2728,12.2728,12.2728,12.2728,12.2728,12.2728,12.2728,12.2728,12.2728,12.2728,12.2728,12.2557,12.2092,12.1336,12.0114,11.994,11.93,11.8718,11.8544,11.8078,11.6682,11.6392,11.6333,11.5345,11.4879,11.4879,11.4879,11.4879,11.4879,11.4879,11.4879,11.4879,11.4879,11.4879,11.4879,11.4879,11.4879,11.4879,11.4879,11.4879,11.4879,11.4879,11.4879,11.4879,11.4879,11.4879,11.4879,11.4879,11.4879,11.4879,11.4879,11.4879,11.4879,11.4879,11.4879,11.4879,11.4879,11.4879,11.4879,11.4879,11.4879,11.4879,11.4879,11.4879,11.4879,11.9571,12.0586,12.0818,12.1965,12.3758,12.5434,12.7413,12.917,12.9764,13.0061,13.0177,13.0235,13.0235,13.0235,13.0235,13.0235,13.0235,13.0235,13.0235,13.0235,13.0235,13.0235,13.0235,13.0235,13.0235,13.0235,13.0235,13.0235,13.0235,13.0235,13.0235,13.0235,13.0235,13.0235,13.0119,13.0003,12.9305,12.8432,12.7152,12.6454,12.599,12.5931,12.5582,12.4768,12.4477,12.4011,12.2848,12.2906,12.2906,12.2728,12.2728,12.2728,12.2728,12.2728,12.2728,12.2728,12.2728,12.2728,12.2728,12.2728,12.2728,12.2266,12.1685,12.0754,11.9358,11.8951,11.8078,11.7031,11.7322,11.6857,11.6159,11.5694,11.581,11.5228,11.4879,11.4879,11.4879,11.4879,11.4879,11.4879,11.4879,11.4879,11.4879,11.4879,11.4879,11.4879,11.4879,11.4879,11.4879,11.4879,11.4879,11.4879,11.4879,11.4879,11.4879,11.4879,11.4879,11.4879,11.4879,11.4879,11.4879,11.4879,11.4879,11.4879,11.4879,11.4879,11.4879,11.4879,11.4879,11.4879,11.4879,11.4879,11.4879,11.4879,11.4879,11.9119,11.9575,12.0832,12.1988,12.3091,12.4882,12.6739,12.8487,12.8721,12.9363,13.0003,13.0235,13.0235,13.0235,13.0235,13.0235,13.0235,13.0235,13.0235,13.0235,13.0235,13.0235,13.0235,13.0235,13.0235,13.0235,13.0235,13.0235,13.0235,13.0235,13.0235,13.0235,13.0235,13.0235,13.0235,13.0177,13.0061,12.9479,12.8432,12.7443,12.6803,12.6571,12.6338,12.6047,12.5756,12.5291,12.4186,12.3895,12.3313,12.2848,12.2728,12.2728,12.2728,12.2728,12.2728,12.2728,12.2728,12.2728,12.2728,12.2728,12.2728,12.2499,12.2034,12.0987,11.93,11.8718,11.802,11.5694,11.6043,11.5694,11.5112,11.517,11.5228,11.5112,11.4879,11.4879,11.4879,11.4879,11.4879,11.4879,11.4879,11.4879,11.4879,11.4879,11.4879,11.4879,11.4879,11.4879,11.4879,11.4879,11.4879,11.4879,11.4879,11.4879,11.4879,11.4879,11.4879,11.4879,11.4879,11.4879,11.4879,11.4879,11.4879,11.4879,11.4879,11.4879,11.4879,11.4879,11.4879,11.4879,11.4879,11.4879,11.4879,11.4879,11.4879,11.9764,11.9821,12.0852,12.1887,12.3156,12.4195,12.57,12.7327,12.8025,12.8723,12.9363,12.9886,13.0235,13.0235,13.0235,13.0235,13.0235,13.0235,13.0235,13.0235,13.0235,13.0235,13.0235,13.0235,13.0235,13.0235,13.0235,13.0235,13.0235,13.0235,13.0235,13.0235,13.0235,13.0235,13.0235,13.0235,13.0235,13.0003,12.9537,12.8781,12.8258,12.8025,12.7792,12.7269,12.7211,12.6105,12.4884,12.436,12.3779,12.2848,12.2728,12.2728,12.2728,12.2728,12.2728,12.2728,12.2728,12.2728,12.2728,12.2728,12.2728,12.2557,12.1917,12.1278,11.994,11.8602,11.6915,11.5054,11.4937,11.4937,11.4937,11.4879,11.4879,11.4879,11.4879,11.4879,11.4879,11.4879,11.4879,11.4879,11.4879,11.4879,11.4879,11.4879,11.4879,11.4879,11.4879,11.4879,11.4879,11.4879,11.4879,11.4879,11.4879,11.4879,11.4879,11.4879,11.4879,11.4879,11.4879,11.4879,11.4879,11.4879,11.4879,11.4879,11.4879,11.4879,11.4879,11.4879,11.4879,11.4879,11.4879,11.4879,11.4879,11.4879,11.4879,12.0744,12.0744,12.0744,12.1833,12.3272,12.3444,12.4541,12.6222,12.7211,12.7909,12.8141,12.9305,12.9886,12.9944,13.0061,13.0235,13.0235,13.0235,13.0235,13.0235,13.0235,13.0235,13.0235,13.0235,13.0235,13.0235,13.0235,13.0177,12.9828,12.977,12.9944,13.0177,13.0235,13.0235,13.0235,13.0235,13.0235,13.0235,13.0177,13.0119,13.0003,12.9944,12.9421,12.8781,12.8374,12.7385,12.5291,12.4884,12.4011,12.3019,12.2728,12.2728,12.2728,12.2728,12.2728,12.2728,12.2728,12.2728,12.2728,12.2728,12.2728,12.2553,12.1801,12.1103,12.0347,11.8951,11.6799,11.517,11.4879,11.4879,11.4879,11.4879,11.4879,11.4879,11.4879,11.4879,11.4879,11.4879,11.4879,11.4879,11.4879,11.4879,11.4879,11.4879,11.4879,11.4879,11.4879,11.4879,11.4879,11.4879,11.4879,11.4879,11.4879,11.4879,11.4879,11.4879,11.4879,11.4879,11.4879,11.4879,11.4879,11.4879,11.4879,11.4879,11.4879,11.4879,11.4879,11.4879,11.4879,11.4879,11.4879,11.4879,11.4879,11.4879,11.4879,12.1143,12.0744,12.1201,12.1715,12.2059,12.2684,12.3607,12.4709,12.5175,12.5873,12.6862,12.8083,12.8665,12.8956,12.9595,13.0235,13.0235,13.0235,13.0235,13.0235,13.0119,13.0177,13.0177,13.0235,13.0003,12.977,12.9886,12.9712,12.9072,12.8839,12.9363,12.9944,13.0235,13.0235,13.0235,13.0235,13.0235,13.0235,13.0235,13.0235,13.0235,13.0235,13.0003,12.9828,12.977,12.8548,12.6164,12.5815,12.4768,12.3255,12.2728,12.2728,12.2728,12.2728,12.2728,12.2728,12.2728,12.2728,12.2669,12.2611,12.2383,12.2495,12.2266,12.2208,12.1452,11.9474,11.7322,11.5461,11.4879,11.4879,11.4879,11.4879,11.4879,11.4879,11.4879,11.4879,11.4879,11.4879,11.4879,11.4879,11.4879,11.4879,11.4879,11.4879,11.4879,11.4879,11.4879,11.4879,11.4879,11.4879,11.4879,11.4879,11.4879,11.4879,11.4879,11.4879,11.4879,11.4879,11.4879,11.4879,11.4879,11.4879,11.4879,11.4879,11.4879,11.4879,11.4879,11.4879,11.4879,11.4879,11.4879,11.4879,11.4879,11.4879,11.4879,12.222,12.1655,12.2052,12.2165,12.2165,12.2503,12.2964,12.3604,12.4128,12.4826,12.5698,12.6803,12.7676,12.8374,12.9072,12.9712,13.0061,13.0235,13.0235,13.0003,12.9595,12.9305,12.9246,12.8548,12.8432,12.8374,12.8432,12.8199,12.8316,12.8258,12.9072,12.9944,13.0235,13.0235,13.0235,13.0235,13.0235,13.0235,13.0235,13.0235,13.0235,13.0235,13.0235,13.0177,13.0061,12.8897,12.6978,12.6396,12.5175,12.3197,12.2728,12.2728,12.2728,12.2728,12.2728,12.2728,12.2615,12.2383,12.1801,12.1685,12.1685,12.1627,12.0987,12.1045,12.087,11.9474,11.7264,11.5984,11.5519,11.4879,11.4879,11.4879,11.4879,11.4879,11.4879,11.4879,11.4879,11.4879,11.4879,11.4879,11.4879,11.4879,11.4879,11.4879,11.4879,11.4879,11.4879,11.4879,11.4879,11.4879,11.4879,11.4879,11.4879,11.4879,11.4879,11.4879,11.4879,11.4879,11.4879,11.4879,11.4879,11.4879,11.4879,11.4879,11.4879,11.4879,11.4879,11.4879,11.4879,11.4879,11.4937,11.4937,11.4937,11.4879,11.4879,12.3286,12.284,12.2728,12.2728,12.2728,12.2728,12.2615,12.279,12.3662,12.407,12.4302,12.5466,12.6629,12.7385,12.7792,12.8723,12.9654,13.0061,13.0061,12.9595,12.8956,12.8199,12.7967,12.7211,12.6338,12.5931,12.5815,12.6629,12.7501,12.8083,12.8665,12.9886,13.0235,13.0235,13.0235,13.0235,13.0235,13.0235,13.0235,13.0235,13.0235,13.0177,13.0119,12.9712,12.9654,12.8316,12.6571,12.5873,12.5,12.2964,12.2786,12.2728,12.2728,12.2728,12.2441,12.2266,12.2092,12.151,12.058,12.0405,12.0405,12.0172,11.9649,11.9591,11.9533,11.8253,11.709,11.6333,11.5635,11.4879,11.4879,11.4879,11.4879,11.4879,11.4879,11.4879,11.4879,11.4879,11.4879,11.4879,11.4879,11.4879,11.4879,11.4879,11.4879,11.4879,11.4879,11.4879,11.4879,11.4879,11.4879,11.4879,11.4879,11.4879,11.4879,11.4879,11.4879,11.4879,11.4879,11.4879,11.4879,11.4879,11.4879,11.4879,11.4879,11.4879,11.4879,11.4879,11.5054,11.5519,11.5286,11.4996,11.5112,11.517,11.5112,12.3952,12.3286,12.284,12.2728,12.2728,12.2669,12.2441,12.2557,12.279,12.279,12.3081,12.4186,12.4826,12.5291,12.6222,12.7385,12.8548,12.9421,12.9305,12.8607,12.8083,12.7443,12.6745,12.6105,12.5233,12.3313,12.3488,12.4709,12.6164,12.6803,12.785,12.9828,13.0177,13.0119,13.0177,13.0235,13.0235,13.0177,13.0119,13.0061,13.0061,12.9944,12.9421,12.8781,12.8548,12.7327,12.5466,12.4768,12.4128,12.2844,12.2728,12.2728,12.2728,12.2669,12.2266,12.1103,12.1161,12.0463,11.9474,11.9067,11.9067,11.9067,11.8776,11.8893,11.8718,11.7613,11.6741,11.6217,11.5752,11.4879,11.4879,11.4879,11.4879,11.4879,11.4879,11.4879,11.4879,11.4879,11.4879,11.4879,11.4879,11.4879,11.4879,11.4879,11.4879,11.4879,11.4879,11.4879,11.4879,11.4879,11.4879,11.4879,11.4879,11.4879,11.4879,11.4879,11.4879,11.4879,11.4879,11.4879,11.4879,11.4879,11.4879,11.4879,11.4879,11.4879,11.4879,11.5228,11.5694,11.6159,11.6101,11.5752,11.5577,11.5461,11.5228,12.4062,12.328,12.2082,12.1568,12.151,12.087,12.058,12.058,12.058,12.0987,12.1627,12.215,12.3197,12.4419,12.5058,12.6047,12.7211,12.7967,12.785,12.7385,12.6513,12.5931,12.5291,12.4593,12.3953,12.2906,12.2728,12.3546,12.4884,12.5524,12.6745,12.9014,12.9188,12.9479,13.0119,13.0235,13.0119,13.0061,12.9595,12.9188,12.9014,12.8607,12.7792,12.7385,12.7211,12.6454,12.4593,12.436,12.3721,12.2964,12.2728,12.2728,12.2728,12.2728,12.1976,12.0987,12.0696,11.9823,11.8253,11.7729,11.7729,11.7729,11.7031,11.7206,11.7264,11.6508,11.5868,11.5635,11.5286,11.4879,11.4879,11.4879,11.4879,11.4879,11.4879,11.4879,11.4879,11.4879,11.4879,11.4879,11.4879,11.4879,11.4879,11.4879,11.4879,11.4879,11.4879,11.4879,11.4879,11.4879,11.4879,11.4879,11.4879,11.4879,11.4879,11.4879,11.4879,11.4879,11.4879,11.4879,11.4879,11.4879,11.4879,11.4879,11.4879,11.4879,11.5054,11.5752,11.6217,11.6508,11.6566,11.6508,11.6217,11.5461,11.5054,12.3952,12.328,12.1441,12.0696,12.0463,11.9358,11.8835,11.8893,11.8893,11.9533,12.0172,12.0289,12.1568,12.3488,12.3488,12.4535,12.5873,12.6047,12.6106,12.599,12.5,12.436,12.3837,12.3255,12.2674,12.2728,12.2728,12.3313,12.4186,12.4768,12.564,12.7676,12.7967,12.8374,12.913,12.9072,12.9363,12.9246,12.8432,12.7909,12.7676,12.7036,12.6629,12.6513,12.6164,12.5291,12.4302,12.4011,12.3546,12.2906,12.2728,12.2728,12.2611,12.2325,12.1452,12.0463,11.994,11.8776,11.6973,11.6392,11.6392,11.6333,11.5752,11.5286,11.6217,11.5461,11.4996,11.4879,11.4879,11.4879,11.4879,11.4879,11.4879,11.4879,11.4879,11.4879,11.4879,11.4879,11.4879,11.4879,11.4879,11.4879,11.4879,11.4879,11.4879,11.4879,11.4879,11.4879,11.4879,11.4879,11.4879,11.4879,11.4879,11.4879,11.4879,11.4879,11.4879,11.4879,11.4879,11.4879,11.4879,11.4879,11.4879,11.4879,11.4879,11.4937,11.4937,11.5635,11.645,11.6682,11.6799,11.6973,11.6741,11.5519,11.4879,12.3509,12.328,12.1441,12.0696,12.0405,11.9358,11.8544,11.8718,11.8544,11.8718,11.8951,11.9009,11.9882,12.1045,12.1336,12.2383,12.4535,12.4419,12.5117,12.5407,12.4884,12.3837,12.3023,12.2674,12.2728,12.2728,12.2728,12.3313,12.3953,12.4302,12.5233,12.6222,12.6571,12.6745,12.7211,12.7094,12.6862,12.7036,12.6803,12.6629,12.6513,12.6164,12.5931,12.5756,12.5117,12.407,12.3255,12.2906,12.2848,12.2728,12.2728,12.2557,12.2495,12.1394,12.0347,11.9184,11.8078,11.6915,11.5461,11.5286,11.517,11.5228,11.5054,11.4996,11.5112,11.5112,11.4879,11.4879,11.4879,11.4879,11.4879,11.4879,11.4879,11.4879,11.4879,11.4879,11.4879,11.4879,11.4879,11.4879,11.4879,11.4879,11.4879,11.4879,11.4879,11.4879,11.4879,11.4879,11.4879,11.4879,11.4879,11.4879,11.4879,11.4879,11.4879,11.4879,11.4879,11.4879,11.4879,11.4879,11.4879,11.4879,11.4879,11.4879,11.4879,11.4879,11.4996,11.5635,11.645,11.6799,11.6682,11.7148,11.7439,11.5926,11.4879,12.1224,12.0997,11.9168,11.8427,11.8253,11.709,11.6508,11.6508,11.6566,11.6915,11.7555,11.7671,11.8369,11.9533,11.9591,12.0638,12.2092,12.2266,12.2964,12.3953,12.3662,12.3081,12.2732,12.2728,12.2728,12.2728,12.2728,12.2964,12.3313,12.3372,12.407,12.5,12.5233,12.5698,12.6222,12.6396,12.6454,12.6222,12.5582,12.5233,12.5175,12.4593,12.4302,12.407,12.3721,12.3197,12.2732,12.2728,12.2728,12.2728,12.2669,12.2266,12.1568,12.0929,11.9765,11.7788,11.7148,11.6217,11.517,11.4879,11.4879,11.4879,11.4879,11.4879,11.4879,11.4879,11.4879,11.4879,11.4879,11.4879,11.4879,11.4879,11.4879,11.4879,11.4879,11.4879,11.4879,11.4879,11.4879,11.4879,11.4879,11.4879,11.4879,11.4879,11.4879,11.4879,11.4879,11.4879,11.4879,11.4879,11.4879,11.4879,11.4879,11.4879,11.4879,11.4879,11.4879,11.4879,11.4879,11.4879,11.4879,11.4879,11.4879,11.4879,11.4879,11.4996,11.5286,11.5752,11.645,11.6682,11.645,11.6508,11.6624,11.581,11.517,11.9368,11.9143,11.7537,11.6799,11.6624,11.5461,11.4937,11.4937,11.4937,11.5577,11.6101,11.6333,11.7031,11.8195,11.8311,11.8951,11.9998,12.0231,12.087,12.1976,12.2092,12.2092,12.2092,12.2383,12.2728,12.2728,12.2728,12.2728,12.2728,12.2844,12.3139,12.3895,12.3953,12.4419,12.5233,12.5291,12.5407,12.5233,12.436,12.3953,12.3779,12.3081,12.2728,12.2728,12.2786,12.2615,12.2728,12.2728,12.2728,12.2615,12.2325,12.1627,12.0812,11.994,11.8718,11.709,11.6508,11.581,11.5112,11.4879,11.4879,11.4879,11.4879,11.4879,11.4879,11.4879,11.4879,11.4879,11.4879,11.4879,11.4879,11.4879,11.4879,11.4879,11.4879,11.4879,11.4879,11.4879,11.4879,11.4879,11.4879,11.4879,11.4879,11.4879,11.4879,11.4879,11.4879,11.4879,11.4879,11.4879,11.4879,11.4879,11.4879,11.4879,11.4879,11.4879,11.4879,11.4879,11.4879,11.4879,11.4879,11.4879,11.4879,11.4879,11.4879,11.4879,11.5286,11.5577,11.6217,11.6741,11.645,11.6101,11.6043,11.5762,11.5065,11.8776,11.8602,11.7322,11.6682,11.6508,11.5403,11.4879,11.4879,11.4879,11.4996,11.5054,11.517,11.581,11.6741,11.6915,11.7613,11.8718,11.8893,11.9533,12.0347,12.0638,12.0696,12.0987,12.1917,12.2441,12.2669,12.2728,12.2728,12.2728,12.2728,12.2786,12.2848,12.2906,12.2848,12.3139,12.2906,12.3139,12.3197,12.2964,12.2848,12.2902,12.2728,12.2728,12.2728,12.2728,12.2728,12.2728,12.2728,12.2728,12.2553,12.151,12.0812,12.0231,11.8311,11.7206,11.6741,11.5635,11.5112,11.4937,11.4879,11.4879,11.4879,11.4879,11.4879,11.4879,11.4879,11.4879,11.4879,11.4879,11.4879,11.4879,11.4879,11.4879,11.4879,11.4879,11.4879,11.4879,11.4879,11.4879,11.4879,11.4879,11.4879,11.4879,11.4879,11.4879,11.4879,11.4879,11.4879,11.4879,11.4879,11.4879,11.4879,11.4879,11.4879,11.4879,11.4879,11.4879,11.4879,11.4879,11.4879,11.4879,11.4879,11.4879,11.4879,11.4879,11.4879,11.4996,11.5112,11.5519,11.6043,11.6101,11.5926,11.5694,11.5297,11.4727,11.6333,11.6275,11.581,11.5635,11.5519,11.5112,11.4879,11.4879,11.4879,11.4879,11.4879,11.4879,11.517,11.5519,11.5577,11.6333,11.7439,11.7555,11.7788,11.8195,11.8253,11.8718,11.9649,12.0812,12.1743,12.2441,12.2728,12.2728,12.2728,12.2728,12.2728,12.2728,12.2728,12.2728,12.2728,12.2728,12.2728,12.2728,12.2728,12.2728,12.2728,12.2728,12.2728,12.2728,12.2728,12.2728,12.2728,12.2728,12.2728,12.2383,12.1394,11.9882,11.8369,11.738,11.645,11.5752,11.517,11.4879,11.4879,11.4879,11.4879,11.4879,11.4879,11.4879,11.4879,11.4879,11.4879,11.4879,11.4879,11.4879,11.4879,11.4879,11.4879,11.4879,11.4879,11.4879,11.4879,11.4879,11.4879,11.4879,11.4879,11.4879,11.4879,11.4879,11.4879,11.4879,11.4879,11.4879,11.4879,11.4879,11.4879,11.4879,11.4879,11.4879,11.4879,11.4879,11.4879,11.4879,11.4879,11.4879,11.4879,11.4879,11.4879,11.4879,11.4879,11.4879,11.4879,11.4937,11.4937,11.4996,11.5286,11.5286,11.5239,11.4785,11.441,11.4879,11.4879,11.4879,11.4879,11.4879,11.4879,11.4879,11.4879,11.4879,11.4879,11.4879,11.4879,11.4879,11.4879,11.4879,11.5403,11.6159,11.6217,11.6217,11.6333,11.6682,11.738,11.8311,11.9474,12.058,12.1336,12.1801,12.2208,12.2499,12.2728,12.2728,12.2728,12.2728,12.2728,12.2728,12.2728,12.2728,12.2557,12.2266,12.2034,12.2034,12.1627,12.1394,12.1452,12.1859,12.1801,12.1452,12.1452,12.1394,12.1336,12.058,11.9125,11.7206,11.645,11.5752,11.4996,11.4879,11.4879,11.4879,11.4879,11.4879,11.4879,11.4879,11.4879,11.4879,11.4879,11.4879,11.4879,11.4879,11.4879,11.4879,11.4879,11.4879,11.4879,11.4879,11.4879,11.4879,11.4879,11.4879,11.4879,11.4879,11.4879,11.4879,11.4879,11.4879,11.4879,11.4879,11.4879,11.4879,11.4879,11.4879,11.4879,11.4879,11.4879,11.4879,11.4879,11.4879,11.4879,11.4879,11.4879,11.4879,11.4879,11.4879,11.4879,11.4879,11.4879,11.4879,11.4879,11.4879,11.4937,11.4996,11.4937,11.4774,11.4458,11.414,11.4879,11.4879,11.4879,11.4879,11.4879,11.4879,11.4879,11.4879,11.4879,11.4879,11.4879,11.4879,11.4879,11.4879,11.4879,11.4937,11.5054,11.5112,11.5112,11.517,11.6159,11.6741,11.6857,11.8195,11.8893,11.9009,12.0114,12.1278,12.2208,12.2208,12.2266,12.2441,12.2378,12.215,12.2441,12.2266,12.2383,12.2092,12.1219,12.0754,12.058,11.9707,11.9184,11.9184,11.9998,12.0056,11.8951,11.9009,11.9125,11.9067,11.8893,11.8195,11.6915,11.5694,11.4937,11.4937,11.4879,11.4879,11.4879,11.4879,11.4879,11.4879,11.4879,11.4879,11.4879,11.4879,11.4879,11.4879,11.4879,11.4879,11.4879,11.4879,11.4879,11.4879,11.4879,11.4879,11.4879,11.4879,11.4879,11.4879,11.4879,11.4879,11.4879,11.4879,11.4879,11.4879,11.4879,11.4879,11.4879,11.4879,11.4879,11.4879,11.4879,11.4879,11.4879,11.4879,11.4879,11.4879,11.4879,11.4879,11.4879,11.4879,11.4879,11.4879,11.4879,11.4879,11.4879,11.4879,11.4879,11.4879,11.4879,11.4879,11.4563,11.4246,11.3821,11.4879,11.4879,11.4879,11.4879,11.4879,11.4879,11.4879,11.4879,11.4879,11.4879,11.4879,11.4879,11.4879,11.4879,11.4879,11.4879,11.4879,11.4879,11.4879,11.4937,11.5286,11.5461,11.5694,11.6857,11.7439,11.7671,11.8776,11.9591,11.9998,11.9998,12.0056,12.0056,11.9998,11.9998,11.9998,12.0056,12.0056,11.9998,11.9649,11.9416,11.9358,11.9009,11.8776,11.8718,11.8311,11.7846,11.7497,11.8311,11.8776,11.866,11.7904,11.7264,11.6741,11.5577,11.4879,11.4879,11.4879,11.4879,11.4879,11.4879,11.4879,11.4879,11.4879,11.4879,11.4879,11.4879,11.4879,11.4879,11.4879,11.4879,11.4879,11.4879,11.4879,11.4879,11.4879,11.4879,11.4879,11.4879,11.4879,11.4879,11.4879,11.4879,11.4879,11.4879,11.4879,11.4879,11.4879,11.4879,11.4879,11.4879,11.4879,11.4879,11.4879,11.4879,11.4879,11.4879,11.4879,11.4879,11.4879,11.4879,11.4879,11.4879,11.4879,11.4879,11.4879,11.4879,11.4879,11.4879,11.4879,11.4879,11.4588,11.4077,11.3947,11.3697,11.3107,11.4879,11.4879,11.4879,11.4879,11.4879,11.4879,11.4879,11.4879,11.4879,11.4879,11.4879,11.4879,11.4879,11.4879,11.4879,11.4879,11.4879,11.4879,11.4879,11.4879,11.4879,11.4879,11.4996,11.5694,11.6101,11.6275,11.7439,11.8311,11.8718,11.8776,11.8776,11.8776,11.8776,11.8776,11.8776,11.8776,11.8776,11.8776,11.8311,11.8078,11.8078,11.7613,11.738,11.7322,11.6566,11.6101,11.6101,11.6915,11.738,11.738,11.6566,11.6101,11.6043,11.5345,11.4705,11.4239,11.4181,11.4007,11.3541,11.3483,11.3483,11.3483,11.3483,11.3425,11.3483,11.3483,11.3716,11.4065,11.4181,11.389,11.3658,11.3483,11.3483,11.3483,11.3483,11.3541,11.4065,11.4181,11.4414,11.4763,11.4879,11.4879,11.4879,11.4879,11.4879,11.4879,11.4879,11.4879,11.4879,11.4879,11.4879,11.4879,11.4879,11.4879,11.4879,11.4879,11.4879,11.4879,11.4879,11.4879,11.4879,11.4879,11.4879,11.4879,11.4879,11.4879,11.4879,11.4821,11.4414,11.4239,11.3251,11.2811,11.2753,11.1814,11.1469,11.4879,11.4879,11.4879,11.4879,11.4879,11.4879,11.4879,11.4879,11.4879,11.4879,11.4879,11.4879,11.4879,11.4879,11.4879,11.4879,11.4879,11.4879,11.4879,11.4879,11.4879,11.4879,11.4879,11.4879,11.4937,11.517,11.6217,11.7322,11.8369,11.8486,11.866,11.8544,11.8427,11.8486,11.8427,11.8369,11.8544,11.8253,11.7264,11.6741,11.6566,11.5577,11.5112,11.5112,11.4937,11.4996,11.4996,11.4937,11.4996,11.4937,11.4996,11.4937,11.4937,11.4937,11.4298,11.3251,11.296,11.2378,11.1331,11.1215,11.1215,11.1157,11.1331,11.1098,11.1389,11.1389,11.1796,11.2785,11.2727,11.232,11.1447,11.1447,11.1331,11.1273,11.1157,11.1738,11.2785,11.2902,11.3483,11.4239,11.4356,11.4239,11.453,11.4705,11.4472,11.4647,11.4763,11.4763,11.4821,11.4879,11.4879,11.4879,11.4879,11.4879,11.4879,11.4879,11.4879,11.4879,11.4879,11.4879,11.4879,11.4879,11.4879,11.4879,11.4879,11.4879,11.4879,11.4588,11.4065,11.3425,11.2436,11.1373,11.1043,10.9995,10.9761,11.4879,11.4879,11.4879,11.4879,11.4879,11.4879,11.4879,11.4879,11.4879,11.4879,11.4879,11.4879,11.4879,11.4879,11.4879,11.4879,11.4879,11.4879,11.4879,11.4879,11.4879,11.4879,11.4879,11.4879,11.4879,11.4937,11.5228,11.5577,11.5926,11.5926,11.5984,11.5926,11.5984,11.5984,11.5984,11.5984,11.5984,11.5984,11.5635,11.5403,11.5403,11.5054,11.4879,11.4879,11.4879,11.4879,11.4879,11.4879,11.4879,11.4879,11.4879,11.4879,11.4879,11.4879,11.4298,11.3076,11.2087,11.1331,11.104,11.0982,11.0982,11.0982,11.0982,11.0982,11.0982,11.0982,11.1157,11.1447,11.0749,11.0575,11.0808,11.0982,11.0982,11.0982,11.0982,11.1098,11.1447,11.1564,11.168,11.1971,11.232,11.2029,11.2087,11.2204,11.2553,11.3309,11.3541,11.3716,11.4647,11.4821,11.4879,11.4879,11.4879,11.4879,11.4879,11.4879,11.4879,11.4879,11.4879,11.4879,11.4879,11.4879,11.4879,11.453,11.4821,11.4821,11.4356,11.3774,11.3192,11.2785,11.1926,11.0793,10.9569,10.9547,10.92,11.4414,11.4879,11.4879,11.4879,11.4879,11.4879,11.4879,11.4879,11.4879,11.4879,11.4879,11.4879,11.4879,11.4879,11.4356,11.4123,11.4065,11.3541,11.3309,11.3309,11.3309,11.3309,11.3309,11.3309,11.3309,11.3309,11.3309,11.3309,11.3309,11.3309,11.3541,11.4065,11.4647,11.4879,11.4879,11.4879,11.4879,11.4879,11.4879,11.4984,11.5194,11.5194,11.5299,11.5566,11.5566,11.5566,11.5508,11.4981,11.4689,11.4689,11.4014,11.3619,11.3619,11.3412,11.296,11.2204,11.0982,11.0051,10.9528,10.947,10.947,10.947,10.947,10.947,10.947,10.947,10.947,10.9412,10.883,10.8655,10.9295,10.947,10.947,10.947,10.947,10.9702,11.0168,11.0226,11.0517,11.0924,11.0982,11.104,11.0982,11.0982,11.1331,11.1913,11.2145,11.2378,11.3134,11.3774,11.4065,11.4123,11.4123,11.4298,11.4821,11.4879,11.4879,11.4879,11.4879,11.4879,11.4821,11.4588,11.4123,11.4065,11.3483,11.3134,11.3425,11.2553,11.1913,11.1273,11.0575,10.9749,10.8112,10.785,10.744,11.3658,11.4647,11.4821,11.4879,11.4879,11.4984,11.4984,11.5148,11.4984,11.4984,11.4984,11.4879,11.4821,11.453,11.3541,11.2856,11.2669,11.1564,11.1098,11.1098,11.0982,11.0982,11.1157,11.104,11.0982,11.1098,11.1157,11.1215,11.1215,11.1157,11.1622,11.2785,11.3949,11.4414,11.4472,11.4472,11.453,11.4705,11.4693,11.4844,11.5365,11.5365,11.5675,11.6308,11.6249,11.6308,11.5969,11.4967,11.4319,11.4201,11.2696,11.1908,11.1807,11.1446,11.1127,11.0952,10.9919,10.8755,10.759,10.7259,10.7376,10.7318,10.7434,10.7434,10.7434,10.7376,10.7318,10.7434,10.7376,10.7376,10.7318,10.7434,10.755,10.7608,10.755,10.7725,10.8772,10.9104,10.9412,11.0517,11.0342,11.0633,11.0342,11.0342,11.0459,11.0459,11.0633,11.0982,11.1447,11.2204,11.2785,11.2611,11.2785,11.3251,11.3949,11.4472,11.4181,11.4298,11.4414,11.4239,11.3949,11.3367,11.2785,11.2669,11.1971,11.1447,11.1273,11.0808,11.0517,10.9935,10.9295,10.8514,10.646,10.5887,10.5499,11.3192,11.3483,11.4472,11.4879,11.4879,11.5299,11.5716,11.619,11.5716,11.5508,11.5403,11.4984,11.4356,11.3425,11.3134,11.2378,11.1506,11.1098,11.0982,11.0982,11.0982,11.0982,11.0982,11.0982,11.0982,11.0982,11.0982,11.0982,11.0982,11.0982,11.1157,11.1389,11.168,11.1855,11.1855,11.1855,11.2378,11.3309,11.3095,11.3132,11.3233,11.3233,11.3334,11.3434,11.3434,11.3434,11.3493,11.3198,11.3022,11.2963,11.2627,11.235,11.235,11.225,11.178,11.078,11.019,10.929,10.8022,10.7553,10.7318,10.7318,10.7318,10.7259,10.7318,10.7318,10.7318,10.7318,10.7259,10.7259,10.7318,10.7318,10.7318,10.7318,10.7318,10.7434,10.7667,10.7725,10.7841,10.8016,10.8132,10.819,10.8132,10.8132,10.8248,10.8423,10.9004,10.9935,11.0808,11.1157,11.0982,11.0575,11.0866,11.1622,11.1738,11.1971,11.2029,11.1913,11.1971,11.2087,11.2029,11.1738,11.1447,11.1389,11.1098,11.0808,11.0866,11.0226,10.9528,10.9221,10.8423,10.7568,10.6866,10.6214,10.5257,11.1564,11.2204,11.3483,11.4007,11.4065,11.4961,11.567,11.6072,11.4896,11.4661,11.5029,11.3678,11.2727,11.2029,11.1506,11.0866,11.011,10.9586,10.9295,10.9295,10.9295,10.9295,10.9295,10.9295,10.9295,10.9295,10.9295,10.9295,10.9295,10.9295,10.9586,11.0168,11.047,11.0962,11.169,11.169,11.21,11.2744,11.2015,11.2158,11.2947,11.2947,11.3046,11.3343,11.3343,11.3343,11.3343,11.2215,11.1562,11.1562,11.0145,10.9338,10.9338,10.9146,10.8659,10.8047,10.7701,10.737,10.6664,10.632,10.6326,10.6775,10.7301,10.7515,10.7065,10.7065,10.7203,10.7593,10.7651,10.7553,10.7259,10.7318,10.7318,10.7318,10.7318,10.7318,10.7318,10.7318,10.7318,10.7318,10.7318,10.7318,10.7318,10.7318,10.7318,10.7318,10.7783,10.8539,10.9121,10.9295,10.9237,10.9295,10.9803,11.0342,11.0924,11.0982,11.0982,11.0982,11.0982,11.0982,11.0982,11.04,11.0226,11.0168,10.9586,10.9353,10.9237,10.8714,10.8423,10.8248,10.7667,10.7376,10.7161,10.6412,10.5458,10.9919,11.0866,11.2145,11.2727,11.2785,11.3995,11.4773,11.5058,11.3452,11.3399,11.4243,11.2014,11.0866,11.0691,10.9745,10.9221,10.8988,10.7783,10.7318,10.7318,10.7318,10.7318,10.7318,10.7318,10.7318,10.7318,10.7318,10.7318,10.7318,10.7318,10.794,10.8971,10.9484,11.0505,11.1901,11.2019,11.2118,11.2217,11.1134,11.1426,11.3102,11.3102,11.3297,11.3686,11.3686,11.3626,11.3387,11.1233,11.007,10.9737,10.7215,10.5689,10.5689,10.5203,10.475,10.475,10.448,10.427,10.427,10.4329,10.4675,10.5652,10.6848,10.7215,10.6335,10.6453,10.6854,10.753,10.7434,10.7475,10.7262,10.7262,10.7262,10.7397,10.7358,10.7358,10.7318,10.7318,10.7318,10.7318,10.7318,10.7318,10.7318,10.7318,10.7318,10.7318,10.7434,10.7376,10.7492,10.7318,10.7783,10.8655,10.9046,10.9353,10.9935,11.04,11.0284,11.0459,11.0284,11.0168,11.0168,10.947,10.8946,10.9046,10.819,10.755,10.7434,10.7318,10.7376,10.7434,10.7376,10.7318,10.7259,10.628,10.5314,10.9395,10.9644,11.0808,11.1331,11.1331,11.2131,11.2754,11.3198,11.2885,0.0,0.0,11.1605,11.04,10.957,10.9395,10.8597,10.7667,10.7376,10.7318,10.7318,10.7318,10.7318,10.7318,10.7318,10.7318,10.7318,10.7318,10.7318,10.7318,10.7318,10.767,10.8295,10.8392,10.8802,10.9463,10.9463,10.9945,11.0709,11.0565,11.0565,11.0958,11.0958,11.0993,11.1148,11.1148,11.0549,10.9378,10.8839,10.8121,10.7104,10.6534,10.6204,10.6145,10.5099,10.4412,10.4353,10.3042,10.227,10.2121,10.1822,10.2083,10.332,10.4616,10.4978,10.4136,10.475,10.518,10.5323,10.5323,10.5794,10.6759,10.6818,10.7098,10.7826,10.7944,10.7749,10.7358,10.7318,10.7241,10.7318,10.7143,10.7259,10.7201,10.7201,10.7318,10.7318,10.7318,10.7318,10.7318,10.7299,10.7416,10.7667,10.7783,10.7725,10.7957,10.8074,10.7957,10.8132,10.8074,10.7957,10.7899,10.7783,10.7667,10.7725,10.7492,10.7259,10.7259,10.7143,10.7318,10.7318,10.7318,10.7318,10.7201,10.5898,10.4715,10.8248,10.8306,10.9586,11.011,0.0,11.1053,11.0636,10.9467,11.0075,11.082,11.1251,10.9811,10.8772,10.819,10.755,10.691,10.6329,10.5631,10.534,10.5282,10.5282,10.5282,10.534,10.598,10.6329,10.6329,10.6969,10.7318,10.7318,10.7318,10.7553,10.8041,10.8332,10.8718,10.9197,10.9483,10.9863,11.0429,11.0429,11.0429,11.0429,10.977,10.9258,10.9258,10.866,0.0,0.0,0.0,0.0,0.0,0.0,0.0,0.0,10.1539,0.0,10.0462,9.8952,9.8007,9.8007,9.7753,9.8559,10.0459,10.1171,10.1169,10.0291,10.1848,10.334,10.4318,10.4314,10.4572,10.5627,10.5745,10.5853,10.6311,10.6429,10.6334,10.6049,10.6049,10.6049,10.6049,10.5916,10.6016,10.66,10.6523,10.6561,10.7143,10.7318,10.7318,10.7259,10.7028,10.6912,10.7299,10.7318,10.7259,10.7318,10.7318,10.7318,10.7259,10.7318,10.7318,10.7318,10.7318,10.7318,10.7259,10.6736,10.6329,10.6271,10.5747,10.5282,10.5282,10.5282,10.5282,10.5282,10.4566,10.3776,10.7143,10.7027,10.8074,10.8306,10.819,10.9121,10.8078,10.5814,10.6869,10.7924,10.8802,10.7262,10.6561,10.6445,10.5456,10.4991,10.4933,10.3886,10.3362,10.3362,10.3362,10.3362,10.342,10.4758,10.5398,10.5456,10.6678,10.7143,10.691,10.7008,10.7184,10.753,10.7951,10.8427,10.9054,0.0,0.0,0.0,11.0215,11.0241,11.0147,10.8918,10.8381,10.8322,10.7367,0.0,10.6022,10.5099,10.4323,10.3726,10.1605,0.0,0.0,0.0,0.0,0.0,0.0,0.0,0.0,0.0,0.0,0.0,9.6176,9.5761,9.6224,9.8235,10.0397,10.2644,10.2802,10.3101,10.3895,10.4013,10.4073,10.4218,10.4368,10.4368,10.4277,10.4513,10.4631,10.4539,10.4464,10.4924,10.5675,10.5565,10.5629,10.66,10.6795,10.6795,10.6737,10.6246,10.6166,10.6659,10.6717,10.6795,10.6756,10.6542,10.6271,10.6561,10.6561,10.6503,10.6387,10.6445,10.6503,10.6387,10.5689,10.4991,10.4991,10.4118,10.3537,10.3362,10.342,10.3246,10.2781,10.2745,10.2635,10.662,10.5631,10.5805,10.5165,10.4118,10.4293,10.4404,10.4467,10.4642,10.4818,10.4935,10.4229,10.3886,10.3886,10.3711,10.3653,10.3595,10.342,10.3362,10.3362,10.3362,10.3362,10.342,10.4758,10.5398,10.5456,10.6678,10.6678,10.5631,10.6113,10.5946,10.5357,10.5703,10.6256,10.6742,10.6774,10.7463,10.854,10.9362,10.9483,10.9102,10.8828,10.871,10.871,10.8592,10.7469,10.5223,10.4986,10.3804,10.1617,10.0459,9.9265,9.8076,9.4834,9.2564,0.0,8.9034,0.0,0.0,0.0,0.0,0.0,0.0,0.0,0.0,9.3055,9.4739,9.7809,9.911,10.0059,10.0948,10.1326,10.1832,10.2501,10.3003,10.3091,10.2712,10.3577,10.4144,10.3634,10.4611,10.5197,10.4978,10.491,10.4817,10.5053,10.5087,10.491,10.5087,10.491,10.5003,10.5087,10.5053,10.5218,10.4841,10.4345,10.4097,10.4039,10.4155,10.3886,10.4002,10.4002,10.4039,10.3944,10.3828,10.3653,10.3595,10.3479,10.3304,10.3188,10.313,10.249,10.0769,10.0665,10.0833,10.4758,10.4293,10.4293,10.2664,10.0221,10.0221,10.1128,10.2689,10.2747,10.2689,10.2654,10.2409,10.1908,10.121,10.0512,10.0221,10.0221,10.0163,10.0163,10.0221,10.0919,10.1268,10.1326,10.3304,10.4293,10.4351,10.6329,10.662,10.5456,10.582,10.5747,10.4978,10.5322,10.4528,10.2477,10.328,10.4649,10.6396,10.7515,10.8392,10.8755,10.8047,10.7693,10.7634,10.6985,10.604,10.4919,10.4211,10.3326,10.2146,9.9666,9.7413,9.534,9.1711,8.8619,0.0,0.0,0.0,0.0,0.0,0.0,0.0,0.0,0.0,0.0,0.0,8.9604,9.2794,9.4558,9.6061,9.7382,9.7666,9.8011,9.88,9.9085,9.9167,9.8921,10.0129,10.0746,10.0324,10.1267,10.217,10.2564,10.2834,10.3335,10.3954,10.2833,10.2138,10.2504,10.3012,10.3546,10.3954,10.4421,10.4767,10.4489,10.4302,10.4115,10.3834,10.3892,10.3798,10.3457,10.3362,10.3362,10.3399,10.2781,10.2315,10.2315,10.1792,10.1268,10.1268,10.1268,10.0711,9.939,9.9345,9.9378,10.2816,10.2432,10.1792,9.9872,9.7166,9.7197,9.8302,10.0047,10.0105,10.0105,10.0105,9.9756,9.9116,9.8127,9.6759,9.641,9.6643,9.6701,9.6991,9.7631,9.856,9.9291,9.964,10.185,10.2897,10.3071,10.5224,10.5689,10.4467,10.4593,10.4243,10.347,10.3216,10.144,9.8456,10.0078,10.2032,10.4067,10.5475,10.6854,10.8091,10.7348,10.6841,10.6841,10.59,10.5135,10.443,10.3313,10.2372,10.1666,9.8108,9.4896,9.2327,8.8337,0.0,0.0,0.0,0.0,0.0,0.0,0.0,0.0,0.0,7.7974,8.2041,0.0,8.4735,0.0,9.018,9.1781,9.3054,9.3252,0.0,0.0,9.4563,9.4639,9.4715,9.6322,9.7128,9.6657,9.8098,9.9283,10.0083,10.0728,10.1339,10.1752,10.0625,9.9954,10.0505,10.1249,10.1865,10.2473,10.2953,10.3515,10.3247,10.3335,10.3063,10.3044,10.3246,10.3329,10.2957,10.2864,10.2771,10.2619,10.1803,10.1186,10.1036,10.0279,9.9465,9.8767,9.8651,9.847,9.7958,9.7718,9.741,10.0919,9.9698,9.7313,9.6208,9.6005,9.6005,9.6033,9.6296,9.6296,9.6296,9.6238,9.4986,9.4405,9.423,9.295,0.0,9.4172,9.4172,9.5393,9.7572,9.7689,9.8328,9.9548,10.0977,10.1617,10.1675,10.3013,10.3013,10.1792,10.1179,10.0072,9.8872,9.7044,9.5857,9.5739,9.8102,10.0051,10.1409,10.3338,10.5088,10.6379,10.6951,10.7241,10.7281,10.7125,10.5999,10.3668,10.2234,10.0488,9.8101,9.4718,9.1694,8.9079,0.0,0.0,0.0,0.0,0.0,0.0,0.0,0.0,0.0,0.0,0.0,0.0,0.0,0.0,8.4065,8.6431,0.0,8.7951,8.8244,0.0,0.0,0.0,9.0129,9.0471,9.2836,9.4085,9.3409,0.0,0.0,9.8178,9.9107,9.9291,9.7774,9.8824,9.9673,9.9855,9.9833,9.9954,10.0113,10.0174,10.0068,10.0048,9.9565,9.9411,9.9843,10.0523,10.123,10.1199,10.1199,10.1051,10.06,10.0483,10.0185,9.9789,9.9316,9.8825,9.644,9.6091,9.5945,9.5415,9.497,9.4523,9.6294,9.3305,9.1312,9.0938,9.1631,9.1631,9.2035,9.267,9.2642,9.2266,9.1573,9.0245,8.9264,8.8373,8.7219,0.0,0.0,0.0,9.2985,9.4288,9.5801,9.7197,9.8328,9.9698,10.0279,10.0396,10.1617,10.1152,9.9083,9.8283,9.5887,9.1819,0.0,0.0,9.0968,9.3737,9.6351,9.8898,10.1288,10.3529,10.5629,10.6717,10.691,10.6212,10.5804,10.449,10.194,9.9634,9.7199,9.4603,9.0497,8.68,0.0,0.0,0.0,0.0,0.0,0.0,0.0,0.0,0.0,0.0,0.0,6.9705,7.2106,0.0,0.0,0.0,7.9985,8.1592,8.3273,8.3594,0.0,0.0,0.0,0.0,0.0,0.0,0.0,8.9952,9.2849,9.5,9.549,9.514,9.5065,9.5769,9.6444,9.719,9.7984,0.0,9.8865,9.8865,9.9291,9.9673,9.9569,9.9156,9.8919,9.9121,9.9146,9.9012,9.8664,9.8577,9.849,9.8051,9.7963,9.7787,9.7344,9.5799,9.429,9.3363,9.2959,9.2555,9.2091,9.1828,9.1565,9.0623,0.0,0.0,0.0,0.0,8.6883,8.7257,8.8057,8.8057,8.76,8.6743,8.551,0.0,0.0,0.0,0.0,0.0,0.0,8.9411,9.0639,9.2783,9.4638,9.6113,9.704,9.7535,9.7593,9.8462,9.7767,9.5477,9.2579,8.905,8.4881,0.0,0.0,0.0,0.0,9.3152,9.638,9.9723,10.2548,10.4758,10.6348,10.6482,10.5205,10.3968,10.2064,9.9679,9.6375,9.3325,9.0457,8.6112,0.0,0.0,0.0,0.0,0.0,0.0,0.0,0.0,0.0,0.0,0.0,0.0,0.0,0.0,0.0,0.0,0.0,0.0,0.0,7.8063,7.8727,7.9511,0.0,0.0,0.0,0.0,0.0,0.0,0.0,0.0,0.0,9.0905,9.08,9.1378,0.0,0.0,9.4744,9.5939,9.684,9.7495,9.7783,9.8398,0.0,9.8439,9.7956,9.7692,9.7692,9.6895,9.6208,9.6144,9.6009,9.5839,9.5412,9.5327,9.4629,9.2664,9.0303,8.8956,8.8758,8.845,8.7946,8.758,8.7495,8.7381,0.0,0.0,0.0,0.0,0.0,0.0,0.0,0.0,8.2118,8.2061,0.0,8.0759,0.0,0.0,0.0,0.0,8.1337,8.2321,0.0,0.0,8.8361,9.0371,9.2522,9.2637,9.2694,9.2694,9.2839,9.2093,9.0285,8.2654,0.0,0.0,0.0,0.0,0.0,0.0,9.0792,9.345,9.8702,10.2083,10.342,10.5435,10.5835,10.4604,10.1815,9.9061,9.6423,9.2694,8.9023,8.5295,8.1509,0.0,0.0,0.0,0.0,0.0,0.0,0.0,0.0,0.0,0.0,0.0,0.0,0.0,0.0,0.0,0.0,0.0,0.0,0.0,0.0,7.3677,0.0,0.0,0.0,0.0,0.0,0.0,0.0,0.0,0.0,0.0,8.3743,8.6684,8.8993,8.877,0.0,0.0,0.0,0.0,9.5494,9.6395,9.6873,9.6675,9.5386,9.4578,9.4115,9.4038,0.0,0.0,9.3853,9.3623,9.3212,9.2857,9.2656,9.092,8.4811,8.3279,8.287,8.287,8.2414,8.1957,8.1611,8.153,8.176,0.0,0.0,0.0,0.0,0.0,0.0,0.0,0.0,0.0,7.5503,7.5447,7.4282,0.0,0.0,0.0,0.0,0.0,0.0,0.0,0.0,8.3233,8.519,8.6782,8.6782,8.6782,0.0,8.6782,8.4124,0.0,0.0,0.0,0.0,0.0,0.0,0.0,0.0,8.7907,9.149,9.5808,9.9125,10.12,10.2678,10.3214,10.2754,9.9866,9.5689,9.0179,8.6137,8.1917,0.0,0.0,0.0,0.0,0.0,0.0,0.0,0.0,0.0,0.0,0.0,0.0,0.0,0.0,0.0,0.0,0.0,0.0,0.0,0.0,0.0,0.0,0.0,7.1262,0.0,0.0,0.0,0.0,0.0,0.0,0.0,0.0,0.0,7.9963,8.1923,8.4606,8.761,8.8948,9.0504,9.3448,0.0,0.0,0.0,0.0,0.0,0.0,0.0,9.1718,9.0646,8.9991,8.9333,8.8549,8.816,8.7691,8.6981,0.0,0.0,7.8649,7.693,7.6552,7.6552,7.6019,7.5481,7.5327,7.5327,7.5636,0.0,0.0,0.0,0.0,0.0,0.0,0.0,0.0,0.0,7.008,7.0026,0.0,0.0,0.0,0.0,0.0,0.0,0.0,0.0,0.0,0.0,0.0,8.0711,8.0631,0.0,0.0,0.0,0.0,0.0,0.0,0.0,0.0,0.0,0.0,0.0,0.0,8.5,9.0056,9.4,9.7235,9.9752,10.0818,10.0852,9.9845,9.7776,9.3338,8.6456,0.0,0.0,0.0,0.0,0.0,0.0,0.0,0.0,0.0,0.0,0.0,0.0,0.0,0.0,0.0,0.0,0.0,0.0,0.0,0.0,0.0,0.0,0.0,0.0,0.0,6.7733,0.0,0.0,0.0,0.0,0.0,0.0,0.0,0.0,0.0,0.0,0.0,8.0568,8.4627,8.6023,8.783,9.1291,9.2288,9.2986,0.0,0.0,0.0,0.0,0.0,0.0,0.0,0.0,0.0,0.0,0.0,0.0,0.0,0.0,7.591,7.1698,7.0366,7.0005,6.9932,0.0,0.0,0.0,0.0,0.0,0.0,0.0,0.0,0.0,0.0,0.0,0.0,0.0,0.0,0.0,6.6007,0.0,0.0,6.4948,0.0,0.0,0.0,0.0,0.0,0.0,0.0,0.0,0.0,0.0,0.0,0.0,0.0,0.0,0.0,0.0,0.0,0.0,0.0,0.0,0.0,0.0,8.2156,8.9018,9.3108,9.6564,9.9009,9.9832,9.878,9.5938,9.5194,9.1886,8.5438,0.0,0.0,0.0,0.0,0.0,0.0,0.0,0.0,0.0,0.0,0.0,0.0,0.0,0.0,0.0,0.0,0.0,0.0,0.0,0.0,0.0,0.0,0.0,0.0,0.0,0.0,6.5845,6.6827,6.744,0.0,0.0,0.0,0.0,0.0,0.0,0.0,0.0,0.0,7.9379,8.2207,8.4889,8.7116,8.9214,9.0358,9.0106,9.1353,9.1469,8.9018,8.7872,8.6466,0.0,0.0,0.0,0.0,0.0,0.0,0.0,0.0,0.0,0.0,0.0,0.0,0.0,0.0,0.0,0.0,0.0,0.0,0.0,0.0,0.0,0.0,0.0,0.0,0.0,0.0,0.0,0.0,0.0,0.0,0.0,0.0,0.0,0.0,0.0,0.0,0.0,0.0,0.0,0.0,0.0,0.0,0.0,0.0,0.0,0.0,0.0,0.0,0.0,0.0,0.0,0.0,0.0,0.0,7.9669,8.5218,8.9756,9.306,9.5058,9.5807,9.5252,9.3508,9.1036,8.7666,0.0,0.0,0.0,0.0,0.0,0.0,0.0,0.0,0.0,0.0,0.0,0.0,0.0,0.0,0.0,0.0,0.0,0.0,0.0,0.0,0.0,0.0,0.0,0.0,0.0,0.0,0.0,0.0,6.357,6.448,6.4625,0.0,0.0,0.0,0.0,0.0,0.0,0.0,0.0,0.0,0.0,8.1441,8.4803,8.6557,8.775,8.8668,8.8396,8.7671,8.6596,8.4806,8.2463,7.9259,0.0,0.0,0.0,0.0,0.0,0.0,0.0,0.0,0.0,0.0,0.0,0.0,0.0,0.0,0.0,0.0,0.0,0.0,0.0,0.0,0.0,0.0,0.0,0.0,0.0,0.0,0.0,0.0,0.0,0.0,0.0,0.0,0.0,0.0,0.0,0.0,0.0,0.0,0.0,0.0,0.0,0.0,0.0,0.0,0.0,0.0,0.0,0.0,0.0,0.0,0.0,0.0,0.0,7.7167,8.2728,8.7139,9.0338,9.2326,9.2806,9.2296,9.0956,8.7519,8.3655,0.0,0.0,0.0,0.0,0.0,0.0,0.0,0.0,0.0,0.0,0.0,0.0,0.0,0.0,0.0,0.0,0.0,0.0,0.0,0.0,0.0,0.0,0.0,0.0,0.0,0.0,0.0,0.0,6.1122,6.2127,6.229,0.0,0.0,0.0,0.0,0.0,0.0,0.0,0.0,0.0,0.0,7.8205,8.1471,8.3371,0.0,0.0,8.4775,8.4134,8.3279,8.1351,7.8821,7.5708,7.3686,0.0,0.0,0.0,0.0,0.0,0.0,0.0,0.0,0.0,0.0,0.0,0.0,0.0,0.0,0.0,0.0,0.0,0.0,0.0,0.0,0.0,0.0,0.0,0.0,0.0,0.0,0.0,0.0,0.0,0.0,0.0,0.0,0.0,0.0,0.0,0.0,0.0,0.0,0.0,0.0,0.0,0.0,0.0,0.0,0.0,0.0,0.0,0.0,0.0,0.0,0.0,0.0,7.445,8.0913,8.5186,8.8345,9.0563,9.0726,8.9947,8.813,8.4422,7.9955,0.0,0.0,0.0,0.0,0.0,0.0,0.0,0.0,0.0,0.0,0.0,0.0,0.0,0.0,0.0,0.0,0.0,0.0,0.0,0.0,0.0,0.0,0.0,0.0,0.0,0.0,0.0,0.0,0.0,0.0,0.0,0.0,0.0,0.0,0.0,0.0,0.0,0.0,0.0,0.0,0.0,7.5123,7.7476,7.9902,8.1087,0.0,8.0692,8.0927,7.9192,7.7537,7.5481,7.2834,0.0,0.0,0.0,0.0,0.0,0.0,0.0,0.0,0.0,0.0,0.0,0.0,0.0,0.0,0.0,0.0,0.0,0.0,0.0,0.0,0.0,0.0,0.0,0.0,0.0,0.0,0.0,0.0,0.0,0.0,0.0,0.0,0.0,0.0,0.0,0.0,0.0,0.0,0.0,0.0,0.0,0.0,0.0,0.0,0.0,0.0,0.0,0.0,0.0,0.0,0.0,0.0,0.0,0.0,7.7186,8.239,8.5959,8.7726,8.8331,8.7559,8.5361,8.1568,0.0,0.0,0.0,0.0,0.0,0.0,0.0,0.0,0.0,0.0,0.0,0.0,0.0,0.0,0.0,0.0,0.0,0.0,0.0,0.0,0.0,0.0,0.0,0.0,0.0,0.0,0.0,5.5404,0.0,0.0,0.0,0.0,0.0,0.0,0.0,0.0,0.0,0.0,0.0,0.0,0.0,0.0,7.2303,7.3803,7.6367,7.7815,0.0,0.0,7.7128,7.5762,7.365,7.1574,0.0,0.0,0.0,0.0,0.0,0.0,0.0,0.0,0.0,0.0,0.0,0.0,0.0,0.0,0.0,0.0,0.0,0.0,0.0,0.0,0.0,0.0,0.0,0.0,0.0,0.0,0.0,0.0,0.0,0.0,0.0,0.0,0.0,0.0,0.0,0.0,0.0,0.0,0.0,0.0,0.0,0.0,0.0,0.0,0.0,0.0,0.0,0.0,0.0,0.0,0.0,0.0,0.0,0.0,7.0012,7.4545,7.983,8.3627,8.5631,8.6108,8.5641,8.4069,7.9376,7.4861,0.0,0.0,0.0,0.0,0.0,0.0,0.0,0.0,0.0,0.0,0.0,0.0,0.0,0.0,0.0,0.0,0.0,0.0,0.0,0.0,0.0,0.0,0.0,0.0,0.0,0.0,0.0,0.0,0.0,0.0,0.0,0.0,0.0,0.0,0.0,0.0,0.0,0.0,0.0,0.0,0.0,0.0,7.0187,7.1935,0.0,0.0,0.0,7.1996,7.113,0.0,0.0,0.0,0.0,0.0,0.0,0.0,0.0,0.0,0.0,0.0,0.0,0.0,0.0,0.0,0.0,0.0,0.0,0.0,0.0,0.0,0.0,0.0,0.0,0.0,0.0,0.0,0.0,0.0,0.0,0.0,0.0,0.0,0.0,0.0,0.0,0.0,0.0,0.0,0.0,0.0,0.0,0.0,0.0,0.0,0.0,0.0,0.0,0.0,0.0,0.0,0.0,0.0,0.0,0.0,0.0,0.0,7.2664,7.746,8.1089,8.3677,8.388,8.3616,8.2874,7.7245,7.269,0.0,0.0,0.0,0.0,0.0,0.0,0.0,0.0,0.0,0.0,0.0,0.0,0.0,0.0,0.0,0.0,0.0,0.0,0.0,0.0,0.0,0.0,0.0,0.0,0.0,0.0,0.0,0.0,0.0,0.0,0.0,0.0,0.0,0.0,0.0,0.0,0.0,0.0,0.0,0.0,0.0,6.5468,6.6646,6.7474,6.8047,0.0,0.0,6.6721,6.6181,6.4764,0.0,0.0,0.0,0.0,0.0,0.0,0.0,0.0,0.0,0.0,0.0,0.0,0.0,0.0,0.0,0.0,0.0,0.0,0.0,0.0,0.0,0.0,0.0,0.0,0.0,0.0,0.0,0.0,0.0,0.0,0.0,0.0,0.0,0.0,0.0,0.0,0.0,0.0,0.0,0.0,0.0,0.0,0.0,0.0,0.0,0.0,0.0,0.0,0.0,0.0,0.0,0.0,0.0,0.0,0.0,0.0,7.158,7.5285,7.8262,8.045,8.1004,8.0502,7.8926,7.5235,7.1328,0.0,0.0,0.0,0.0,0.0,0.0,0.0,0.0,0.0,0.0,0.0,0.0,0.0,0.0,0.0,0.0,0.0,0.0,0.0,0.0,0.0,0.0,0.0,0.0,0.0,0.0,0.0,0.0,0.0,0.0,0.0,0.0,0.0,0.0,0.0,0.0,0.0,0.0,0.0,0.0,0.0,6.2669,6.3819,6.4969,0.0,0.0,0.0,0.0,6.34,6.1229,0.0,0.0,0.0,0.0,0.0,0.0,0.0,0.0,0.0,0.0,0.0,0.0,0.0,0.0,0.0,0.0,0.0,0.0,0.0,0.0,0.0,0.0,0.0,0.0,0.0,0.0,0.0,0.0,0.0,0.0,0.0,0.0,0.0,0.0,0.0,0.0,0.0,0.0,0.0,0.0,0.0,0.0,0.0,0.0,0.0,0.0,0.0,0.0,0.0,0.0,0.0,0.0,0.0,0.0,0.0,0.0,6.9431,7.278,7.57,7.7949,7.9093,7.8807,7.7064,7.4339,7.0929,0.0,0.0,0.0,0.0,0.0,0.0,0.0,0.0,0.0,0.0,0.0,0.0,0.0,0.0,0.0,0.0,0.0,0.0,0.0,0.0,0.0,0.0,0.0,0.0,0.0,0.0,0.0,0.0,0.0,0.0,0.0,0.0,0.0,0.0,0.0,0.0,0.0,0.0,0.0,0.0,5.8001,5.923,5.9794,0.0,0.0,0.0,0.0,0.0,0.0,5.6587,5.5274,0.0,0.0,0.0,0.0,0.0,0.0,0.0,0.0,0.0,0.0,0.0,0.0,0.0,0.0,0.0,0.0,0.0,0.0,0.0,0.0,0.0,0.0,0.0,0.0,0.0,0.0,0.0,0.0,0.0,0.0,0.0,0.0,0.0,0.0,0.0,0.0,0.0,0.0,0.0,0.0,0.0,0.0,0.0,0.0,0.0,0.0,0.0,0.0,0.0,0.0,0.0,0.0,0.0,0.0,0.0,6.7013,7.0055,7.292,7.557,7.6896,7.6967,7.57,7.3392,7.0241,6.5835,0.0,0.0,0.0,0.0,0.0,0.0,0.0,0.0,0.0,0.0,0.0,0.0,0.0,0.0,0.0,0.0,0.0,0.0,0.0,0.0,0.0,0.0,0.0,0.0,0.0,0.0,0.0,0.0,0.0,0.0,0.0,0.0,0.0,0.0,0.0,0.0,0.0,0.0,0.0,5.5176,5.5722,0.0,0.0,0.0,0.0,0.0,0.0,0.0,0.0,5.1269,0.0,0.0,0.0,0.0,0.0,0.0,0.0,0.0,0.0,0.0,0.0,0.0,0.0,0.0,0.0,0.0,0.0,0.0,0.0,0.0,0.0,0.0,0.0,0.0,0.0,0.0,0.0,0.0,0.0,0.0,0.0,0.0,0.0,0.0,0.0,0.0,0.0,0.0,0.0,0.0,0.0,0.0,0.0,0.0,0.0,0.0,0.0,0.0,0.0,0.0,0.0,0.0,0.0,0.0,0.0,0.0,6.6755,6.9367,7.2164,7.2651,7.3018,7.3559,7.0923,6.7568,6.3256,0.0,0.0,0.0,0.0,0.0,0.0,0.0,0.0,0.0,0.0,0.0,0.0,0.0,0.0,0.0,0.0,0.0,0.0,0.0,0.0,0.0,0.0,0.0,0.0,0.0,0.0,0.0,0.0,0.0,0.0,0.0,0.0,0.0,0.0,0.0,0.0,0.0,0.0,5.1991,5.2312,0.0,0.0,0.0,0.0,0.0,0.0,0.0,0.0,5.0038,0.0,0.0,0.0,0.0,0.0,0.0,0.0,0.0,0.0,0.0,0.0,0.0,0.0,0.0,0.0,0.0,0.0,0.0,0.0,0.0,0.0,0.0,0.0,0.0,0.0,0.0,0.0,0.0,0.0,0.0,0.0,0.0,0.0,0.0,0.0,0.0,0.0,0.0,0.0,0.0,0.0,0.0,0.0,0.0,0.0,0.0,0.0,0.0,0.0,0.0,0.0,0.0,0.0,0.0,0.0,0.0,0.0,0.0,6.6114,6.8278,6.966,7.0313,7.0054,6.6637,6.3392,0.0,0.0,0.0,0.0,0.0,0.0,0.0,0.0,0.0,0.0,0.0,0.0,0.0,0.0,0.0,0.0,0.0,0.0,0.0,0.0,0.0,0.0,0.0,0.0,0.0,0.0,0.0,0.0,0.0,0.0,0.0,0.0,0.0,0.0,0.0,0.0,0.0,0.0,0.0,0.0,0.0,0.0,0.0,0.0,0.0,0.0,0.0,0.0,0.0,0.0,0.0,0.0,0.0,0.0,0.0,0.0,0.0,0.0,0.0,0.0,0.0,0.0,0.0,0.0,0.0,0.0,0.0,0.0,0.0,0.0,0.0,0.0,0.0,0.0,0.0,0.0,0.0,0.0,0.0,0.0,0.0,0.0,0.0,0.0,0.0,0.0,0.0,0.0,0.0,0.0,0.0,0.0,0.0,0.0,0.0,0.0,0.0,0.0,0.0,0.0,0.0,0.0,0.0,0.0,0.0,0.0,0.0,0.0,6.2975,6.4924,6.6725,6.7454,6.7123,6.2594,5.9444,0.0,0.0,0.0,0.0,0.0,0.0,0.0,0.0,0.0,0.0,0.0,0.0,0.0,0.0,0.0,0.0,0.0,0.0,0.0,0.0,0.0,0.0,0.0,0.0,0.0,0.0,0.0,0.0,0.0,0.0,0.0,0.0,0.0,0.0,0.0,0.0,0.0,0.0,0.0,0.0,0.0,0.0,0.0,0.0,0.0,0.0,0.0,0.0,4.4999,0.0,0.0,0.0,0.0,0.0,0.0,0.0,0.0,0.0,0.0,0.0,0.0,0.0,0.0,0.0,0.0,0.0,0.0,0.0,0.0,0.0,0.0,0.0,0.0,0.0,0.0,0.0,0.0,0.0,0.0,0.0,0.0,0.0,0.0,0.0,0.0,0.0,0.0,0.0,0.0,0.0,0.0,0.0,0.0,0.0,0.0,0.0,0.0,0.0,0.0,0.0,0.0,0.0,0.0,0.0,0.0,0.0,0.0,0.0,5.977,6.3325,6.2868,6.3536,6.527,6.0389,5.6857,0.0,0.0,0.0,0.0,0.0,0.0,0.0,0.0,0.0,0.0,0.0,0.0,0.0,0.0,0.0,0.0,0.0,0.0,0.0,0.0,0.0,0.0,0.0,0.0,0.0,0.0,0.0,0.0,0.0,0.0,0.0,0.0,0.0,0.0,0.0,0.0,0.0,0.0,0.0,0.0,0.0,0.0,0.0,0.0,0.0,0.0,0.0,0.0,0.0,0.0,0.0,0.0,0.0,0.0,0.0,0.0,0.0,0.0,0.0,0.0,0.0,0.0,0.0,0.0,0.0,0.0,0.0,0.0,0.0,0.0,0.0,0.0,0.0,0.0,0.0,0.0,0.0,0.0,0.0,0.0,0.0,0.0,0.0,0.0,0.0,0.0,0.0,0.0,0.0,0.0,0.0,0.0,0.0,0.0,0.0,0.0,0.0,0.0,0.0,0.0,0.0,0.0,0.0,0.0,0.0,0.0,0.0,0.0,5.7123,5.9738,5.9944,6.0152,6.0267,5.6135,5.3546,0.0,0.0,0.0,0.0,0.0,0.0,0.0,0.0,0.0,0.0,0.0,0.0,0.0,0.0,0.0,0.0,0.0,0.0,0.0,0.0,0.0,0.0,0.0,0.0,0.0,0.0,0.0,0.0,0.0,0.0,0.0,0.0,0.0,0.0,0.0,0.0,0.0,0.0,0.0,0.0,0.0,0.0,0.0,0.0,0.0,0.0,0.0,0.0,0.0,0.0,0.0,0.0,0.0,0.0,0.0,0.0,0.0,0.0,0.0,0.0,0.0,0.0,0.0,0.0,0.0,0.0,0.0,0.0,0.0,0.0,0.0,0.0,0.0,0.0,0.0,0.0,0.0,0.0,0.0,0.0,0.0,0.0,0.0,0.0,0.0,0.0,0.0,0.0,0.0,0.0,0.0,0.0,0.0,0.0,0.0,0.0,0.0,0.0,0.0,0.0,0.0,0.0,0.0,0.0,0.0,0.0,0.0,0.0,0.0,5.6713,5.6832,5.6338,5.5347,5.2806,5.1123,0.0,0.0,0.0,0.0,0.0,0.0,0.0,0.0,0.0,0.0,0.0,0.0,0.0,0.0,0.0,0.0,0.0,0.0,0.0,0.0,0.0,0.0,0.0,0.0,0.0,0.0,0.0,0.0,0.0,0.0,0.0,0.0,0.0,0.0,0.0,0.0,0.0,0.0,0.0,0.0,0.0,0.0,0.0,0.0,0.0,0.0,0.0,0.0,0.0,0.0,0.0,0.0,0.0,0.0,0.0,0.0,0.0,0.0,0.0,0.0,0.0,0.0,0.0,0.0,0.0,0.0,0.0,0.0,0.0,0.0,0.0,0.0,0.0,0.0,0.0,0.0,0.0,0.0,0.0,0.0,0.0,0.0,0.0,0.0,0.0,0.0,0.0,0.0,0.0,0.0,0.0,0.0,0.0,0.0,0.0,0.0,0.0,0.0,0.0,0.0,0.0,0.0,0.0,0.0,0.0,0.0,0.0,0.0,0.0,5.5236,5.3248,5.2088,5.1971,5.1278,5.0386,0.0,0.0,0.0,0.0,0.0,0.0,0.0,0.0,0.0,0.0,0.0,0.0,0.0,0.0,0.0,0.0,0.0,0.0,0.0,0.0,0.0,0.0,0.0,0.0,0.0,0.0,0.0,0.0,0.0,0.0,0.0,0.0,0.0,0.0,0.0,0.0,0.0,0.0,0.0,0.0,0.0,0.0,0.0,0.0,0.0,0.0,0.0,0.0,0.0,0.0,0.0,0.0,0.0,0.0,0.0,0.0,0.0,0.0,0.0,0.0,0.0,0.0,0.0,0.0,0.0,0.0,0.0,0.0,0.0,0.0,0.0,0.0,0.0,0.0,0.0,0.0,0.0,0.0,0.0,0.0,0.0,0.0,0.0,0.0,0.0,0.0,0.0,0.0,0.0,0.0,0.0,0.0,0.0,0.0,0.0,0.0,0.0,0.0,0.0,0.0,0.0,0.0,0.0,0.0,0.0,0.0,0.0,0.0,0.0,5.1644,5.0404,4.9749,5.0125,4.874,4.7513,4.6404,0.0,0.0,0.0,0.0,0.0,0.0,0.0,0.0,0.0,0.0,0.0,0.0,0.0,0.0,0.0,0.0,0.0,0.0,0.0,0.0,0.0,0.0,0.0,0.0,0.0,0.0,0.0,0.0,0.0,0.0,0.0,0.0,0.0,0.0,0.0,0.0,0.0,0.0,0.0,0.0,0.0,0.0,0.0,0.0,0.0,0.0,0.0,0.0,0.0,0.0,0.0,0.0,0.0,0.0,0.0,0.0,0.0,0.0,0.0,0.0,0.0,0.0,0.0,0.0,0.0,0.0,0.0,0.0,0.0,0.0,0.0,0.0,0.0,0.0,0.0,0.0,0.0,0.0,0.0,0.0,0.0,0.0,0.0,0.0,0.0,0.0,0.0,0.0,0.0,0.0,0.0,0.0,0.0,0.0,0.0,0.0,0.0,0.0,0.0,0.0,0.0,0.0,0.0,0.0,0.0,0.0,0.0,0.0,4.9115,4.8631,4.847,4.8429,4.7024,4.5863,0.0,0.0,0.0,0.0,0.0,0.0,0.0,0.0,0.0,0.0,0.0,0.0,0.0,0.0,0.0,0.0,0.0,0.0,0.0,0.0,0.0,0.0,0.0,0.0,0.0,0.0,0.0,0.0,0.0,0.0,0.0,0.0,0.0,0.0,0.0,0.0,0.0,0.0,0.0,0.0,0.0,0.0,0.0,0.0,0.0,0.0,0.0,0.0,0.0,0.0,0.0,0.0,0.0,0.0,0.0,0.0,0.0,0.0,0.0,0.0,0.0,0.0,0.0,0.0,0.0,0.0,0.0,0.0,0.0,0.0,0.0,0.0,0.0,0.0,0.0,0.0,0.0,0.0,0.0,0.0,0.0,0.0,0.0,0.0,0.0,0.0,0.0,0.0,0.0,0.0,0.0,0.0,0.0,0.0,0.0,0.0,0.0,0.0,0.0,0.0,0.0,0.0,0.0,0.0,0.0,0.0,0.0,0.0,4.7638,4.7638,4.8097,4.7937,4.7081,4.6499,4.5786,0.0,0.0,0.0,0.0,0.0,0.0,0.0,0.0,0.0,0.0,0.0,0.0,0.0,0.0,0.0,0.0,0.0,0.0,0.0,0.0,0.0,0.0,0.0,0.0,0.0,0.0,0.0,0.0,0.0,0.0,0.0,0.0,0.0,0.0,0.0,0.0,0.0,0.0,0.0,0.0,0.0,0.0,0.0,0.0,0.0,0.0,0.0,0.0,0.0,0.0,0.0,0.0,0.0,0.0,0.0,0.0,0.0,0.0,0.0,0.0,0.0,0.0,0.0,0.0,0.0,0.0,0.0,0.0,0.0,0.0,0.0,0.0,0.0,0.0,0.0,0.0,0.0,0.0,0.0,0.0,0.0,0.0,0.0,0.0,0.0,0.0,0.0,0.0,0.0,0.0,0.0,0.0,0.0,0.0,0.0,0.0,0.0,0.0,0.0,0.0,0.0,0.0,0.0,0.0,0.0,0.0,0.0,0.0,0.0,4.7304,0.0,4.7243,4.5787,4.5542,4.4728,0.0,0.0,0.0,0.0,0.0,0.0,0.0,0.0,0.0,0.0,0.0,0.0,0.0,0.0,0.0,0.0,0.0,0.0,0.0,0.0,0.0,0.0,0.0,0.0,0.0,0.0,0.0,0.0,0.0,0.0,0.0,0.0,0.0,0.0,0.0,0.0,0.0,0.0,0.0,0.0,0.0,0.0,0.0,0.0,0.0,0.0,0.0,0.0,0.0,0.0,0.0,0.0,0.0,0.0,0.0,0.0,0.0,0.0,0.0,0.0,0.0,0.0,0.0,0.0,0.0,0.0,0.0,0.0,0.0,0.0,0.0,0.0,0.0,0.0,0.0,0.0,0.0,0.0,0.0,0.0,0.0,0.0,0.0,0.0,0.0,0.0,0.0,0.0,0.0,0.0,0.0,0.0,0.0,0.0,0.0,0.0,0.0,0.0,0.0,0.0,0.0,0.0,0.0,0.0,0.0,0.0,0.0,0.0,0.0,4.7053,4.7304,4.6631,4.5187,4.5066,4.4221,0.0,0.0,0.0,0.0,0.0,0.0,0.0,0.0,0.0,0.0,0.0,0.0,0.0,0.0,0.0,0.0,0.0,0.0,0.0,0.0,0.0,0.0,0.0,0.0,0.0,0.0,0.0,0.0,0.0,0.0,0.0,0.0,0.0,0.0,0.0,0.0,0.0,0.0,0.0,0.0,0.0,0.0,0.0,0.0,0.0,0.0,0.0,0.0,0.0,0.0,0.0,0.0,0.0,0.0,0.0,0.0,0.0,0.0,0.0,0.0,0.0,0.0,0.0,0.0,0.0,0.0,0.0,0.0,0.0,0.0,0.0,0.0,0.0,0.0,0.0,0.0,0.0,0.0,0.0,0.0,0.0,0.0,0.0,0.0,0.0,0.0,0.0,0.0,0.0,0.0,0.0,0.0,0.0,0.0,0.0,0.0,0.0,0.0,0.0,0.0,0.0,0.0,0.0,0.0,0.0,0.0,0.0,0.0,0.0,4.697,4.693,4.6345,4.5227,4.5066,4.4181,0.0,0.0,0.0,0.0,0.0,0.0,0.0,0.0,0.0,0.0,0.0,0.0,0.0,0.0,0.0,0.0,0.0,0.0,0.0,0.0,0.0,0.0,0.0,0.0,0.0,0.0,0.0,0.0,0.0,0.0,0.0,0.0,0.0,0.0,0.0,0.0,0.0,0.0,0.0,0.0,0.0,0.0,0.0,0.0,0.0,0.0,0.0,0.0,0.0,0.0,0.0,0.0,0.0,0.0,0.0,0.0,0.0,0.0,0.0,0.0,0.0,0.0,0.0,0.0,0.0,0.0,0.0,0.0,0.0,0.0,0.0,0.0,0.0,0.0,0.0,0.0,0.0,0.0,0.0,0.0,0.0,0.0,0.0,0.0,0.0,0.0,0.0,0.0,0.0,0.0,0.0,0.0,0.0,0.0,0.0,0.0,0.0,0.0,0.0,0.0,0.0,0.0,0.0,0.0,0.0,0.0,0.0,0.0,0.0,0.0,4.5756,4.5618,4.5509,4.4628,4.3577,4.241,0.0,0.0,0.0,0.0,0.0,0.0,0.0,0.0,0.0,0.0,0.0,0.0,0.0,0.0,0.0,0.0,0.0,0.0,0.0,0.0,0.0,0.0,0.0,0.0,0.0,0.0,0.0,0.0,0.0,0.0,0.0,0.0,0.0,0.0,0.0,0.0,0.0,0.0,0.0,0.0,0.0,0.0,0.0,0.0,0.0,0.0,0.0,0.0,0.0,0.0,0.0,0.0,0.0,0.0,0.0,0.0,0.0,0.0,0.0,0.0,0.0,0.0,0.0,0.0,0.0,0.0,0.0,0.0,0.0,0.0,0.0,0.0,0.0,0.0,0.0,0.0,0.0,0.0,0.0,0.0,0.0,0.0,0.0,0.0,0.0,0.0,0.0,0.0,0.0,0.0,0.0,0.0,0.0,0.0,0.0,0.0,0.0,0.0,0.0,0.0,0.0,0.0,0.0,0.0,0.0,0.0,0.0,0.0,0.0,0.0,4.4463,4.4987,4.384,4.2957,0.0,0.0,0.0,0.0,0.0,0.0,0.0,0.0,0.0,0.0,0.0,0.0,0.0,0.0,0.0,0.0,0.0,0.0,0.0,0.0,0.0,0.0,0.0,0.0,0.0,0.0,0.0,0.0,0.0,0.0,0.0,0.0,0.0,0.0,0.0,0.0,0.0,0.0,0.0,0.0,0.0,0.0,0.0,0.0,0.0,0.0,0.0,0.0,0.0,0.0,0.0,0.0,0.0,0.0,0.0,0.0,0.0,0.0,0.0,0.0,0.0,0.0,0.0,0.0,0.0,0.0,0.0,0.0,0.0,0.0,0.0,0.0,0.0,0.0,0.0,0.0,0.0,0.0,0.0,0.0,0.0,0.0,0.0,0.0,0.0,0.0,0.0,0.0,0.0,0.0,0.0,0.0,0.0,0.0,0.0,0.0,0.0,0.0,0.0,0.0,0.0,0.0,0.0,0.0,0.0,0.0,0.0,0.0,0.0,0.0,0.0,4.3206,4.3683,4.2862,0.0,4.1742,0.0,0.0,0.0,0.0,0.0,0.0,0.0,0.0,0.0,0.0,0.0,0.0,0.0,0.0,0.0,0.0,0.0,0.0,0.0,0.0,0.0,0.0,0.0,0.0,0.0,0.0,0.0,0.0,0.0,0.0,0.0,0.0,0.0,0.0,0.0,0.0,0.0,0.0,0.0,0.0,0.0,0.0,0.0,0.0,0.0,0.0,0.0,0.0,0.0,0.0,0.0,0.0,0.0,0.0,0.0,0.0,0.0,0.0,0.0,0.0,0.0,0.0,0.0,0.0,0.0,0.0,0.0,0.0,0.0,0.0,0.0,0.0,0.0,0.0,0.0,0.0,0.0,0.0,0.0,0.0,0.0,0.0,0.0,0.0,0.0,0.0,0.0,0.0,0.0,0.0,0.0,0.0,0.0,0.0,0.0,0.0,0.0,0.0,0.0,0.0,0.0,0.0,0.0,0.0,0.0,0.0,0.0,0.0,0.0,0.0,0.0,0.0,4.1504,4.1114,4.1255,0.0,0.0,0.0,0.0,0.0,0.0,0.0,0.0,0.0,0.0,0.0,0.0,0.0,0.0,0.0,0.0,0.0,0.0,0.0,0.0,0.0,0.0,0.0,0.0,0.0,0.0,0.0,0.0,0.0,0.0,0.0,0.0,0.0,0.0,0.0,0.0,0.0,0.0,0.0,0.0,0.0,0.0,0.0,0.0,0.0,0.0,0.0,0.0,0.0,0.0,0.0,0.0,0.0,0.0,0.0,0.0,0.0,0.0,0.0,0.0,0.0,0.0,0.0,0.0,0.0,0.0,0.0,0.0,0.0,0.0,0.0,0.0,0.0,0.0,0.0,0.0,0.0,0.0,0.0,0.0,0.0,0.0,0.0,0.0,0.0,0.0,0.0,0.0,0.0,0.0,0.0,0.0,0.0,0.0,0.0,0.0,0.0,0.0,0.0,0.0,0.0,0.0,0.0,0.0,0.0,0.0,0.0,0.0,0.0,0.0,4.0815,4.0968,4.0547,4.0351,4.0337,0.0,0.0,0.0,0.0,0.0,0.0,0.0,0.0,0.0,0.0,0.0,0.0,0.0,0.0,0.0,0.0,0.0,0.0,0.0,0.0,0.0,0.0,0.0,0.0,0.0,0.0,0.0,0.0,0.0,0.0,0.0,0.0,0.0,0.0,0.0,0.0,0.0,0.0,0.0,0.0,0.0,0.0,0.0,0.0,0.0,0.0,0.0,0.0,0.0,0.0,0.0,0.0,0.0,0.0,0.0,0.0,0.0,0.0,0.0,0.0,0.0,0.0,0.0,0.0,0.0,0.0,0.0,0.0,0.0,0.0,0.0,0.0,0.0,0.0,0.0,0.0,0.0,0.0,0.0,0.0,0.0,0.0,0.0,0.0,0.0,0.0,0.0,0.0,0.0,0.0,0.0,0.0,0.0,0.0,0.0,0.0,0.0,0.0,0.0,0.0,0.0,0.0,0.0,0.0,0.0,0.0,0.0,0.0,0.0,0.0,0.0,0.0,0.0,0.0,3.9163,0.0,0.0,0.0,0.0,0.0,0.0,0.0,0.0,0.0,0.0,0.0,0.0,0.0,0.0,0.0,0.0,0.0,0.0,0.0,0.0,0.0,0.0,0.0,0.0,0.0,0.0,0.0,0.0,0.0,0.0,0.0,0.0,0.0,0.0,0.0,0.0,0.0,0.0,0.0,0.0,0.0,0.0,0.0,0.0,0.0,0.0,0.0,0.0,0.0,0.0,0.0,0.0,0.0,0.0,0.0,0.0,0.0,0.0,0.0,0.0,0.0,0.0,0.0,0.0,0.0,0.0,0.0,0.0,0.0,0.0,0.0,0.0,0.0,0.0,0.0,0.0,0.0,0.0,0.0,0.0,0.0,0.0,0.0,0.0,0.0,0.0,0.0,0.0,0.0,0.0,0.0,0.0,0.0,0.0,0.0,0.0,0.0,0.0,0.0,0.0,0.0,0.0,0.0,0.0,0.0,0.0,0.0,0.0,0.0,0.0,0.0,0.0,0.0,0.0,0.0,0.0,0.0,0.0,0.0,0.0,0.0,0.0,0.0,0.0,0.0,0.0,0.0,0.0,0.0,0.0,0.0,0.0,0.0,0.0,0.0,0.0,0.0,0.0,0.0,0.0,0.0,0.0,0.0,0.0,0.0,0.0,0.0,0.0,0.0,0.0,0.0,0.0,0.0,0.0,0.0,0.0,0.0,0.0,0.0,0.0,0.0,0.0,0.0,0.0,0.0,0.0,0.0,0.0,0.0,0.0,0.0,0.0,0.0,0.0,0.0,0.0,0.0,0.0,0.0,0.0,0.0,0.0,0.0,0.0,0.0,0.0,0.0,0.0,0.0,0.0,0.0,0.0,0.0,0.0,0.0,0.0,0.0,0.0,0.0,0.0,0.0,0.0,0.0,0.0,0.0,0.0,0.0,0.0,0.0,0.0,0.0,0.0,0.0,0.0,0.0,0.0,0.0,0.0,0.0,0.0,0.0,0.0,0.0,0.0,0.0,0.0,0.0,0.0,0.0,0.0,0.0,0.0,0.0,0.0,0.0,0.0,0.0,0.0,0.0,0.0,0.0,0.0,0.0,0.0,0.0,0.0,0.0,0.0,0.0,0.0,0.0,0.0,0.0,0.0,0.0,0.0,0.0,0.0,0.0,0.0,0.0,0.0,0.0,0.0,0.0,0.0,0.0,0.0,0.0,0.0,0.0,0.0,0.0,0.0,0.0,0.0,0.0,0.0,0.0,0.0,0.0,0.0,0.0,0.0,0.0,0.0,0.0,0.0,0.0,0.0,0.0,0.0,0.0,0.0,0.0,0.0,0.0,0.0,0.0,0.0,0.0,0.0,0.0,0.0,0.0,0.0,0.0,0.0,0.0,0.0,0.0,0.0,0.0,0.0,0.0,0.0,0.0,0.0,0.0,0.0,0.0,0.0,0.0,0.0,0.0,0.0,0.0,0.0,0.0,0.0,0.0,0.0,0.0,0.0,0.0,0.0,0.0,0.0,0.0,0.0,0.0,0.0,0.0,0.0,0.0,0.0,0.0,0.0,0.0,0.0,0.0,0.0,0.0,0.0,0.0,0.0,0.0,0.0,0.0,0.0,0.0,0.0,0.0,0.0,0.0,0.0,0.0,0.0,0.0,0.0,0.0,0.0,0.0,0.0,0.0,0.0,0.0,0.0,0.0,0.0,0.0,0.0,0.0,0.0,0.0,0.0,0.0,0.0,0.0,0.0,0.0,0.0,0.0,0.0,0.0,0.0,0.0,0.0,0.0,0.0,0.0,0.0,0.0,0.0,0.0,0.0,0.0,0.0,0.0,0.0,0.0,0.0,0.0,0.0,0.0,0.0,0.0,0.0,0.0,0.0,0.0,0.0,0.0,0.0,0.0,0.0,0.0,0.0,0.0,0.0,0.0,0.0,0.0,0.0,0.0,0.0,0.0,0.0,0.0,0.0,0.0,0.0,0.0,0.0,0.0,0.0,0.0,0.0,0.0,0.0,0.0,0.0,0.0,0.0,0.0,0.0,0.0,0.0,0.0,0.0,0.0,0.0,0.0,0.0,0.0,0.0,0.0,0.0,0.0,0.0,0.0,0.0,0.0,0.0,0.0,0.0,0.0,0.0,0.0,0.0,0.0,0.0,0.0,0.0,0.0,0.0,0.0,0.0,0.0,0.0,0.0,0.0,0.0,0.0,0.0,0.0,0.0,0.0,0.0,0.0,0.0,0.0,0.0,0.0,0.0,0.0,0.0,0.0,0.0,0.0,0.0,0.0,0.0,0.0,0.0,0.0,0.0,0.0,0.0,0.0,0.0,0.0,0.0,0.0,0.0,0.0,0.0,0.0,0.0,0.0,0.0,0.0,0.0,0.0,0.0,0.0,0.0,0.0,0.0,0.0,0.0,0.0,0.0,0.0,0.0,0.0,0.0,0.0,0.0,0.0,0.0,0.0,0.0,0.0,0.0,0.0,0.0,0.0,0.0,0.0,0.0,0.0,0.0,0.0,0.0,0.0,0.0,0.0,0.0,0.0,0.0,0.0,0.0,0.0,0.0,0.0,0.0,0.0,0.0,0.0,0.0,0.0,0.0,0.0,0.0,0.0,0.0,0.0,0.0,0.0,0.0,0.0,0.0,0.0,0.0,0.0,0.0,0.0,0.0,0.0,0.0,0.0,0.0,0.0,0.0,0.0,0.0,0.0,0.0,0.0,0.0,0.0,0.0,0.0,0.0,0.0,0.0,0.0,0.0,0.0,0.0,0.0,0.0,0.0,0.0,0.0,0.0,0.0,0.0,0.0,0.0,0.0,0.0,0.0,0.0,0.0,0.0,0.0,0.0,0.0,0.0,0.0,0.0,0.0,0.0,0.0,0.0,0.0,0.0,0.0,0.0,0.0,0.0,0.0,0.0,0.0,0.0,0.0,0.0,0.0,0.0,0.0,0.0,0.0,0.0,0.0,0.0,0.0,0.0,0.0,0.0,0.0,0.0,0.0,0.0,0.0,0.0,0.0,0.0,0.0,0.0,0.0,0.0,0.0,0.0,0.0,0.0,0.0,0.0,0.0,0.0,0.0,0.0,0.0,0.0,0.0,0.0,0.0,0.0,0.0,0.0,0.0,0.0,0.0,0.0,0.0,0.0,0.0,0.0,0.0,0.0,0.0,0.0,0.0,0.0,0.0,0.0,0.0,0.0,0.0,0.0,0.0,0.0,0.0,0.0,0.0,0.0,0.0,0.0,0.0,0.0,0.0,0.0,0.0,0.0,0.0,0.0,0.0,0.0,0.0,0.0,0.0,0.0,0.0,0.0,0.0,0.0,0.0,0.0,0.0,0.0,0.0,0.0,0.0,0.0,0.0,0.0,0.0,0.0,0.0,0.0,0.0,0.0,0.0,0.0,0.0,0.0,0.0,0.0,0.0,0.0,0.0,0.0,0.0,0.0,0.0,0.0,0.0,0.0,0.0,0.0,0.0,0.0,0.0,0.0,0.0,0.0,0.0,0.0,0.0,0.0,0.0,0.0,0.0,0.0,0.0,0.0,0.0,0.0,0.0,0.0,0.0,0.0,0.0,0.0,0.0,0.0,0.0,0.0,0.0,0.0,0.0,0.0,0.0,0.0,0.0,0.0,0.0,0.0,0.0,0.0,0.0,0.0,0.0,0.0,0.0,0.0,0.0,0.0,0.0,0.0,0.0,0.0,0.0,0.0,0.0,0.0,0.0,0.0,0.0,0.0,0.0,0.0,0.0,0.0,0.0,0.0,0.0,0.0,0.0,0.0,0.0,0.0,0.0,0.0,0.0,0.0,0.0,0.0,0.0,0.0,0.0,0.0,0.0,0.0,0.0,0.0,0.0,0.0,0.0,0.0,0.0,0.0,0.0,0.0,0.0,0.0,0.0,0.0,0.0,0.0,0.0,0.0,0.0,0.0,0.0,0.0,0.0,0.0,0.0,0.0,0.0,0.0,0.0,0.0,0.0,0.0,0.0,0.0,0.0,0.0,0.0,0.0,0.0,0.0,0.0,0.0,0.0,0.0,0.0,0.0,0.0,0.0,0.0,0.0,0.0,0.0,0.0,0.0,0.0,0.0,0.0,0.0,0.0,0.0,0.0,0.0,0.0,0.0,0.0,0.0,0.0,0.0,0.0,0.0,0.0,0.0,0.0,0.0,0.0,0.0,0.0,0.0,0.0,0.0,0.0,0.0,0.0,0.0,0.0,0.0,0.0,0.0,0.0,0.0,0.0,0.0,0.0,0.0,0.0,0.0,0.0,0.0,0.0,0.0,0.0,0.0,0.0,0.0,0.0,0.0,0.0,0.0,0.0,0.0,0.0,0.0,0.0,0.0,0.0,0.0,0.0,0.0,0.0,0.0,0.0,0.0,0.0]}]]]